[[{"header":{"parameterUnit":"m.s-1","parameterCategory":1,"la1":31.0,"la2":29.5877,"lo1":-88.7671,"lo2":-86.6584,"dy":0.0162,"dx":0.0185,"nx":115,"ny":88,"refTime":"2023-05-22T06:00:00:Z","depth":0,"parameterNumber":2,"parameterNumberName":"U-component_of_WINDS"},"data":[0.0,0.0,0.0,0.0,0.0,0.0,0.0,0.0,0.0,0.0,0.0,0.0,0.0,0.0,0.0,0.0,0.0,0.0,0.0,0.0,0.0,0.0,0.0,0.0,0.0,0.0,0.0,0.0,0.0,0.0,0.0,0.0,0.0,0.0,0.0,0.0,0.0,0.0,0.0,0.0,0.0,0.0,0.0,0.0,0.0,0.0,0.0,0.0,0.0,0.0,0.0,0.0,0.0,0.0,0.0,0.0,0.0,0.0,0.0,0.0,0.0,0.0,0.0,0.0,0.0,0.0,0.0,0.0,0.0,0.0,0.0,0.0,0.0,0.0,0.0,0.0,0.0,0.0,0.0,0.0,0.0,0.0,0.0,0.0,0.0,0.0,0.0,0.0,0.0,0.0,0.0,0.0,0.0,0.0,0.0,0.0,0.0,0.0,0.0,0.0,0.0,0.0,0.0,0.0,0.0,0.0,0.0,0.0,0.0,0.0,0.0,0.0,0.0,0.0,0.0,0.0,0.0,0.0,0.0,0.0,0.0,0.0,0.0,0.0,0.0,0.0,0.0,0.0,0.0,0.0,0.0,0.0,0.0,0.0,0.0,0.0,0.0,0.0,0.0,0.0,0.0,0.0,0.0,0.0,0.0,0.0,0.0,0.0,0.0,0.0,0.0,0.0,0.0,0.0,0.0,0.0,0.0,0.0,0.0,0.0,0.0,0.0,0.0,0.0,0.0,0.0,0.0,0.0,0.0,0.0,0.0,0.0,0.0,0.0,0.0,0.0,0.0,0.0,0.0,0.0,0.0,0.0,0.0,0.0,0.0,0.0,0.0,0.0,0.0,0.0,0.0,0.0,0.0,0.0,0.0,0.0,0.0,0.0,0.0,0.0,0.0,0.0,0.0,0.0,0.0,0.0,0.0,0.0,0.0,0.0,0.0,0.0,0.0,0.0,0.0,0.0,0.0,0.0,0.0,0.0,0.0,0.0,0.0,0.0,0.0,0.0,0.0,0.0,0.0,0.0,0.0,0.0,0.0,0.0,0.0,0.0,0.0,0.0,0.0,0.0,0.0,0.0,0.0,0.0,0.0,0.0,0.0,0.0,0.0,0.0,0.0,0.0,0.0,0.0,0.0,0.0,0.0,0.0,0.0,0.0,0.0,0.0,0.0,0.0,0.0,0.0,0.0,0.0,0.0,0.0,0.0,0.0,0.0,0.0,0.0,0.0,0.0,0.0,0.0,0.0,0.0,0.0,0.0,0.0,0.0,0.0,0.0,0.0,0.0,0.0,0.0,0.0,0.0,0.0,0.0,0.0,0.0,0.0,0.0,0.0,0.0,0.0,0.0,0.0,0.0,0.0,0.0,0.0,0.0,0.0,0.0,0.0,0.0,0.0,0.0,0.0,0.0,0.0,0.0,0.0,0.0,0.0,0.0,0.0,0.0,0.0,0.0,0.0,0.0,0.0,0.0,0.0,0.0,0.0,0.0,0.0,0.0,0.0,0.0,0.0,0.0,0.0,0.0,0.0,0.0,0.0,0.0,0.0,0.0,0.0,0.0,0.0,0.0,0.0,0.0,0.0,0.0,0.0,0.0,0.0,0.0,0.0,0.0,0.0,0.0,0.0,0.0,0.0,0.0,0.0,0.0,0.0,0.0,0.0,0.0,0.0,0.0,0.0,0.0,0.0,0.0,0.0,0.0,0.0,0.0,0.0,0.0,0.0,0.0,0.0,0.0,0.0,0.0,0.0,0.0,0.0,0.0,0.0,0.0,0.0,0.0,0.0,0.0,0.0,0.0,0.0,0.0,0.0,0.0,0.0,0.0,0.0,0.0,0.0,0.0,0.0,0.0,0.0,0.0,0.0,0.0,0.0,0.0,0.0,0.0,0.0,0.0,0.0,0.0,0.0,0.0,0.0,0.0,0.0,0.0,0.0,0.0,0.0,0.0,0.0,0.0,0.0,0.0,0.0,0.0,0.0,0.0,0.0,0.0,0.0,0.0,0.0,0.0,0.0,0.0,0.0,0.0,0.0,0.0,0.0,0.0,0.0,0.0,0.0,0.0,0.0,0.0,0.0,0.0,0.0,0.0,0.0,0.0,0.0,0.0,0.0,0.0,0.0,0.0,0.0,0.0,0.0,0.0,0.0,0.0,0.0,0.0,0.0,0.0,0.0,0.0,0.0,0.0,0.0,0.0,0.0,0.0,0.0,0.0,0.0,0.0,0.0,0.0,0.0,0.0,0.0,0.0,0.0,0.0,0.0,0.0,0.0,0.0,0.0,0.0,0.0,0.0,0.0,0.0,0.0,0.0,0.0,0.0,0.0,0.0,0.0,0.0,0.0,0.0,0.0,0.0,0.0,0.0,0.0,0.0,0.0,0.0,0.0,0.0,0.0,0.0,0.0,0.0,0.0,0.0,0.0,0.0,0.0,0.0,0.0,0.0,0.0,0.0,0.0,0.0,0.0,0.0,0.0,0.0,0.0,0.0,0.0,0.0,0.0,0.0,0.0,0.0,0.0,0.0,0.0,0.0,0.0,0.0,0.0,0.0,0.0,0.0,0.0,0.0,0.0,0.0,0.0,0.0,0.0,0.0,0.0,0.0,0.0,0.0,0.0,0.0,0.0,0.0,0.0,0.0,0.0,0.0,0.0,0.0,0.0,0.0,0.0,0.0,0.0,0.0,0.0,0.0,0.0,0.0,0.0,0.0,0.0,0.0,0.0,0.0,0.0,0.0,0.0,0.0,0.0,0.0,0.0,0.0,0.0,0.0,0.0,0.0,0.0,0.0,0.0,0.0,0.0,0.0,0.0,0.0,0.0,0.0,0.0,0.0,0.0,0.0,0.0,0.0,0.0,0.0,0.0,0.0,0.0,0.0,0.0,0.0,0.0,0.0,0.0,0.0,0.0,0.0,0.0,0.0,0.0,0.0,0.0,0.0,0.0,0.0,0.0,0.0,0.0,0.0,0.0,0.0,0.0,0.0,0.0,0.0,0.0,0.0,0.0,0.0,0.0,0.0,0.0,0.0,0.0,0.0,0.0,0.0,0.0,0.0,0.0,0.0,0.0,0.0,0.0,0.0,0.0,0.0,0.0,0.0,0.0,0.0,0.0,0.0,0.0,0.0,0.0,0.0,0.0,0.0,0.0,0.0,0.0,0.0,0.0,0.0,0.0,0.0,0.0,0.0,0.0,0.0,0.0,0.0,0.0,0.0,0.0,0.0,0.0,0.0,0.0,0.0,0.0,0.0,0.0,0.0,0.0,0.0,0.0,0.0,0.0,0.0,0.0,0.0,0.0,0.0,0.0,0.0,0.0,0.0,0.0,0.0,0.0,0.0,0.0,0.0,0.0,0.0,0.0,0.0,0.0,0.0,0.0,0.0,0.0,0.0,0.0,0.0,0.0,0.0,0.0,0.0,0.0,0.0,0.0,0.0,0.0,0.0,0.0,0.0,0.0,0.0,0.0,0.0,0.0,0.0,0.0,0.0,0.0,0.0,0.0,0.0,0.0,0.0,0.0,0.0,0.0,0.0,0.0,0.0,0.0,0.0,0.0,0.0,0.0,0.0,0.0,0.0,0.0,0.0,0.0,0.0,0.0,0.0,0.0,0.0,0.0,0.0,0.0,0.0,0.0,0.0,0.0,0.0,0.0,0.0,0.0,0.0,0.0,0.0,0.0,0.0,0.0,0.0,0.0,0.0,0.0,0.0,0.0,0.0,0.0,0.0,0.0,0.0,0.0,0.0,0.0,0.0,0.0,0.0,0.0,0.0,0.0,0.0,0.0,0.0,0.0,0.0,0.0,0.0,0.0,0.0,0.0,0.0,0.0,0.0,0.0,0.0,0.0,0.0,0.0,0.0,0.0,0.0,0.0,0.0,0.0,0.0,0.0,0.0,0.0,0.0,0.0,0.0,0.0,0.0,0.0,0.0,0.0,0.0,0.0,0.0,0.0,0.0,0.0,0.0,0.0,0.0,0.0,0.0,0.0,0.0,0.0,0.0,0.0,0.0,0.0,0.0,0.0,0.0,0.0,0.0,0.0,0.0,0.0,0.0,0.0,0.0,0.0,0.0,0.0,0.0,0.0,0.0,0.0,0.0,0.0,0.0,0.0,0.0,0.0,0.0,0.0,0.0,0.0,0.0,0.0,0.0,0.0,0.0,0.0,0.0,0.0,0.0,0.0,0.0,0.0,0.0,0.0,0.0,0.0,0.0,0.0,0.0,0.0,0.0,0.0,0.0,0.0,0.0,0.0,0.0,0.0,0.0,0.0,0.0,0.0,2.1886,0.0,0.0,0.0,0.0,0.0,0.0,0.0,0.0,0.0,0.0,0.0,0.0,0.0,0.0,0.0,0.0,0.0,0.0,0.0,0.0,0.0,0.0,0.0,0.0,0.0,0.0,0.0,0.0,0.0,0.0,0.0,0.0,0.0,0.0,0.0,0.0,0.0,0.0,0.0,0.0,0.0,0.0,0.0,0.0,0.0,0.0,0.0,0.0,0.0,0.0,0.0,0.0,0.0,0.0,0.0,0.0,0.0,0.0,0.0,0.0,0.0,0.0,0.0,0.0,0.0,0.0,0.0,0.0,0.0,0.0,0.0,0.0,0.0,0.0,0.0,0.0,0.0,0.0,0.0,0.0,0.0,0.0,0.0,0.0,0.0,0.0,0.0,0.0,0.0,0.0,0.0,0.0,0.0,0.0,0.0,0.0,0.0,0.0,0.0,0.0,0.0,0.0,0.0,0.0,0.0,0.0,0.0,0.0,0.0,0.0,2.235,2.2297,2.2196,2.2092,2.2036,0.0,0.0,0.0,0.0,0.0,0.0,0.0,0.0,0.0,0.0,0.0,0.0,0.0,0.0,0.0,0.0,0.0,0.0,0.0,0.0,0.0,0.0,0.0,0.0,0.0,0.0,0.0,0.0,0.0,0.0,0.0,0.0,0.0,0.0,0.0,0.0,0.0,0.0,0.0,0.0,0.0,0.0,0.0,0.0,0.0,0.0,0.0,0.0,0.0,0.0,0.0,0.0,0.0,0.0,0.0,0.0,0.0,0.0,0.0,0.0,0.0,0.0,0.0,0.0,0.0,0.0,0.0,0.0,0.0,0.0,0.0,0.0,0.0,0.0,0.0,0.0,0.0,0.0,0.0,0.0,0.0,0.0,0.0,0.0,0.0,0.0,0.0,0.0,0.0,0.0,0.0,0.0,0.0,0.0,0.0,0.0,0.0,0.0,0.0,0.0,0.0,0.0,0.0,0.0,0.0,0.0,0.0,0.0,0.0,0.0,0.0,0.0,2.2465,2.2256,2.2038,0.0,0.0,0.0,0.0,0.0,0.0,0.0,0.0,0.0,0.0,0.0,0.0,0.0,0.0,0.0,0.0,0.0,0.0,0.0,0.0,0.0,0.0,0.0,0.0,0.0,0.0,0.0,0.0,0.0,0.0,0.0,0.0,0.0,0.0,0.0,0.0,0.0,0.0,0.0,0.0,0.0,0.0,0.0,0.0,0.0,0.0,0.0,0.0,0.0,0.0,0.0,0.0,0.0,0.0,0.0,0.0,0.0,0.0,0.0,0.0,0.0,0.0,0.0,0.0,0.0,0.0,0.0,0.0,0.0,0.0,0.0,0.0,0.0,0.0,0.0,0.0,0.0,0.0,0.0,0.0,0.0,0.0,0.0,0.0,0.0,0.0,0.0,0.0,0.0,0.0,0.0,0.0,0.0,0.0,0.0,0.0,0.0,0.0,0.0,0.0,0.0,0.0,0.0,0.0,0.0,0.0,0.0,0.0,0.0,0.0,2.4043,2.3934,2.3839,0.0,2.2524,0.0,0.0,0.0,0.0,0.0,0.0,0.0,0.0,0.0,0.0,0.0,0.0,0.0,0.0,0.0,0.0,0.0,0.0,0.0,0.0,0.0,0.0,0.0,0.0,0.0,0.0,0.0,0.0,0.0,0.0,0.0,0.0,0.0,0.0,0.0,0.0,0.0,0.0,0.0,0.0,0.0,0.0,0.0,0.0,0.0,0.0,0.0,0.0,0.0,0.0,0.0,0.0,0.0,0.0,0.0,0.0,0.0,0.0,0.0,0.0,0.0,0.0,0.0,0.0,0.0,0.0,0.0,0.0,0.0,0.0,0.0,0.0,0.0,0.0,0.0,0.0,0.0,0.0,0.0,0.0,0.0,0.0,0.0,0.0,0.0,0.0,0.0,0.0,0.0,0.0,0.0,0.0,0.0,0.0,0.0,0.0,0.0,0.0,0.0,0.0,0.0,0.0,0.0,0.0,0.0,0.0,0.0,0.0,0.0,0.0,2.3943,2.3819,2.3667,2.3365,0.0,0.0,0.0,0.0,0.0,0.0,0.0,0.0,0.0,0.0,0.0,0.0,0.0,0.0,0.0,0.0,0.0,0.0,0.0,0.0,0.0,0.0,0.0,0.0,0.0,0.0,0.0,0.0,0.0,0.0,0.0,0.0,0.0,0.0,0.0,0.0,0.0,0.0,0.0,0.0,0.0,0.0,0.0,0.0,0.0,0.0,0.0,0.0,0.0,0.0,0.0,0.0,0.0,0.0,0.0,0.0,0.0,0.0,0.0,0.0,0.0,0.0,0.0,0.0,0.0,0.0,0.0,0.0,0.0,0.0,0.0,0.0,0.0,0.0,0.0,0.0,0.0,0.0,0.0,0.0,0.0,0.0,0.0,0.0,0.0,0.0,0.0,0.0,0.0,0.0,0.0,0.0,0.0,0.0,0.0,0.0,0.0,0.0,0.0,0.0,0.0,0.0,0.0,0.0,0.0,0.0,0.0,0.0,0.0,0.0,2.4302,2.4157,2.3975,2.3781,2.364,2.3528,0.0,0.0,0.0,0.0,0.0,0.0,0.0,0.0,0.0,0.0,0.0,0.0,0.0,0.0,0.0,0.0,0.0,0.0,0.0,0.0,0.0,0.0,0.0,0.0,0.0,0.0,0.0,0.0,0.0,0.0,0.0,0.0,0.0,0.0,0.0,0.0,0.0,0.0,0.0,0.0,0.0,0.0,0.0,0.0,0.0,0.0,0.0,0.0,0.0,0.0,0.0,0.0,0.0,0.0,0.0,0.0,0.0,0.0,0.0,0.0,0.0,0.0,0.0,0.0,0.0,0.0,0.0,0.0,0.0,0.0,0.0,0.0,0.0,0.0,0.0,0.0,0.0,0.0,0.0,0.0,0.0,0.0,0.0,0.0,0.0,0.0,0.0,0.0,0.0,0.0,0.0,0.0,0.0,0.0,0.0,0.0,0.0,0.0,0.0,0.0,0.0,0.0,0.0,0.0,0.0,0.0,0.0,0.0,2.5486,2.5359,2.5152,2.4833,2.4682,2.4594,0.0,0.0,0.0,0.0,0.0,0.0,0.0,0.0,0.0,0.0,0.0,0.0,0.0,0.0,0.0,0.0,0.0,0.0,0.0,0.0,0.0,0.0,0.0,0.0,0.0,0.0,0.0,0.0,0.0,0.0,0.0,0.0,0.0,0.0,0.0,0.0,0.0,0.0,0.0,0.0,0.0,0.0,0.0,0.0,0.0,0.0,0.0,0.0,0.0,0.0,0.0,0.0,0.0,0.0,0.0,0.0,0.0,0.0,0.0,0.0,0.0,0.0,0.0,0.0,0.0,0.0,0.0,0.0,0.0,0.0,0.0,0.0,0.0,0.0,0.0,0.0,0.0,0.0,0.0,0.0,0.0,0.0,0.0,0.0,0.0,0.0,0.0,0.0,0.0,0.0,0.0,0.0,0.0,0.0,0.0,0.0,0.0,0.0,0.0,0.0,0.0,0.0,0.0,0.0,0.0,0.0,0.0,0.0,0.0,2.5066,2.4739,2.4516,2.4397,2.4191,2.403,0.0,0.0,0.0,0.0,0.0,0.0,0.0,0.0,0.0,0.0,0.0,0.0,0.0,0.0,0.0,0.0,0.0,0.0,0.0,0.0,0.0,0.0,0.0,0.0,0.0,0.0,0.0,0.0,0.0,0.0,0.0,0.0,0.0,0.0,0.0,0.0,0.0,0.0,0.0,0.0,0.0,0.0,0.0,0.0,0.0,0.0,0.0,0.0,0.0,0.0,0.0,0.0,0.0,0.0,0.0,0.0,0.0,0.0,0.0,0.0,0.0,0.0,0.0,0.0,0.0,0.0,0.0,0.0,0.0,0.0,0.0,0.0,0.0,0.0,0.0,0.0,0.0,0.0,0.0,0.0,0.0,0.0,0.0,0.0,0.0,0.0,0.0,0.0,0.0,0.0,0.0,0.0,0.0,0.0,0.0,0.0,0.0,0.0,0.0,0.0,0.0,0.0,0.0,0.0,0.0,0.0,0.0,0.0,0.0,2.5118,0.0,2.446,2.446,2.4218,2.4113,0.0,0.0,0.0,0.0,0.0,0.0,0.0,0.0,0.0,0.0,0.0,0.0,0.0,0.0,0.0,0.0,0.0,0.0,0.0,0.0,0.0,0.0,0.0,0.0,0.0,0.0,0.0,0.0,0.0,0.0,0.0,0.0,0.0,0.0,0.0,0.0,0.0,0.0,0.0,0.0,0.0,0.0,0.0,0.0,0.0,0.0,0.0,0.0,0.0,0.0,0.0,0.0,0.0,0.0,0.0,0.0,0.0,0.0,0.0,0.0,0.0,0.0,0.0,0.0,0.0,0.0,0.0,0.0,0.0,0.0,0.0,0.0,0.0,0.0,0.0,0.0,0.0,0.0,0.0,0.0,0.0,0.0,0.0,0.0,0.0,0.0,0.0,0.0,0.0,0.0,0.0,0.0,0.0,0.0,0.0,0.0,0.0,0.0,0.0,0.0,0.0,0.0,0.0,0.0,0.0,0.0,0.0,0.0,2.5631,2.573,2.5406,2.5144,2.5176,2.495,2.4887,0.0,0.0,0.0,0.0,0.0,0.0,0.0,0.0,0.0,0.0,0.0,0.0,0.0,0.0,0.0,0.0,0.0,0.0,0.0,0.0,0.0,0.0,0.0,0.0,0.0,0.0,0.0,0.0,0.0,0.0,0.0,0.0,0.0,0.0,0.0,0.0,0.0,0.0,0.0,0.0,0.0,0.0,0.0,0.0,0.0,0.0,0.0,0.0,0.0,0.0,0.0,0.0,0.0,0.0,0.0,0.0,0.0,0.0,0.0,0.0,0.0,0.0,0.0,0.0,0.0,0.0,0.0,0.0,0.0,0.0,0.0,0.0,0.0,0.0,0.0,0.0,0.0,0.0,0.0,0.0,0.0,0.0,0.0,0.0,0.0,0.0,0.0,0.0,0.0,0.0,0.0,0.0,0.0,0.0,0.0,0.0,0.0,0.0,0.0,0.0,0.0,0.0,0.0,0.0,0.0,0.0,0.0,0.0,0.0,2.546,2.516,2.4921,2.4879,2.4691,2.4435,0.0,0.0,0.0,0.0,0.0,0.0,0.0,0.0,0.0,0.0,0.0,0.0,0.0,0.0,0.0,0.0,0.0,0.0,0.0,0.0,0.0,0.0,0.0,0.0,0.0,0.0,0.0,0.0,0.0,0.0,0.0,0.0,0.0,0.0,0.0,0.0,0.0,0.0,0.0,0.0,0.0,0.0,0.0,0.0,0.0,0.0,0.0,0.0,0.0,0.0,0.0,0.0,0.0,0.0,0.0,0.0,0.0,0.0,0.0,0.0,0.0,0.0,0.0,0.0,0.0,0.0,0.0,0.0,0.0,0.0,0.0,0.0,0.0,0.0,0.0,0.0,0.0,0.0,0.0,0.0,0.0,0.0,0.0,0.0,0.0,0.0,0.0,0.0,0.0,0.0,0.0,0.0,0.0,0.0,0.0,0.0,0.0,0.0,0.0,0.0,0.0,0.0,0.0,0.0,0.0,0.0,0.0,0.0,0.0,2.479,2.4646,2.4511,2.4464,2.4261,2.4025,2.3739,0.0,0.0,0.0,0.0,0.0,0.0,0.0,0.0,0.0,0.0,0.0,0.0,0.0,0.0,0.0,0.0,0.0,0.0,0.0,0.0,0.0,0.0,0.0,0.0,0.0,0.0,0.0,0.0,0.0,0.0,0.0,0.0,0.0,0.0,0.0,0.0,0.0,0.0,0.0,0.0,0.0,0.0,0.0,0.0,0.0,0.0,0.0,0.0,0.0,0.0,0.0,0.0,0.0,0.0,0.0,0.0,0.0,0.0,0.0,0.0,0.0,0.0,0.0,0.0,0.0,0.0,0.0,0.0,0.0,0.0,0.0,0.0,0.0,0.0,0.0,0.0,0.0,0.0,0.0,0.0,0.0,0.0,0.0,0.0,0.0,0.0,0.0,0.0,0.0,0.0,0.0,0.0,0.0,0.0,0.0,0.0,0.0,0.0,0.0,0.0,0.0,0.0,0.0,0.0,0.0,0.0,0.0,0.0,2.3946,2.3895,2.3886,2.3909,2.3705,2.3654,0.0,0.0,0.0,0.0,0.0,0.0,0.0,0.0,0.0,0.0,0.0,0.0,0.0,0.0,0.0,0.0,0.0,0.0,0.0,0.0,0.0,0.0,0.0,0.0,0.0,0.0,0.0,0.0,0.0,0.0,0.0,0.0,0.0,0.0,0.0,0.0,0.0,0.0,0.0,0.0,0.0,0.0,0.0,0.0,0.0,0.0,0.0,0.0,0.0,0.0,0.0,0.0,0.0,0.0,0.0,0.0,0.0,0.0,0.0,0.0,0.0,0.0,0.0,0.0,0.0,0.0,0.0,0.0,0.0,0.0,0.0,0.0,0.0,0.0,0.0,0.0,0.0,0.0,0.0,0.0,0.0,0.0,0.0,0.0,0.0,0.0,0.0,0.0,0.0,0.0,0.0,0.0,0.0,0.0,0.0,0.0,0.0,0.0,0.0,0.0,0.0,0.0,0.0,0.0,0.0,0.0,0.0,0.0,0.0,2.3321,2.3005,2.2955,2.3171,2.3199,2.2959,0.0,0.0,0.0,0.0,0.0,0.0,0.0,0.0,0.0,0.0,0.0,0.0,0.0,0.0,0.0,0.0,0.0,0.0,0.0,0.0,0.0,0.0,0.0,0.0,0.0,0.0,0.0,0.0,0.0,0.0,0.0,0.0,0.0,0.0,0.0,0.0,0.0,0.0,0.0,0.0,0.0,0.0,0.0,0.0,0.0,0.0,0.0,0.0,0.0,0.0,0.0,0.0,0.0,0.0,0.0,0.0,0.0,0.0,0.0,0.0,0.0,0.0,0.0,0.0,0.0,0.0,0.0,0.0,0.0,0.0,0.0,0.0,0.0,0.0,0.0,0.0,0.0,0.0,0.0,0.0,0.0,0.0,0.0,0.0,0.0,0.0,0.0,0.0,0.0,0.0,0.0,0.0,0.0,0.0,0.0,0.0,0.0,0.0,0.0,0.0,0.0,0.0,0.0,0.0,0.0,0.0,0.0,0.0,2.3379,2.3107,2.2548,2.2301,2.243,2.2538,2.2447,0.0,0.0,0.0,0.0,0.0,0.0,0.0,0.0,0.0,0.0,0.0,0.0,0.0,0.0,0.0,0.0,0.0,0.0,0.0,0.0,0.0,0.0,0.0,0.0,0.0,0.0,0.0,0.0,0.0,0.0,0.0,0.0,0.0,0.0,0.0,0.0,0.0,0.0,0.0,0.0,0.0,0.0,0.0,0.0,0.0,0.0,0.0,0.0,0.0,0.0,0.0,0.0,0.0,0.0,0.0,0.0,0.0,0.0,0.0,0.0,0.0,0.0,0.0,0.0,0.0,0.0,0.0,0.0,0.0,0.0,0.0,0.0,0.0,0.0,0.0,0.0,0.0,0.0,0.0,0.0,0.0,0.0,0.0,0.0,0.0,0.0,0.0,0.0,0.0,0.0,0.0,0.0,0.0,0.0,0.0,0.0,0.0,0.0,0.0,0.0,0.0,0.0,0.0,0.0,0.0,0.0,0.0,0.0,2.2758,2.2878,2.2218,2.1735,2.1574,2.1809,2.2032,0.0,0.0,0.0,0.0,0.0,0.0,0.0,0.0,0.0,0.0,0.0,0.0,0.0,0.0,0.0,0.0,0.0,0.0,0.0,0.0,0.0,0.0,0.0,0.0,0.0,0.0,0.0,0.0,0.0,0.0,0.0,0.0,0.0,0.0,0.0,0.0,0.0,0.0,0.0,0.0,0.0,0.0,0.0,0.0,0.0,0.0,0.0,0.0,0.0,0.0,0.0,0.0,0.0,0.0,0.0,0.0,0.0,0.0,0.0,0.0,0.0,0.0,0.0,0.0,0.0,0.0,0.0,0.0,0.0,0.0,0.0,0.0,0.0,0.0,0.0,0.0,0.0,0.0,0.0,0.0,0.0,0.0,0.0,0.0,0.0,0.0,0.0,0.0,0.0,0.0,0.0,0.0,0.0,0.0,0.0,0.0,0.0,0.0,0.0,0.0,0.0,0.0,0.0,0.0,0.0,0.0,0.0,0.0,2.1957,2.1622,2.1107,2.0857,2.0694,2.1526,2.1958,0.0,0.0,0.0,0.0,0.0,0.0,0.0,0.0,0.0,0.0,0.0,0.0,0.0,0.0,0.0,0.0,0.0,0.0,0.0,0.0,0.0,0.0,0.0,0.0,0.0,0.0,0.0,0.0,0.0,0.0,0.0,0.0,0.0,0.0,0.0,0.0,0.0,0.0,0.0,0.0,0.0,0.0,0.0,0.0,0.0,0.0,0.0,0.0,2.8992,0.0,0.0,0.0,0.0,0.0,0.0,0.0,0.0,0.0,0.0,0.0,0.0,0.0,0.0,0.0,0.0,0.0,0.0,0.0,0.0,0.0,0.0,0.0,0.0,0.0,0.0,0.0,0.0,0.0,0.0,0.0,0.0,0.0,0.0,0.0,0.0,0.0,0.0,0.0,0.0,0.0,0.0,0.0,0.0,0.0,0.0,0.0,0.0,0.0,0.0,0.0,0.0,0.0,0.0,0.0,0.0,0.0,0.0,0.0,2.1589,2.1324,2.0892,2.0555,2.0555,2.1052,2.1352,0.0,0.0,0.0,0.0,0.0,0.0,0.0,0.0,0.0,0.0,0.0,0.0,0.0,0.0,0.0,0.0,0.0,0.0,0.0,0.0,0.0,0.0,0.0,0.0,0.0,0.0,0.0,0.0,0.0,0.0,0.0,0.0,0.0,0.0,0.0,0.0,0.0,0.0,0.0,0.0,0.0,0.0,0.0,0.0,0.0,0.0,0.0,0.0,0.0,0.0,0.0,0.0,0.0,0.0,0.0,0.0,0.0,0.0,0.0,0.0,0.0,0.0,0.0,0.0,0.0,0.0,0.0,0.0,0.0,0.0,0.0,0.0,0.0,0.0,0.0,0.0,0.0,0.0,0.0,0.0,0.0,0.0,0.0,0.0,0.0,0.0,0.0,0.0,0.0,0.0,0.0,0.0,0.0,0.0,0.0,0.0,0.0,0.0,0.0,0.0,0.0,0.0,0.0,0.0,0.0,0.0,0.0,2.1944,2.1439,2.1469,2.0987,2.0693,2.0693,2.0683,2.0765,2.0938,0.0,0.0,0.0,0.0,0.0,0.0,0.0,0.0,0.0,0.0,0.0,0.0,0.0,0.0,0.0,0.0,0.0,0.0,0.0,0.0,0.0,0.0,0.0,0.0,0.0,0.0,0.0,0.0,0.0,0.0,0.0,0.0,0.0,0.0,0.0,0.0,0.0,0.0,2.7637,2.7944,0.0,0.0,0.0,0.0,0.0,0.0,0.0,0.0,3.2714,0.0,0.0,0.0,0.0,0.0,0.0,0.0,0.0,0.0,0.0,0.0,0.0,0.0,0.0,0.0,0.0,0.0,0.0,0.0,0.0,0.0,0.0,0.0,0.0,0.0,0.0,0.0,0.0,0.0,0.0,0.0,0.0,0.0,0.0,0.0,0.0,0.0,0.0,0.0,0.0,0.0,0.0,0.0,0.0,0.0,0.0,0.0,0.0,0.0,0.0,0.0,0.0,0.0,0.0,0.0,0.0,2.2992,2.2164,2.162,2.1516,2.1269,2.1094,2.1094,2.1094,2.1101,2.1155,0.0,0.0,0.0,0.0,0.0,0.0,0.0,0.0,0.0,0.0,0.0,0.0,0.0,0.0,0.0,0.0,0.0,0.0,0.0,0.0,0.0,0.0,0.0,0.0,0.0,0.0,0.0,0.0,0.0,0.0,0.0,0.0,0.0,0.0,0.0,0.0,0.0,0.0,0.0,2.9513,3.0375,0.0,0.0,0.0,0.0,0.0,0.0,0.0,0.0,3.2733,0.0,0.0,0.0,0.0,0.0,0.0,0.0,0.0,0.0,0.0,0.0,0.0,0.0,0.0,0.0,0.0,0.0,0.0,0.0,0.0,0.0,0.0,0.0,0.0,0.0,0.0,0.0,0.0,0.0,0.0,0.0,0.0,0.0,0.0,0.0,0.0,0.0,0.0,0.0,0.0,0.0,0.0,0.0,0.0,0.0,0.0,0.0,0.0,0.0,0.0,0.0,0.0,0.0,0.0,0.0,2.286,2.211,2.1487,2.1172,2.095,2.0866,2.0876,2.0876,2.094,0.0,0.0,0.0,0.0,0.0,0.0,0.0,0.0,0.0,0.0,0.0,0.0,0.0,0.0,0.0,0.0,0.0,0.0,0.0,0.0,0.0,0.0,0.0,0.0,0.0,0.0,0.0,0.0,0.0,0.0,0.0,0.0,0.0,0.0,0.0,0.0,0.0,0.0,0.0,0.0,3.1344,3.211,3.2556,0.0,0.0,0.0,0.0,0.0,0.0,3.3596,3.3636,0.0,0.0,0.0,0.0,0.0,0.0,0.0,0.0,0.0,0.0,0.0,0.0,0.0,0.0,0.0,0.0,0.0,0.0,0.0,0.0,0.0,0.0,0.0,0.0,0.0,0.0,0.0,0.0,0.0,0.0,0.0,0.0,0.0,0.0,0.0,0.0,0.0,0.0,0.0,0.0,0.0,0.0,0.0,0.0,0.0,0.0,0.0,0.0,0.0,0.0,0.0,0.0,0.0,0.0,0.0,2.2798,2.2002,2.1362,2.0996,2.0845,2.0759,2.0759,2.0769,2.0977,0.0,0.0,0.0,0.0,0.0,0.0,0.0,0.0,0.0,0.0,0.0,0.0,0.0,0.0,0.0,0.0,0.0,0.0,0.0,0.0,0.0,0.0,0.0,0.0,0.0,0.0,0.0,0.0,0.0,0.0,0.0,0.0,0.0,0.0,0.0,0.0,0.0,0.0,0.0,0.0,0.0,3.3356,3.3495,3.3451,0.0,0.0,0.0,0.0,3.4239,3.4508,0.0,0.0,0.0,0.0,0.0,0.0,0.0,0.0,0.0,0.0,0.0,0.0,0.0,0.0,0.0,0.0,0.0,0.0,0.0,0.0,0.0,0.0,0.0,0.0,0.0,0.0,0.0,0.0,0.0,0.0,0.0,0.0,0.0,0.0,0.0,0.0,0.0,0.0,0.0,0.0,0.0,0.0,0.0,0.0,0.0,0.0,0.0,0.0,0.0,0.0,0.0,0.0,0.0,0.0,0.0,0.0,2.2824,2.2101,2.168,2.1575,2.1594,2.1603,2.1594,2.178,2.1867,0.0,0.0,0.0,0.0,0.0,0.0,0.0,0.0,0.0,0.0,0.0,0.0,0.0,0.0,0.0,0.0,0.0,0.0,0.0,0.0,0.0,0.0,0.0,0.0,0.0,0.0,0.0,0.0,0.0,0.0,0.0,0.0,0.0,0.0,0.0,0.0,0.0,0.0,0.0,0.0,0.0,3.3516,3.4189,3.4156,3.4494,0.0,0.0,3.5569,3.5932,3.556,0.0,0.0,0.0,0.0,0.0,0.0,0.0,0.0,0.0,0.0,0.0,0.0,0.0,0.0,0.0,0.0,0.0,0.0,0.0,0.0,0.0,0.0,0.0,0.0,0.0,0.0,0.0,0.0,0.0,0.0,0.0,0.0,0.0,0.0,0.0,0.0,0.0,0.0,0.0,0.0,0.0,0.0,0.0,0.0,0.0,0.0,0.0,0.0,0.0,0.0,0.0,0.0,0.0,0.0,0.0,2.3441,2.2938,2.2658,2.2335,2.2071,2.2309,2.2419,2.2594,2.2685,2.2853,0.0,0.0,0.0,0.0,0.0,0.0,0.0,0.0,0.0,0.0,0.0,0.0,0.0,0.0,0.0,0.0,0.0,0.0,0.0,0.0,0.0,0.0,0.0,0.0,0.0,0.0,0.0,0.0,0.0,0.0,0.0,0.0,0.0,0.0,0.0,0.0,0.0,0.0,0.0,0.0,0.0,0.0,3.5496,3.5714,0.0,0.0,0.0,3.5505,3.5281,0.0,0.0,0.0,0.0,0.0,0.0,0.0,0.0,0.0,0.0,0.0,0.0,0.0,0.0,0.0,0.0,0.0,0.0,0.0,0.0,0.0,0.0,0.0,0.0,0.0,0.0,0.0,0.0,0.0,0.0,0.0,0.0,0.0,0.0,0.0,0.0,0.0,0.0,0.0,0.0,0.0,0.0,0.0,0.0,0.0,0.0,0.0,0.0,0.0,0.0,0.0,0.0,0.0,0.0,0.0,0.0,0.0,2.3389,2.3271,2.3025,2.2668,2.2973,2.3214,2.3392,2.3579,0.0,0.0,0.0,0.0,0.0,0.0,0.0,0.0,0.0,0.0,0.0,0.0,0.0,0.0,0.0,0.0,0.0,0.0,0.0,0.0,0.0,0.0,0.0,0.0,0.0,0.0,0.0,3.3757,0.0,0.0,0.0,0.0,0.0,0.0,0.0,0.0,0.0,0.0,0.0,0.0,0.0,0.0,3.6721,3.6424,3.6596,3.6603,0.0,0.0,3.5101,3.462,3.3984,3.3326,0.0,0.0,0.0,0.0,0.0,0.0,0.0,0.0,0.0,0.0,0.0,0.0,0.0,0.0,0.0,0.0,0.0,0.0,0.0,0.0,0.0,0.0,0.0,0.0,0.0,0.0,0.0,0.0,0.0,0.0,0.0,0.0,0.0,0.0,0.0,0.0,0.0,0.0,0.0,0.0,0.0,0.0,0.0,0.0,0.0,0.0,0.0,0.0,0.0,0.0,0.0,0.0,0.0,0.0,0.0,2.4019,2.3784,2.3634,2.3634,2.3663,2.3682,2.3672,2.4146,2.4506,0.0,0.0,0.0,0.0,0.0,0.0,0.0,0.0,0.0,0.0,0.0,0.0,0.0,0.0,0.0,0.0,0.0,0.0,0.0,0.0,0.0,0.0,0.0,0.0,0.0,0.0,0.0,0.0,0.0,0.0,0.0,0.0,0.0,0.0,0.0,0.0,0.0,0.0,0.0,0.0,0.0,3.6969,3.6483,3.5975,3.5723,0.0,0.0,3.4627,3.4597,3.3974,3.3259,3.2545,0.0,0.0,0.0,0.0,0.0,0.0,0.0,0.0,0.0,0.0,0.0,0.0,0.0,0.0,0.0,0.0,0.0,0.0,0.0,0.0,0.0,0.0,0.0,0.0,0.0,0.0,0.0,0.0,0.0,0.0,0.0,0.0,0.0,0.0,0.0,0.0,0.0,0.0,0.0,0.0,0.0,0.0,0.0,0.0,0.0,0.0,0.0,0.0,0.0,0.0,0.0,0.0,0.0,2.516,2.4987,2.4878,2.473,2.4542,2.4784,2.5014,2.5215,2.55,2.5759,0.0,0.0,0.0,0.0,0.0,0.0,0.0,0.0,0.0,0.0,0.0,0.0,0.0,0.0,0.0,0.0,0.0,0.0,0.0,0.0,0.0,0.0,0.0,0.0,0.0,0.0,0.0,0.0,3.7342,3.7285,3.7233,0.0,0.0,0.0,0.0,0.0,0.0,0.0,0.0,0.0,0.0,3.6934,3.6725,3.6615,0.0,0.0,3.5621,3.4783,3.4194,3.3352,3.2511,3.1696,3.0559,0.0,0.0,0.0,0.0,0.0,0.0,0.0,0.0,0.0,0.0,0.0,0.0,0.0,0.0,0.0,0.0,0.0,0.0,0.0,0.0,0.0,0.0,0.0,0.0,0.0,0.0,0.0,0.0,0.0,0.0,0.0,0.0,0.0,0.0,0.0,0.0,0.0,0.0,0.0,0.0,0.0,0.0,0.0,0.0,0.0,0.0,0.0,0.0,0.0,0.0,0.0,0.0,2.612,2.5991,2.5989,2.5919,2.5729,2.6018,2.6274,2.638,2.6764,2.7002,0.0,0.0,0.0,0.0,0.0,0.0,0.0,0.0,0.0,0.0,0.0,0.0,0.0,0.0,0.0,0.0,0.0,0.0,0.0,0.0,0.0,0.0,0.0,0.0,0.0,0.0,0.0,0.0,3.8174,3.8038,3.787,0.0,0.0,0.0,0.0,0.0,0.0,0.0,0.0,0.0,0.0,3.7184,3.6882,3.676,3.6469,3.5902,3.5055,3.4121,3.3078,3.2159,3.1218,3.0378,0.0,0.0,0.0,0.0,0.0,0.0,0.0,0.0,0.0,0.0,0.0,0.0,0.0,0.0,0.0,0.0,0.0,0.0,0.0,0.0,0.0,0.0,0.0,0.0,0.0,0.0,0.0,0.0,0.0,0.0,0.0,0.0,0.0,0.0,0.0,0.0,0.0,0.0,0.0,0.0,0.0,0.0,0.0,0.0,0.0,0.0,0.0,0.0,0.0,0.0,0.0,0.0,0.0,2.7355,2.6928,2.7076,2.721,2.7125,2.7136,2.7146,2.7241,2.7715,2.8092,2.8373,0.0,0.0,0.0,0.0,0.0,0.0,0.0,0.0,0.0,0.0,0.0,0.0,0.0,0.0,0.0,0.0,0.0,0.0,0.0,0.0,0.0,0.0,0.0,0.0,0.0,0.0,3.8106,3.7868,3.7698,0.0,0.0,0.0,0.0,0.0,0.0,0.0,0.0,0.0,0.0,3.8552,3.7781,3.682,3.6056,3.5269,3.4069,3.3244,3.2246,3.1146,3.0324,2.9455,0.0,0.0,0.0,0.0,0.0,0.0,0.0,0.0,0.0,0.0,0.0,0.0,0.0,0.0,0.0,0.0,0.0,0.0,0.0,0.0,0.0,0.0,0.0,0.0,0.0,0.0,0.0,2.2718,2.3016,0.0,0.0,0.0,0.0,0.0,0.0,0.0,0.0,0.0,0.0,0.0,3.5752,3.5954,0.0,0.0,0.0,0.0,0.0,0.0,0.0,0.0,0.0,0.0,0.0,0.0,2.836,2.831,2.8287,2.8336,2.8741,2.8763,2.8847,2.9026,2.9299,2.9613,3.0045,0.0,0.0,0.0,0.0,0.0,0.0,0.0,0.0,0.0,0.0,0.0,0.0,0.0,0.0,0.0,0.0,0.0,0.0,0.0,0.0,0.0,0.0,0.0,0.0,0.0,3.95,0.0,0.0,0.0,0.0,0.0,0.0,0.0,0.0,0.0,0.0,0.0,3.792,3.7609,3.6886,3.6417,3.6279,3.5415,3.4673,0.0,0.0,0.0,0.0,0.0,0.0,0.0,0.0,0.0,0.0,0.0,0.0,0.0,0.0,2.1374,2.0583,1.9978,1.9298,1.8604,0.0,0.0,0.0,0.0,0.0,0.0,0.0,0.0,0.0,0.0,0.0,0.0,0.0,0.0,0.0,0.0,2.442,0.0,0.0,0.0,0.0,0.0,0.0,0.0,0.0,3.6144,3.654,3.6515,3.6637,3.6197,0.0,3.4659,3.3682,0.0,0.0,0.0,0.0,0.0,0.0,0.0,0.0,2.9534,2.9474,2.9457,2.9702,3.0025,3.0203,3.0387,3.0661,3.0928,3.1225,3.1824,3.192,3.2322,0.0,0.0,0.0,0.0,0.0,0.0,0.0,0.0,0.0,0.0,0.0,0.0,0.0,0.0,0.0,0.0,0.0,0.0,0.0,0.0,0.0,0.0,0.0,4.0489,0.0,0.0,0.0,0.0,0.0,0.0,0.0,0.0,0.0,3.8676,3.8103,3.7403,3.6886,3.609,3.5538,3.5583,0.0,0.0,0.0,0.0,0.0,0.0,0.0,2.8534,2.7568,2.6598,2.5632,2.4346,2.3149,2.2028,2.1083,0.0,0.0,1.9808,1.9281,1.8749,1.8107,1.7742,1.7586,1.7523,1.705,1.6789,0.0,0.0,0.0,0.0,0.0,0.0,0.0,0.0,2.4261,2.4436,0.0,2.5091,0.0,0.0,0.0,0.0,0.0,0.0,0.0,0.0,3.6719,3.7167,3.7954,3.7612,3.6961,3.61,3.5816,3.5091,3.393,3.2489,0.0,0.0,0.0,0.0,0.0,0.0,3.0769,3.0352,3.0813,3.1078,3.1135,3.1596,3.2028,3.2288,3.2533,3.2956,3.3532,3.3505,3.3894,3.469,3.4794,0.0,0.0,0.0,0.0,0.0,0.0,0.0,0.0,0.0,0.0,0.0,0.0,0.0,0.0,0.0,0.0,0.0,0.0,0.0,0.0,4.1145,0.0,0.0,0.0,0.0,0.0,0.0,0.0,0.0,0.0,0.0,3.7788,3.7167,3.6748,3.6967,0.0,0.0,0.0,0.0,3.2791,3.1699,3.0692,2.9713,2.866,2.7712,2.6747,2.5553,0.0,0.0,2.1665,2.1097,2.0726,1.981,1.9398,1.914,1.9517,1.9259,1.8852,1.855,1.7874,1.7434,1.7341,1.6814,1.6304,2.196,0.0,0.0,0.0,0.0,2.3363,2.3566,2.3782,2.3967,2.4219,2.4467,2.495,0.0,0.0,0.0,0.0,0.0,0.0,3.5925,3.6785,3.7858,3.8554,3.8846,3.8451,3.8035,3.7553,3.6853,3.6026,3.5078,3.4685,3.3927,3.2636,0.0,0.0,0.0,0.0,3.1918,3.1841,3.2007,3.2447,3.3185,3.3516,3.3953,3.4514,3.4702,3.4853,3.4805,3.5402,3.5693,3.5843,3.6314,0.0,0.0,0.0,0.0,0.0,0.0,0.0,0.0,0.0,0.0,0.0,0.0,0.0,0.0,0.0,0.0,0.0,0.0,0.0,4.0436,4.0652,4.0655,0.0,0.0,0.0,0.0,0.0,0.0,0.0,0.0,0.0,3.6008,3.5914,3.5776,0.0,0.0,3.3764,3.3278,3.2212,3.1247,3.1009,0.0,0.0,0.0,2.7447,2.6566,2.5685,2.4289,2.2869,2.1635,2.1121,2.0603,1.9645,1.9341,1.9128,1.8552,1.8351,1.8072,1.7652,1.7452,1.7311,1.6906,1.6624,1.6466,2.062,2.1197,2.1894,2.2342,2.2572,2.2768,2.3024,2.3334,2.3581,2.3797,2.4151,2.4869,2.5663,2.6581,2.8367,0.0,0.0,0.0,3.6517,3.7273,3.8545,3.9386,3.9792,3.9401,3.8977,3.8569,3.7995,3.7281,3.6408,3.6389,3.5802,3.4701,0.0,0.0,3.3129,3.3244,3.3333,3.3328,3.3761,3.428,3.4922,3.5519,3.6084,3.6702,3.6819,3.6863,3.6918,3.7044,3.7188,3.7458,3.7696,3.8159,0.0,0.0,0.0,0.0,0.0,0.0,0.0,0.0,0.0,0.0,0.0,4.1262,0.0,0.0,0.0,0.0,4.1253,4.1199,4.0819,4.116,0.0,0.0,0.0,0.0,0.0,0.0,0.0,3.7637,3.6435,3.5435,3.4603,3.4403,3.421,3.3991,3.3185,3.2492,3.2044,0.0,3.0274,2.9873,2.8891,2.7809,2.7179,2.6302,2.528,2.4132,2.3093,2.1926,2.0745,2.0426,2.0033,1.9258,1.8965,1.8776,1.8,1.7903,1.7616,1.7222,1.7086,1.701,1.6579,1.6511,1.6445,1.9267,1.9371,2.0584,2.1396,2.1888,2.2044,2.2342,2.2785,2.2949,2.3246,2.3741,2.4737,2.569,2.6687,2.9674,0.0,3.3442,3.5256,3.6741,3.801,3.8957,3.9932,4.0867,4.0375,3.9921,3.9461,3.9303,3.8744,3.7983,3.7797,3.7504,3.7063,3.5655,3.4799,3.4269,3.4777,3.499,3.4796,3.5928,3.6509,3.6561,3.7521,3.8251,3.8662,3.8687,3.895,3.9536,3.8756,3.8582,3.9284,3.9076,3.9147,3.9692,0.0,0.0,0.0,0.0,0.0,0.0,0.0,0.0,0.0,0.0,0.0,0.0,0.0,0.0,0.0,4.2484,0.0,4.2006,4.2193,0.0,0.0,0.0,3.9859,3.9109,3.7886,3.6851,3.6072,0.0,0.0,3.3616,0.0,3.229,3.234,3.1858,3.1371,3.0951,3.0241,2.9437,2.8387,2.7379,2.6397,2.5737,2.4633,2.3402,2.1892,2.1122,2.0656,1.9674,1.9334,1.9074,1.8535,1.832,1.8173,1.7855,1.7696,1.7571,1.7055,1.6833,1.669,1.646,1.6292,1.6311,1.7797,1.7918,1.862,1.9594,2.0832,2.114,2.1479,2.1766,2.2016,2.2342,2.2737,2.3939,2.5764,2.8174,3.0294,3.1898,3.3128,3.5562,3.7108,3.7957,4.0156,4.1422,4.1838,4.1613,4.154,4.1579,4.1076,4.0567,3.9974,3.9831,3.9268,3.8473,3.804,3.7049,3.5615,3.617,3.6518,3.6708,3.7517,3.827,3.9054,3.9292,3.9812,4.0603,4.0773,4.0958,4.115,4.1204,4.1111,4.0734,4.0811,4.0861,4.0935,4.1276,0.0,0.0,0.0,0.0,0.0,0.0,0.0,0.0,0.0,4.3127,4.3079,0.0,4.3062,0.0,4.2582,4.2175,4.1808,4.1335,0.0,0.0,3.9726,3.9146,3.8063,3.7536,3.6892,3.6193,3.4861,3.3814,3.3313,3.2201,3.1038,3.0147,3.0616,3.0561,2.9526,2.8562,2.7773,2.7156,2.5996,2.5147,2.4906,2.4048,2.269,2.1437,2.1078,2.0746,1.9806,1.945,1.8992,1.8341,1.7992,1.778,1.7474,1.7422,1.7165,1.674,1.6822,1.696,1.6414,1.6298,1.6091,1.6102,1.629,1.6815,1.7654,1.8667,1.962,2.032,2.0733,2.0979,2.1321,2.1855,2.3663,2.5924,2.8392,2.9906,3.1273,3.2588,3.5177,3.6844,3.7827,4.0516,4.2039,4.2464,4.241,4.2647,4.2995,4.2391,4.1927,4.1525,4.1293,4.0847,4.0109,4.0061,3.9548,3.8643,3.8382,3.8524,3.906,3.9732,4.0379,4.1056,4.1294,4.1724,4.2423,4.2702,4.2921,4.3243,4.3243,4.2987,4.2435,4.2401,4.2201,4.1931,4.2253,4.2632,0.0,0.0,0.0,0.0,0.0,0.0,0.0,0.0,0.0,0.0,0.0,4.2962,0.0,4.2324,4.1953,4.1386,4.1029,4.0562,3.9691,3.9109,3.8443,3.7595,3.6735,3.6075,3.5482,3.4135,3.2998,3.2183,3.1269,3.0143,2.8856,2.9021,2.8951,2.8004,2.7321,2.6733,2.5973,2.4958,2.395,2.3333,2.2608,2.1788,2.0705,2.0335,1.9971,1.9139,1.8766,1.8428,1.8055,1.783,1.7542,1.7368,1.7296,1.7063,1.6652,1.6679,1.669,1.616,1.6039,1.6006,1.4325,1.453,1.5135,1.5608,1.6038,1.7598,1.8732,1.9475,1.9761,2.0321,2.1193,2.3484,2.5717,2.7765,2.8968,3.0282,3.1794,3.4388,3.6254,3.7512,4.0505,4.2222,4.2803,4.3041,4.3473,4.4108,4.3518,4.3151,4.2998,4.2665,4.2314,4.1804,4.2039,4.2228,4.2254,4.1294,4.1052,4.1571,4.2261,4.2702,4.2956,4.3322,4.3805,4.422,4.4553,4.4943,4.5374,4.4993,4.4627,4.4317,4.396,4.3443,4.2951,4.3235,4.3502,0.0,4.3831,0.0,0.0,0.0,0.0,0.0,0.0,0.0,0.0,4.3031,4.2537,4.1803,4.1963,4.1752,4.0976,4.0918,4.0554,3.961,3.8501,3.7762,3.7245,3.5867,3.4827,3.4404,3.3074,3.1766,3.0927,3.0213,2.925,2.7993,2.7428,2.7004,2.6495,2.6345,2.5933,2.4817,2.4106,2.2974,2.1591,2.1036,2.0727,1.9872,1.9407,1.8883,1.835,1.7972,1.765,1.7632,1.7463,1.7334,1.7214,1.7135,1.707,1.6535,1.6425,1.6265,1.5834,1.5804,1.5853,1.2466,1.2677,1.3195,1.3584,1.3908,1.458,1.5924,1.7743,1.8101,1.9376,2.1328,2.2497,2.4225,2.6353,2.7743,2.9086,3.043,3.3598,3.5634,3.6847,4.0726,4.2659,4.2955,4.3994,4.4995,4.5741,4.4844,4.4625,4.5078,4.4599,4.4001,4.3422,4.3838,4.4325,4.4882,0.0,0.0,0.0,4.4536,4.4822,4.5059,4.528,4.5642,4.6125,4.6212,0.0,4.7088,4.7057,4.6848,4.6498,4.5851,0.0,0.0,0.0,0.0,0.0,0.0,0.0,0.0,0.0,0.0,0.0,4.4949,4.4795,4.4639,4.3929,4.3164,4.2626,4.2011,4.1369,4.0825,3.9878,3.9266,3.8888,3.769,3.6798,3.6188,3.5059,3.4028,3.3446,3.2185,3.1175,3.0381,2.9329,2.8252,2.736,2.6301,2.5552,2.4959,2.5096,2.4769,2.388,2.2811,2.1789,2.0821,2.0388,2.0016,1.9429,1.8927,1.8628,1.8271,1.7803,1.7495,1.7581,1.7246,1.6851,1.6695,1.671,1.6591,1.6234,1.5977,1.5793,1.5952,1.5817,1.5581,1.0657,0.0,1.1418,1.1788,0.0,1.2562,1.3485,1.4847,1.6058,1.7723,1.9706,2.0853,2.2418,2.43,2.5954,2.7564,2.9147,3.2571,3.4757,3.6019,4.0234,4.243,4.2849,4.4401,4.5726,4.6771,4.5542,4.5565,4.6632,4.6177,4.5658,4.5113,4.5963,4.651,4.6771,4.7902,4.7764,4.6341,4.6617,4.6754,4.6906,4.7242,4.7572,4.7849,0.0,0.0,0.0,0.0,0.0,0.0,0.0,0.0,0.0,0.0,0.0,4.5069,4.5213,4.5283,4.5283,4.5336,4.5319,4.5177,4.4797,4.4463,4.4333,4.3621,4.288,4.2126,4.1327,4.0569,3.9788,3.8959,3.8236,3.7606,3.6741,3.5882,3.5263,3.4188,3.3173,3.2574,3.1416,3.0303,2.9357,2.8437,2.7334,2.6341,2.5286,2.448,2.396,2.4016,2.3787,2.2671,2.1616,2.0618,2.0023,1.973,1.9259,1.8623,1.8336,1.8066,1.779,1.7278,1.7047,1.7156,1.6772,1.6531,1.6509,1.6387,1.6142,1.5834,1.5584,1.5311,1.545,1.5372,1.5018,0.8851,0.913,0.9648,1.0066,1.0412,1.0786,1.1265,1.1935,0.0,0.0,0.0,1.886,2.0377,2.1995,2.3886,2.5721,2.764,3.1189,3.351,3.4914,3.9346,4.18,4.2626,4.4471,4.6119,4.739,4.6074,4.6345,4.8034,4.7645,4.7247,4.691,4.7862,4.8484,4.8738,5.0181,5.0237,4.8741,4.8741,4.8741,4.8724,4.924,4.9475,4.9492,4.985,4.9998,5.0055,5.0111,4.9907,4.9371,4.9323,4.8679,4.7282,4.7175,4.6823,4.6073,4.597,4.597,4.592,4.5768,4.558,4.5319,4.471,4.404,4.3535,4.3072,4.2366,4.1315,4.0685,3.9824,3.8779,3.8126,3.7439,3.6475,3.5713,3.5067,3.4384,3.3227,3.2214,3.1476,3.0317,2.9237,2.8164,2.7252,2.6439,2.5328,2.4428,2.353,2.2852,2.2804,2.2661,2.1587,2.0654,1.9786,1.9235,1.8865,1.8473,1.7824,1.7583,1.7323,1.7094,1.6697,1.6435,1.6372,1.6348,1.6294,1.6159,1.5914,1.5691,1.5575,1.5217,1.4954,1.4945,1.4853,1.463,0.7404,0.7481,0.7807,0.8097,0.8416,0.8792,0.9407,1.0514,1.2838,1.4451,1.5312,1.6534,1.8051,1.9771,2.1659,2.3514,2.5558,2.9073,3.1593,0.0,3.8104,4.0892,4.2027,4.4248,4.6229,4.7743,4.6785,4.7264,4.9031,4.8927,4.8609,4.8384,4.8781,4.9738,5.1073,5.2257,5.2706,5.2372,5.1361,5.0788,5.0788,5.1099,5.1269,5.1419,5.1437,5.1553,5.1669,5.1607,5.1589,5.1464,5.0904,5.0116,4.9156,4.8465,4.7722,4.6908,4.6671,4.6519,4.6424,4.6217,4.5786,4.5121,4.498,4.4361,4.3039,4.2848,4.2307,4.1284,4.0695,4.0081,3.8833,3.7717,3.689,3.6185,3.5107,3.4185,3.3389,3.2241,3.0976,2.9723,2.8658,2.7879,2.6985,2.6125,2.5405,2.4601,2.3692,2.2537,2.145,2.1168,2.1162,2.0631,1.9924,1.9364,1.8852,1.8306,1.7674,1.727,1.6907,1.6747,1.6486,1.6096,1.5867,1.5761,1.5479,1.5379,1.5283,1.5146,1.5172,1.5088,1.4906,1.4703,1.4711,1.4492,1.4533,0.605,0.6178,0.6426,0.6629,0.6902,0.7529,0.8111,0.886,1.0236,1.1789,1.3321,1.4574,1.6017,1.7564,1.9421,2.1308,2.3451,2.6861,2.9413,3.1537,3.6041,3.9114,4.0963,4.3173,4.5522,4.7829,4.8131,4.8844,4.9929,4.992,4.9676,4.9454,5.0371,5.1506,5.2655,5.3678,5.4188,5.4129,5.3059,5.2455,5.2441,5.2645,5.2771,5.2849,5.2812,5.289,5.2931,5.2844,5.2821,5.2821,5.2467,5.1692,5.0464,4.998,4.9168,4.7882,4.7625,4.7409,4.7142,4.6813,4.6395,4.5774,4.5614,4.4962,4.359,4.3202,4.2498,4.1143,4.0261,3.9235,3.7951,3.6957,3.6019,3.5256,3.4126,3.3146,3.214,3.0856,2.97,2.8643,2.7725,2.6782,2.6048,2.5244,2.4512,2.3808,2.261,2.1233,2.0131,1.9794,1.9573,1.9452,1.8926,1.8517,1.811,1.7705,1.7087,1.6544,1.6372,1.6197,1.5747,1.547,1.537,1.5305,1.5048,1.5096,1.5028,1.491,1.4805,1.4629,1.4391,1.4163,1.3893,1.3858,1.405,0.4842,0.4908,0.514,0.5315,0.5586,0.6324,0.6807,0.7177,0.7767,0.9035,1.0885,1.2445,1.3929,1.5451,1.7169,1.9102,2.1366,2.4447,2.7074,2.9544,3.3611,3.6967,3.9547,4.1785,4.4421,4.7229,4.8864,4.9836,5.0229,5.0495,5.0482,5.037,5.1568,5.2586,5.3241,5.4323,5.4921,5.4882,5.4358,5.4018,5.3887,5.4002,5.4081,5.4048,5.4067,5.4086,5.4035,5.3954,5.3939,5.3939,5.3875,5.3147,5.1611,5.1327,5.0608,4.9148,4.8806,4.8565,4.82,4.7802,4.7299,4.666,4.6473,4.5758,4.4484,4.3819,4.2744,4.1074,3.9848,3.8713,3.7243,3.6225,3.5307,3.4198,3.3157,3.2128,3.1006,2.9761,2.8545,2.7725,2.6812,2.5943,2.5152,2.45,2.3596,2.2364,2.1067,2.0048,1.9131,1.8439,1.837,1.8344,1.7959,1.7559,1.746,1.7072,1.6485,1.5789,1.577,1.5566,1.5177,1.4901,1.4794,1.4677,1.455,1.4483,1.477,1.4517,1.4274,1.408,1.3854,1.3622,1.3525,1.3461,1.3661,0.3735,0.3735,0.3808,0.4007,0.4354,0.476,0.5152,0.5592,0.6059,0.6706,0.7673,0.9818,1.1754,1.3441,1.4897,1.6728,1.9034,2.1759,2.4468,2.7284,3.1014,3.4513,3.7672,4.0239,4.2893,4.5592,4.8048,4.9264,4.9544,5.0312,5.0683,5.0833,5.1607,5.2065,5.2347,5.3802,5.4624,5.4663,5.5385,5.5527,5.51,5.51,5.516,5.5141,5.5135,5.5148,5.5113,5.5016,5.4943,5.4962,5.4931,5.4155,5.2641,5.2258,5.1716,5.0714,5.0409,5.0222,4.9989,4.9487,4.8664,4.7765,4.7478,4.6739,4.5207,4.4366,4.3042,4.112,4.0168,3.8912,3.7246,3.6063,3.4824,3.336,3.2286,3.1256,3.0023,2.9046,2.7993,2.6602,2.5848,2.5185,2.4316,2.3354,2.2124,2.0717,1.982,1.9076,1.8279,1.7834,1.7495,1.7391,1.7358,1.7159,1.6597,1.6268,1.5844,1.5283,1.5026,1.4919,1.45,1.4223,1.3953,1.3978,1.3562,1.3482,1.3462,1.3382,1.3386,1.3461,1.3555,1.3509,1.3644,1.3535,1.3677,0.3077,0.3077,0.3077,0.3044,0.3002,0.346,0.3811,0.4243,0.4581,0.5077,0.5796,0.7024,0.9017,1.1375,1.2749,1.4488,1.6596,1.9358,2.2008,2.4809,2.8163,3.1772,3.5491,3.7905,4.0721,4.4008,4.6341,4.7894,4.888,5.0003,5.0625,5.0761,5.1528,5.1938,5.203,5.3159,5.376,5.3811,5.466,5.5004,5.4898,5.5397,5.5714,5.5714,5.5711,5.5707,5.5707,5.5663,5.5389,5.491,5.4812,5.4056,5.241,5.2183,5.1934,5.1519,5.1467,5.1279,5.0953,5.0672,5.0062,4.9082,4.8661,4.7755,4.614,4.4756,4.3045,4.1119,3.9747,3.8315,3.6577,3.515,3.3784,3.2443,3.132,3.0206,2.9075,2.8023,2.6963,2.5939,2.5062,2.4356,2.3435,2.2281,2.0969,1.9717,1.88,1.8222,1.7801,1.7094,1.6634,1.6558,1.6336,1.6079,1.6028,1.5758,1.5186,1.4617,1.4332,1.4206,1.3746,1.3481,1.3394,1.342,1.3144,1.3211,1.3364,1.3401,1.3416,1.3181,1.2945,1.2891,1.2954,1.2965,1.2965,0.2074,0.2074,0.2074,0.1941,0.1772,0.2301,0.2682,0.3031,0.3315,0.3751,0.4146,0.4674,0.6242,0.8594,1.0516,1.2326,1.4312,1.6826,1.9486,2.2294,2.5217,2.8778,3.2771,3.5283,3.823,4.1552,4.3979,4.6106,4.8,4.9452,5.0155,5.0327,5.0898,5.1228,5.1334,5.2085,5.2515,5.2582,5.3359,5.3823,5.3867,5.4526,5.5215,5.58,5.5683,5.5585,5.5585,5.536,5.4981,5.4353,5.4294,5.3631,5.2258,5.2086,5.2139,5.233,5.2551,5.2589,5.2339,5.2081,5.15,5.057,4.9764,4.8596,4.6871,4.497,4.2991,4.0943,3.9258,3.7481,3.5916,3.4296,3.2904,3.162,3.0532,2.952,2.8369,2.729,2.6334,2.5373,2.4464,2.3435,2.2423,2.1156,1.983,1.87,1.8102,1.754,1.7219,1.6446,1.5923,1.5858,1.5186,1.5044,1.547,1.5044,1.4332,1.392,1.3642,1.3457,1.2995,1.3021,1.2975,1.3122,1.3002,1.2928,1.3061,1.3112,1.3112,1.2758,1.2494,1.2182,1.2189,1.2192,1.2192,0.0505,0.0505,0.0505,0.0684,0.0883,0.1279,0.1632,0.1931,0.2454,0.2551,0.248,0.3082,0.3882,0.5033,0.7966,1.0247,1.1988,1.4073,1.6714,1.9788,2.2273,2.5509,2.9481,3.2541,3.5329,3.812,4.1101,4.4095,4.7111,4.8455,4.9219,4.9352,4.9524,4.9607,4.9721,5.0399,5.0783,5.0867,5.1616,5.2072,5.2091,5.2151,5.3334,5.5093,5.4944,5.4518,5.447,5.3825,5.3401,5.3342,5.3376,5.301,5.2261,5.2206,5.255,5.3176,5.3765,5.4216,5.4349,5.3818,5.2964,5.1834,5.0594,4.9078,4.7157,4.5248,4.3135,4.0703,3.8751,3.6964,3.5344,3.3893,3.2427,3.1158,3.0128,2.9086,2.7857,2.6959,2.5894,2.4838,2.3915,2.257,2.0596,1.9801,1.8882,1.7906,1.755,1.723,1.6309,1.5843,1.5551,1.5124,1.4474,1.4043,1.4047,1.4043,1.3615,1.3232,1.3039,1.3006,1.2908,1.2834,1.2842,1.2813,1.2557,1.2481,1.2598,1.2484,1.2316,1.2037,1.1724,1.1569,1.1727,1.1417,1.1417,-0.0449,-0.0673,-0.0505,-0.0395,-0.0229,0.006,0.0372,0.0693,0.0922,0.1141,0.1411,0.2014,0.2549,0.3086,0.4843,0.7163,0.9921,1.1938,1.4308,1.7099,1.9656,2.2846,2.6511,2.9766,3.2756,3.5551,3.8591,4.194,4.527,4.646,4.7186,4.7776,4.8106,4.8214,4.8288,4.8583,4.8785,4.8859,4.9599,4.9989,4.9917,5.038,5.1095,5.1826,5.2551,5.2892,5.2892,5.2685,5.2395,5.1911,5.1995,5.1726,5.115,5.1704,5.2245,5.2685,5.3805,5.4474,5.4417,5.4341,5.3834,5.2729,5.1325,4.9659,4.7668,4.5516,4.3247,4.0972,3.8866,3.6925,3.496,3.3436,3.1911,3.0496,2.9443,2.8399,2.7173,2.6312,2.544,2.407,2.2738,2.1162,1.9917,1.8876,1.8209,1.7572,1.6922,1.6397,1.5838,1.5393,1.4806,1.4303,1.3904,1.3368,1.2909,1.3096,1.3066,1.2739,1.2554,1.2557,1.2494,1.2425,1.2409,1.2192,1.2086,1.1949,1.2034,1.1876,1.1727,1.1572,1.1262,1.1107,1.1262,1.1107,1.1107,-0.1177,-0.1401,-0.129,-0.1178,-0.1185,-0.1074,-0.0859,-0.0683,-0.0525,-0.0269,0.0134,0.0806,0.1276,0.1749,0.2596,0.4477,0.7182,0.9592,1.2078,1.4556,1.726,2.0185,2.3401,2.6784,2.9822,3.2794,3.6535,3.9999,4.2809,4.4007,4.5,4.5941,4.6344,4.6534,4.6614,4.6722,4.6829,4.6918,4.7313,4.7564,4.7527,4.7957,4.8161,4.8245,4.915,5.0154,5.0836,5.0881,5.0639,5.0194,5.032,5.0302,5.0105,5.0822,5.1541,5.2058,5.3124,5.4033,5.433,5.4477,5.4182,5.3404,5.2018,5.0311,4.827,4.5879,4.3469,4.114,3.8908,3.6893,3.4856,3.3182,3.1598,3.0165,2.9049,2.7903,2.6534,2.5554,2.4448,2.287,2.1323,2.0052,1.9173,1.8421,1.7787,1.7412,1.6451,1.5876,1.5546,1.4793,1.4177,1.3761,1.3391,1.2876,1.2393,1.2376,1.2386,1.2038,1.2124,1.2108,1.2052,1.1987,1.191,1.1843,1.1572,1.1575,1.142,1.1262,1.1113,1.1119,1.0796,1.0641,1.0796,1.0796,1.0817,-0.179,-0.1792,-0.1796,-0.1797,-0.1811,-0.1891,-0.2002,-0.1932,-0.1707,-0.1412,-0.1143,-0.0672,0.0067,0.0739,0.1549,0.2556,0.418,0.7126,0.9854,1.2359,1.4903,1.7503,2.0172,2.3582,2.6865,2.9776,3.4644,3.7872,3.9698,4.1272,4.2629,4.3704,4.4173,4.4497,4.4687,4.485,4.4921,4.4938,4.4989,4.4989,4.4866,4.4969,4.4895,4.4878,4.5112,4.6284,4.8418,4.8221,4.8142,4.8125,4.8401,4.8805,4.9202,4.9683,5.0366,5.1302,5.188,5.2893,5.4262,5.4338,5.4203,5.3747,5.2641,5.0948,4.8779,4.6302,4.3762,4.1267,3.9066,3.6897,3.4947,3.3269,3.1665,3.0195,2.8806,2.7458,2.6122,2.4857,2.3384,2.1515,2.0162,1.9173,1.8502,1.7981,1.757,1.6703,1.6269,1.5812,1.5132,1.4453,1.3753,1.3356,1.2861,1.2237,1.1877,1.1653,1.1567,1.1482,1.156,1.1653,1.1549,1.1465,1.1503,1.1265,1.1158,1.1008,1.1029,1.0873,1.0736,1.0736,1.0386,1.0236,1.042,1.0442,1.0409,-0.241,-0.241,-0.241,-0.2499,-0.2553,-0.2645,-0.26,-0.2483,-0.2383,-0.2218,-0.1884,-0.1547,-0.1076,-0.0403,0.047,0.1452,0.2464,0.445,0.6939,1.0024,1.2762,1.5127,1.7672,2.1044,2.4899,2.898,3.2305,3.4873,3.6622,3.8319,3.9724,4.0911,4.1973,4.2541,4.2724,4.3015,4.3195,4.3195,4.3211,4.3135,4.3048,4.2988,4.2944,4.29,4.3098,4.3664,4.4401,4.5643,4.6365,4.6595,4.6926,4.7384,4.7978,4.8571,4.9194,4.9955,5.1029,5.1858,5.2723,5.3776,5.4167,5.3708,5.2952,5.1509,4.9395,4.6929,4.4432,4.1976,3.9731,3.7617,3.5643,3.3681,3.1787,2.9783,2.8217,2.6608,2.4833,2.3113,2.1734,2.0622,1.956,1.8731,1.8006,1.7644,1.7036,1.6327,1.5839,1.5172,1.4759,1.4055,1.3337,1.3054,1.2471,1.1894,1.155,1.1355,1.1145,1.1021,1.1076,1.1125,1.1019,1.1053,1.0937,1.0996,1.0731,1.0614,1.0631,1.0496,1.0363,1.0401,1.0256,1.0264,1.0269,1.0248,1.0212,-0.3026,-0.303,-0.3081,-0.3124,-0.3137,-0.3292,-0.3192,-0.2974,-0.2986,-0.2824,-0.2555,-0.2285,-0.1883,-0.1344,-0.047,0.0485,0.1523,0.2614,0.4604,0.7431,1.0556,1.2981,1.5397,1.9645,2.3627,2.7391,3.0012,3.2069,3.393,3.5459,3.6832,3.8175,3.9404,4.0231,4.0493,4.106,4.1383,4.1464,4.1449,4.1464,4.1446,4.1365,4.1314,4.128,4.1494,4.169,4.1853,4.3195,4.4287,4.506,4.5613,4.6192,4.6749,4.7404,4.7972,4.8739,4.9765,5.0814,5.1709,5.3143,5.3981,5.3667,5.332,5.2121,4.9887,4.7436,4.4927,4.2571,4.0156,3.7966,3.597,3.3888,3.1657,2.9493,2.7753,2.5847,2.3773,2.188,2.0667,1.9873,1.9066,1.8389,1.7825,1.7231,1.6578,1.6009,1.5465,1.475,1.4332,1.3626,1.3066,1.2561,1.2136,1.1692,1.1374,1.1039,1.0697,1.0711,1.0717,1.0738,1.0612,1.0621,1.0491,1.06,1.0507,1.0256,1.028,1.015,1.0016,1.0058,1.0082,1.004,1.0014,1.0348,1.0329,-0.366,-0.3623,-0.3765,-0.3754,-0.3659,-0.3867,-0.3816,-0.3647,-0.3588,-0.3429,-0.3226,-0.2822,-0.2554,-0.2153,-0.1412,-0.0485,0.0723,0.1748,0.291,0.498,0.7986,1.0993,1.3994,1.8994,2.2695,2.5083,2.7669,2.9817,3.1648,3.2948,3.4133,3.5568,3.6765,3.7634,3.8154,3.8945,3.9556,3.9773,3.9804,3.9874,4.0045,3.996,3.9819,3.9819,4.003,4.0255,4.05,4.108,4.2029,4.3479,4.4497,4.5123,4.5579,4.6168,4.6882,4.7583,4.8396,4.9655,5.1067,5.2347,5.33,5.3643,5.3396,5.2619,5.0362,4.7914,4.5526,4.3163,4.058,3.8252,3.6157,3.4009,3.1657,2.903,2.6943,2.4912,2.2461,2.1149,2.033,1.9534,1.8633,1.808,1.7602,1.6992,1.6409,1.574,1.5186,1.4759,1.39,1.3356,1.285,1.2379,1.1767,1.1463,1.1132,1.065,1.0443,1.0449,1.0302,1.0314,1.0344,1.0358,1.0227,1.0174,1.0302,1.0043,0.9928,0.9795,0.965,0.9509,0.9657,0.9607,0.9939,1.0303,1.0476,-0.4258,-0.4082,-0.4249,-0.4378,-0.4463,-0.4455,-0.4395,-0.4312,-0.4148,-0.3964,-0.3694,-0.3293,-0.2956,-0.2757,-0.2154,-0.1386,-0.036,0.0801,0.1869,0.3198,0.5527,0.9677,1.3911,1.8004,2.1059,2.3163,2.5636,2.7718,2.9332,3.0855,3.214,3.3111,3.4524,3.562,3.6404,3.6977,3.7635,3.8324,3.8457,3.8546,3.8694,3.8694,3.8634,3.8708,3.8855,3.9075,3.9349,4.0185,4.126,4.2537,4.3383,4.3972,4.4456,4.5091,4.585,4.6674,4.7543,4.854,4.9833,5.1297,5.2376,5.3128,5.3229,5.2434,5.1113,4.8948,4.667,4.4393,4.1896,3.9389,3.7142,3.4505,3.1311,2.7478,2.5349,2.3634,2.2013,2.0882,1.9952,1.9173,1.8506,1.7944,1.7384,1.6882,1.631,1.547,1.5048,1.4621,1.3757,1.3197,1.2676,1.2255,1.1801,1.1205,1.0887,1.04,1.0164,1.0167,1.0169,1.0172,1.0219,1.0266,0.9987,0.9734,1.0085,1.0016,0.9732,0.9436,0.9281,0.9109,0.945,0.9768,0.9965,1.033,1.0479,-0.485,-0.4729,-0.4914,-0.4988,-0.4951,-0.4942,-0.482,-0.4686,-0.4564,-0.4364,-0.4097,-0.383,-0.3426,-0.3025,-0.2624,-0.2012,-0.1306,-0.0073,0.1198,0.266,0.5165,0.9009,1.3287,1.6629,1.9065,2.1403,2.3701,2.5722,2.729,2.8887,3.0065,3.1061,3.2302,3.3567,3.4571,3.53,3.6151,3.7056,3.7246,3.7337,3.7672,3.7672,3.7749,3.7825,3.7976,3.8127,3.8708,3.958,4.0615,4.1672,4.2443,4.3003,4.341,4.4152,4.4966,4.585,4.6784,4.786,4.9184,5.0875,5.2299,5.3006,5.3299,5.2881,5.1592,4.9746,4.7653,4.5253,4.2607,4.0161,3.7613,3.4216,3.0276,2.6771,2.4595,2.2988,2.1607,2.0609,1.9782,1.9017,1.8306,1.7716,1.7205,1.6806,1.6018,1.5332,1.5048,1.4332,1.3611,1.305,1.2702,1.2304,1.1699,1.1086,1.0773,1.044,1.0169,1.0019,1.0047,1.0047,1.0125,1.0191,0.9953,0.9874,0.9868,0.9808,0.9331,0.9017,0.8858,0.9033,0.94,0.9738,0.9905,1.0406,1.057,-0.5517,-0.5463,-0.5668,-0.5537,-0.5246,-0.5363,-0.5216,-0.496,-0.4894,-0.4697,-0.4431,-0.43,-0.3897,-0.3295,-0.2893,-0.2424,-0.1821,-0.0801,0.0676,0.2662,0.5364,0.8777,1.1787,1.4754,1.7358,1.984,2.1945,2.3938,2.571,2.708,2.8167,2.9266,3.0413,3.1642,3.2883,3.3846,3.4939,3.6039,3.6308,3.6559,3.69,3.6978,3.707,3.7226,3.738,3.7763,3.8427,3.9177,3.995,4.0987,4.1654,4.2158,4.2569,4.3306,4.4209,4.518,4.6217,4.7379,4.8818,5.0909,5.264,5.3081,5.396,5.3964,5.2297,5.0526,4.8491,4.6296,4.3201,4.0533,3.7203,3.2993,2.9366,2.6658,2.4964,2.323,2.1607,2.0609,1.9794,1.8945,1.8088,1.767,1.7116,1.6734,1.6042,1.547,1.5044,1.4474,1.3757,1.319,1.2779,1.2578,1.1792,1.0966,1.0803,1.0477,1.0172,1.0022,1.0068,1.0106,1.0218,1.0142,1.0087,1.0029,0.9785,0.9345,0.8878,0.856,0.8568,0.8736,0.9237,0.9407,0.9574,1.0237,1.0734,-0.6234,-0.5979,-0.6078,-0.6032,-0.5913,-0.5811,-0.5624,-0.5422,-0.5292,-0.5093,-0.4891,-0.4498,-0.41,-0.3763,-0.3299,-0.2771,-0.2104,-0.1244,0.0075,0.2585,0.491,0.7323,1.0053,1.3171,1.6115,1.8546,2.0851,2.2827,2.4618,2.5913,2.701,2.795,2.8882,3.0144,3.1652,3.2577,3.37,3.509,3.5629,3.5937,3.6191,3.6457,3.6536,3.6707,3.7084,3.761,3.8277,3.9017,3.9737,4.0355,4.0972,4.1654,4.2238,4.2912,4.3739,4.4712,4.5715,4.6865,4.8348,5.0266,5.1935,5.3105,5.3732,5.3775,5.3524,5.1705,4.9726,4.7527,4.4806,4.1005,3.6133,3.2125,2.9266,2.7134,2.5325,2.3611,2.2111,2.1109,2.0008,1.9107,1.8429,1.7841,1.7169,1.6806,1.6287,1.5598,1.5039,1.4617,1.4043,1.3329,1.2943,1.2737,1.1782,1.111,1.0995,1.0641,1.0175,1.0041,1.009,1.0169,1.028,1.0378,1.0145,0.9907,0.9494,0.9038,0.8731,0.8399,0.8399,0.8736,0.907,0.9404,0.9905,1.0404,1.0734,-0.6741,-0.6478,-0.6478,-0.6416,-0.6222,-0.6152,-0.6017,-0.5752,-0.5554,-0.5422,-0.516,-0.4764,-0.4364,-0.41,-0.3572,-0.3048,-0.225,-0.1197,0.0382,0.2526,0.4501,0.6417,0.8565,1.1499,1.4422,1.721,1.9454,2.1521,2.3467,2.484,2.5841,2.6753,2.7649,2.9063,3.0614,3.1455,3.2826,3.4341,3.5059,3.5386,3.5723,3.5978,3.6232,3.647,3.7084,3.7687,3.8202,3.8855,3.9508,4.0146,4.0783,4.1406,4.1996,4.2664,4.3502,4.4451,4.5545,4.6998,4.8603,5.042,5.2219,5.3526,5.4157,5.4307,5.398,5.2645,5.082,4.869,4.5791,4.1793,3.5613,3.2488,2.9954,2.7727,2.605,2.4471,2.2988,2.1488,2.0202,1.9304,1.8517,1.808,1.7496,1.7142,1.6564,1.5891,1.5465,1.5039,1.4324,1.3634,1.3195,1.2791,1.1712,1.1104,1.101,1.0796,1.0175,1.0057,1.0114,1.0215,1.0332,1.0263,1.0351,0.9947,0.9535,0.9381,0.9068,0.8733,0.8566,0.8901,0.9404,0.9736,1.007,1.0404,1.0568,-0.7209,-0.7012,-0.7007,-0.6815,-0.6486,-0.6416,-0.6284,-0.5954,-0.5749,-0.562,-0.5362,-0.503,-0.4697,-0.43,-0.3832,-0.3261,-0.2334,-0.0994,0.0704,0.2364,0.3942,0.5829,0.7824,1.0064,1.2697,1.6008,1.8197,2.0252,2.2224,2.3724,2.4914,2.5746,2.667,2.8222,2.9726,3.0753,3.2079,3.3824,3.4564,3.4977,3.5399,3.5642,3.5965,3.6536,3.7162,3.7839,3.8352,3.8943,3.9595,4.0216,4.0851,4.1406,4.2012,4.268,4.3486,4.4395,4.5684,4.7237,4.9074,5.1066,5.2894,5.4227,5.497,5.5247,5.4703,5.3497,5.1812,4.9337,4.6361,4.182,3.6252,3.3261,3.0888,2.8673,2.7021,2.5448,2.3852,2.2111,2.084,1.9609,1.9117,1.8609,1.8003,1.7374,1.6932,1.632,1.5891,1.5465,1.475,1.3928,1.3481,1.289,1.1979,1.1123,1.1032,1.0641,1.0175,1.0057,1.0123,1.0245,1.0365,1.046,1.0386,1.0164,0.9731,0.9569,0.9237,0.907,0.907,0.9404,0.9736,0.9903,1.0237,1.057,1.0568,-0.7657,-0.7396,-0.7396,-0.7134,-0.6811,-0.6679,-0.6544,-0.6284,-0.6148,-0.5881,-0.5554,-0.5359,-0.4964,-0.4561,-0.4095,-0.3395,-0.2334,-0.0995,0.0392,0.1896,0.3444,0.51,0.6899,0.8952,1.1449,1.4129,1.669,1.9083,2.1264,2.2833,2.4049,2.4999,2.6019,2.7618,2.926,3.0433,3.1676,3.339,3.4314,3.4812,3.5154,3.5642,3.6031,3.6679,3.7303,3.7991,3.8723,3.9364,4.0091,4.0646,4.1272,4.1817,4.2414,4.2965,4.3694,4.4654,4.6169,4.7785,4.9373,5.156,5.3184,5.4233,5.5093,5.5785,5.5496,5.4253,5.2457,4.9952,4.5797,4.0846,3.7169,3.4259,3.1687,2.9484,2.7598,2.6042,2.4595,2.3245,2.1621,2.0477,1.9811,1.9096,1.8467,1.7983,1.7467,1.6856,1.6457,1.5895,1.5186,1.4361,1.3714,1.2995,1.2409,1.1595,1.0904,1.0472,1.0022,1.0052,1.0123,1.0245,1.0365,1.0479,1.042,1.019,1.007,0.9903,0.9571,0.9407,0.9571,0.9905,1.007,1.0237,1.0404,1.0568,1.0568,-0.7982,-0.7787,-0.7787,-0.7526,-0.7265,-0.7138,-0.6872,-0.6548,-0.635,-0.6148,-0.5885,-0.5554,-0.5226,-0.4827,-0.4364,-0.3533,-0.2407,-0.1534,-0.0235,0.1187,0.2621,0.427,0.605,0.81,1.0396,1.2872,1.537,1.7911,2.0369,2.2041,2.328,2.4327,2.5443,2.6937,2.8715,2.9978,3.1427,3.295,3.405,3.4743,3.5168,3.5804,3.6443,3.6915,3.7562,3.8202,3.8782,3.9508,4.0216,4.0982,4.1869,4.267,4.336,4.4196,4.4883,4.549,4.6916,4.8626,5.0112,5.2177,5.358,5.4782,5.5428,5.5954,5.5959,5.4815,5.2677,4.9454,4.6075,4.1281,3.8133,3.5232,3.2819,3.0665,2.8673,2.7013,2.5578,2.4348,2.2973,2.1488,2.0405,1.9682,1.913,1.8544,1.8106,1.7523,1.6871,1.632,1.5616,1.4932,1.4112,1.3317,1.2755,1.1763,1.1044,1.0624,1.0175,1.0205,1.0101,1.0223,1.0348,1.0457,1.0585,1.0541,1.0232,1.007,1.0072,1.0072,1.0239,1.0237,1.0404,1.057,1.057,1.0734,1.0734,-0.8242,-0.8117,-0.8117,-0.7922,-0.7657,-0.7526,-0.7265,-0.6872,-0.6548,-0.635,-0.6218,-0.576,-0.5425,-0.5043,-0.4439,-0.3578,-0.256,-0.1918,-0.0782,0.0554,0.2053,0.3604,0.5415,0.7321,0.9509,1.1946,1.3808,1.6375,1.9298,2.1239,2.2492,2.3774,2.4903,2.6568,2.8334,2.9782,3.1248,3.2692,3.3894,3.4686,3.5615,3.6463,3.7167,3.7643,3.8351,3.9104,3.9771,4.0553,4.1326,4.2133,4.2988,4.3961,4.4693,4.5951,4.6633,4.6781,4.8085,4.974,5.1279,5.2776,5.4104,5.5283,5.5753,5.6321,5.6175,5.4883,5.2382,4.8561,4.5341,4.2355,3.9356,3.6453,3.3935,3.1822,2.9874,2.8233,2.6667,2.5325,2.4224,2.281,2.1336,2.0434,1.9814,1.9298,1.8893,1.8094,1.759,1.6739,1.6178,1.5612,1.4706,1.3802,1.2977,1.2105,1.1484,1.0785,1.0486,1.0339,1.0233,1.0163,1.0294,1.0424,1.0549,1.0658,1.0565,1.0404,1.0404,1.0573,1.0406,1.057,1.057,1.0734,1.0734,1.0734,1.0734,-0.8694,-0.8452,-0.8452,-0.8247,-0.7922,-0.7657,-0.7456,-0.7326,-0.6872,-0.6548,-0.635,-0.6094,-0.576,-0.5209,-0.4448,-0.3608,-0.2804,-0.2064,-0.1097,0.0158,0.1726,0.3189,0.472,0.6381,0.8796,1.1014,1.2592,1.5177,1.8232,2.0512,2.2041,2.3329,2.5141,2.6931,2.8287,2.9922,3.1491,3.2918,3.3979,3.5312,3.6769,3.7554,3.838,3.9297,4.0206,4.092,4.1568,4.2326,4.3221,4.3856,4.4594,4.5318,4.5996,4.7276,4.8209,4.8809,4.9537,5.042,5.1848,5.3305,5.4536,5.5544,5.6265,5.6819,5.6368,5.4919,5.2416,4.9423,4.6225,4.3229,4.0462,3.7618,3.5145,3.2943,3.0907,2.9157,2.7624,2.6424,2.5325,2.4355,2.286,2.1679,2.0706,2.0209,1.9673,1.8871,1.8153,1.7449,1.6603,1.6037,1.5131,1.4083,1.3237,1.2371,1.1763,1.1219,1.0952,1.0641,1.0367,1.0269,1.0549,1.0678,1.0617,1.0721,1.0645,1.0726,1.0737,1.0737,1.0737,1.0737,1.0734,1.0734,1.0734,1.0734,1.0734,-0.921,-0.8765,-0.8765,-0.8571,-0.8312,-0.8117,-0.7857,-0.7521,-0.726,-0.6937,-0.6548,-0.6354,-0.5888,-0.5215,-0.4542,-0.3853,-0.302,-0.2378,-0.1568,-0.0238,0.1313,0.2769,0.4061,0.5852,0.808,1.025,1.2,1.4232,1.7224,1.9886,2.1633,2.3115,2.5041,2.6791,2.8389,3.0162,3.1712,3.3297,3.4923,3.647,3.7746,3.8802,3.9657,4.0529,4.1354,4.2117,4.2829,4.3526,4.4276,4.4968,4.5857,4.6781,4.7496,4.8603,4.9733,5.0558,5.1124,5.1855,5.2699,5.3941,5.4829,5.5676,5.6445,5.6888,5.6274,5.4932,5.2724,4.9833,4.7132,4.4337,4.1571,3.8864,3.6549,3.427,3.2156,3.0441,2.8801,2.7504,2.6424,2.5448,2.4409,2.3276,2.2065,2.113,2.0521,1.9871,1.8993,1.8153,1.7303,1.6315,1.531,1.4205,1.3341,1.2592,1.2146,1.1648,1.1405,1.1107,1.0952,1.0867,1.096,1.1078,1.1016,1.1123,1.1233,1.1311,1.1039,1.0904,1.0737,1.0737,1.0734,1.0734,1.0734,1.0734,1.0734,-0.9722,-0.9274,-0.9139,-0.8894,-0.8576,-0.8517,-0.8182,-0.7657,-0.7526,-0.7199,-0.6811,-0.6416,-0.5885,-0.5222,-0.4804,-0.4217,-0.3289,-0.2838,-0.2031,-0.0717,0.0655,0.2009,0.3481,0.5247,0.7458,0.9815,1.1014,1.3664,1.6778,1.9563,2.1752,2.3046,2.5192,2.6933,2.8623,3.0474,3.2327,3.438,3.6142,3.7682,3.9002,4.0118,4.1008,4.185,4.2618,4.3335,4.3961,4.4837,4.5538,4.638,4.7357,4.8269,4.8959,4.9875,5.0788,5.1571,5.2209,5.2927,5.3589,5.4398,5.5085,5.5813,5.6552,5.7033,5.6521,5.5237,5.329,5.0462,4.8018,4.5338,4.2629,4.0096,3.7724,3.5595,3.3417,3.1697,3.009,2.8683,2.7504,2.6675,2.5814,2.5,2.3771,2.2291,2.1449,2.0808,1.9965,1.8993,1.7866,1.688,1.573,1.4608,1.3905,1.3162,1.2564,1.2229,1.1834,1.1572,1.1417,1.1286,1.1215,1.1303,1.1237,1.1514,1.18,1.1728,1.1467,1.1188,1.0904,1.0737,1.0734,1.0734,1.0734,1.0734,1.0734,-1.011,-0.9919,-0.9588,-0.921,-0.877,-0.8576,-0.8317,-0.7917,-0.7652,-0.7265,-0.6876,-0.6412,-0.5954,-0.5437,-0.5151,-0.4651,-0.3867,-0.3295,-0.2496,-0.1512,-0.0328,0.1338,0.2977,0.4812,0.6818,0.9183,1.0847,1.3475,1.675,2.018,2.2071,2.3561,2.5591,2.7524,2.9443,3.1402,3.3632,3.5645,3.7412,3.9064,4.0452,4.1632,4.2524,4.3762,4.4744,4.5539,4.6218,4.6928,4.7583,4.8276,4.8959,4.9631,5.0195,5.0894,5.1615,5.2281,5.2991,5.3684,5.4339,5.4833,5.5383,5.6023,5.6748,5.7435,5.7205,5.5615,5.3515,5.1206,4.8755,4.63,4.3676,4.1201,3.8968,3.6799,3.4858,3.2975,3.1371,2.9747,2.8692,2.7882,2.7114,2.6313,2.5636,2.4331,2.2692,2.1932,2.0659,1.9552,1.8293,1.7178,1.6278,1.5285,1.4612,1.3897,1.3011,1.2668,1.2313,1.2037,1.1882,1.1572,1.1445,1.1532,1.1609,1.173,1.2015,1.1791,1.1737,1.1662,1.1389,1.0898,1.0734,1.0734,1.0734,1.0734,1.0737,-1.0624,-1.0371,-1.0231,-0.9779,-0.921,-0.8952,-0.8635,-0.8252,-0.7922,-0.7526,-0.7003,-0.6544,-0.602,-0.5709,-0.5514,-0.4937,-0.4031,-0.3679,-0.2961,-0.191,-0.0573,0.1087,0.281,0.455,0.6551,0.8982,1.0977,1.3487,1.6671,2.039,2.2777,2.4505,2.623,2.79,2.991,3.2722,3.5257,3.7017,3.889,4.0626,4.1744,4.3027,4.4021,4.5048,4.5929,4.6636,4.7339,4.808,4.8776,4.9445,5.0045,5.0605,5.1192,5.1701,5.2289,5.2901,5.357,5.4213,5.4857,5.537,5.5998,5.7232,5.7776,5.7937,5.7634,5.5973,5.392,5.1784,4.9615,4.7252,4.4741,4.2463,4.0286,3.817,3.6185,3.4325,3.2644,3.1129,2.995,2.9296,2.846,2.7655,2.7,2.6311,2.4569,2.2902,2.1584,2.0249,1.8988,1.7726,1.6817,1.5956,1.5147,1.4551,1.3675,1.3242,1.28,1.2501,1.2192,1.2037,1.1882,1.2047,1.2138,1.2262,1.2237,1.2204,1.2335,1.231,1.1878,1.1228,1.0901,1.0734,1.0734,1.0734,1.0904,-1.1129,-1.0744,-1.0681,-1.0231,-0.9594,-0.9274,-0.8958,-0.8576,-0.8252,-0.7787,-0.7195,-0.6745,-0.6284,-0.5974,-0.5867,-0.5365,-0.4494,-0.3969,-0.3272,-0.2234,-0.0818,0.092,0.264,0.4378,0.628,0.8886,1.1594,1.421,1.6814,2.0754,2.3221,2.5189,2.6969,2.8942,3.1069,3.427,3.7058,3.876,4.0358,4.207,4.3014,4.4218,4.5285,4.6111,4.6896,4.7638,4.8272,4.8961,4.9546,5.0142,5.0714,5.1244,5.1817,5.2371,5.2889,5.3491,5.4046,5.4644,5.5218,5.5996,5.6766,5.7925,5.8269,5.8121,5.7512,5.6206,5.4337,5.2394,5.0346,4.8223,4.5648,4.3515,4.1426,3.9328,3.7156,3.5322,3.4,3.2519,3.1656,3.0741,2.9934,2.9229,2.8415,2.7481,2.5358,2.361,2.1865,2.0659,1.9825,1.8563,1.7449,1.6625,1.5672,1.5069,1.4452,1.396,1.3414,1.3123,1.2811,1.2656,1.2656,1.2656,1.2511,1.246,1.2446,1.2772,1.2747,1.2543,1.198,1.1561,1.1065,1.0737,1.0734,1.0734,1.0901,-1.1373,-1.1059,-1.087,-1.0428,-0.9862,-0.9594,-0.9274,-0.8835,-0.8511,-0.8052,-0.7461,-0.7073,-0.6683,-0.6435,-0.6297,-0.5718,-0.4994,-0.4356,-0.3602,-0.2379,-0.1068,0.0585,0.2387,0.4118,0.6099,0.869,1.1482,1.4283,1.6994,2.1076,2.3664,2.6256,2.8686,3.0973,3.2314,3.5552,3.8431,4.0521,4.1824,4.3181,4.4339,4.5416,4.6237,4.7085,4.7819,4.8606,4.9205,4.9722,5.031,5.0858,5.1329,5.1848,5.2343,5.2839,5.3367,5.3961,5.4433,5.4996,5.5647,5.6729,5.7628,5.8273,5.8514,5.8389,5.779,5.6435,5.4791,5.2824,5.095,4.8848,4.6562,4.4478,4.249,4.0464,3.8404,3.663,3.5421,3.4162,3.332,3.2504,3.1633,3.0831,2.987,2.8689,2.6213,2.4196,2.2297,2.1069,2.0382,1.9401,1.8137,1.7121,1.6323,1.5483,1.4905,1.4597,1.4172,1.3729,1.3432,1.3123,1.2965,1.2811,1.2673,1.2542,1.2664,1.2685,1.2805,1.2757,1.2238,1.1869,1.1231,1.0904,1.0737,1.0901,1.1234,-1.1747,-1.1435,-1.1373,-1.1059,-1.0624,-1.004,-0.9594,-0.921,-0.8705,-0.8187,-0.7661,-0.74,-0.7003,-0.6726,-0.6549,-0.6162,-0.5204,-0.4887,-0.399,-0.2446,-0.1316,0.0502,0.2298,0.4031,0.6099,0.8858,1.1655,1.4545,1.7461,2.1499,2.4323,2.6972,3.1467,3.4192,3.5725,3.8154,4.0602,4.1865,4.3317,4.4685,4.564,4.648,4.7304,4.795,4.8714,4.9428,5.0011,5.057,5.107,5.1533,5.1976,5.2463,5.2882,5.3304,5.3814,5.4345,5.4838,5.564,5.666,5.7708,5.8156,5.847,5.8762,5.8716,5.7968,5.6662,5.5056,5.3396,5.1572,4.9505,4.7382,4.5497,4.3557,4.1677,3.9764,3.8336,3.7,3.5914,3.4945,3.4191,3.3356,3.1967,3.0956,2.9587,2.7495,2.5689,2.3931,2.2166,2.1207,1.9959,1.8837,1.7793,1.6811,1.6013,1.5502,1.4997,1.4569,1.431,1.3876,1.3586,1.3278,1.3123,1.2972,1.2831,1.2793,1.2756,1.2708,1.2675,1.2546,1.217,1.1689,1.1389,1.1403,1.1403,1.157,-1.1996,-1.1809,-1.1747,-1.1622,-1.1247,-1.0555,-0.9913,-0.946,-0.8894,-0.8382,-0.7992,-0.7727,-0.7396,-0.7052,-0.6896,-0.652,-0.5541,-0.5118,-0.4302,-0.2762,-0.1481,0.0334,0.2127,0.4033,0.6367,0.9125,1.1935,1.4819,1.8543,2.2086,2.6187,3.0608,3.4695,3.7437,3.9073,4.092,4.2279,4.3472,4.495,4.5975,4.6854,4.7605,4.8319,4.9006,4.9664,5.0349,5.0822,5.1381,5.1799,5.2214,5.2626,5.3036,5.3385,5.3795,5.4281,5.4727,5.5326,5.6184,5.7278,5.8178,5.8526,5.8697,5.9254,5.8985,5.8024,5.675,5.5326,5.3724,5.2054,5.0163,4.8186,4.6388,4.4642,4.2751,4.1402,3.9876,3.8643,3.7559,3.6793,3.6137,3.5007,3.3544,3.186,3.0366,2.874,2.7153,2.5555,2.3795,2.2173,2.0786,1.9535,1.8482,1.745,1.6644,1.5989,1.533,1.5043,1.4714,1.4456,1.4026,1.374,1.3432,1.3278,1.3123,1.2887,1.2661,1.2766,1.2595,1.2612,1.2566,1.2288,1.2167,1.2056,1.2069,1.1902,-1.2243,-1.212,-1.212,-1.1996,-1.1677,-1.0996,-1.0231,-0.9518,-0.9022,-0.8705,-0.8452,-0.7927,-0.7591,-0.7475,-0.7268,-0.6793,-0.615,-0.5427,-0.4358,-0.3175,-0.1727,0.0167,0.2043,0.3951,0.6653,0.957,1.2517,1.5789,1.9791,2.4335,2.9293,3.4212,3.7651,4.0261,4.1987,4.3356,4.4231,4.5333,4.6341,4.7243,4.796,4.8751,4.9401,5.0107,5.0715,5.1312,5.1831,5.2232,5.2644,5.2993,5.3326,5.3604,5.3944,5.433,5.4697,5.516,5.5748,5.6741,5.7679,5.8514,5.9011,5.929,5.9378,5.8969,5.8042,5.6819,5.5477,5.4016,5.2424,5.0714,4.8942,4.7287,4.5613,4.416,4.2856,4.1606,4.0395,3.9491,3.8901,3.7953,3.6758,3.5206,3.301,3.1332,2.9796,2.8353,2.6894,2.542,2.3665,2.176,2.0515,1.9284,1.8274,1.728,1.6477,1.578,1.5377,1.506,1.4858,1.4448,1.4168,1.3891,1.3432,1.3123,1.2814,1.2576,1.2718,1.2847,1.2979,1.2754,1.2504,1.262,1.2519,1.2392,1.2235,-1.2683,-1.2428,-1.2436,-1.2313,-1.1934,-1.1505,-1.0737,-0.9849,-0.9466,-0.9011,-0.8447,-0.8182,-0.7847,-0.7503,-0.7411,-0.6986,-0.635,-0.5617,-0.4583,-0.327,-0.1809,-0.0,0.2053,0.4339,0.7151,1.0182,1.3353,1.6824,2.1508,2.6271,3.1866,3.6725,3.9876,4.2429,4.4487,4.6067,4.6562,4.7093,4.7882,4.8511,4.9171,4.9886,5.0502,5.1104,5.1647,5.2167,5.2599,5.2932,5.3267,5.3508,5.3851,5.4158,5.4382,5.4727,5.5061,5.5692,5.6583,5.759,5.8416,5.9111,5.9627,5.9777,5.9627,5.8897,5.801,5.6888,5.5588,5.4224,5.2788,5.118,4.9757,4.8172,4.6727,4.5517,4.4359,4.3439,4.2372,4.1492,4.0646,3.9,3.7927,3.605,3.3968,3.2365,3.0954,2.9535,2.8089,2.6761,2.515,2.3119,2.149,2.0116,1.8898,1.7902,1.7008,1.6168,1.5802,1.5398,1.5055,1.4854,1.4605,1.4176,1.3733,1.3278,1.2811,1.2738,1.2705,1.28,1.2847,1.2946,1.2872,1.2853,1.2972,1.2669,1.2532,-1.2928,-1.2744,-1.2752,-1.256,-1.2251,-1.1872,-1.1185,-1.0428,-0.9907,-0.9338,-0.8765,-0.8371,-0.7977,-0.7724,-0.7536,-0.7174,-0.655,-0.5947,-0.4948,-0.3452,-0.1897,0.0168,0.233,0.4821,0.7815,1.0948,1.4349,1.7979,2.3242,2.9703,3.5588,3.8957,4.18,4.431,4.6487,4.8073,4.8916,4.9197,4.9492,4.9959,5.0505,5.103,5.1522,5.2029,5.2454,5.2914,5.3267,5.3586,5.3851,5.4086,5.4411,5.4661,5.4903,5.5198,5.5843,5.6465,5.7096,5.8196,5.9119,5.951,5.9959,6.0035,5.9658,5.8837,5.7913,5.6858,5.5702,5.4465,5.3129,5.1832,5.0525,4.9202,4.8004,4.6785,4.6044,4.5368,4.439,4.3407,4.1867,4.0109,3.8388,3.6606,3.486,3.3369,3.1991,3.0576,2.9273,2.7825,2.6218,2.4203,2.2578,2.1075,1.9698,1.8487,1.7607,1.6716,1.6186,1.5667,1.5407,1.506,1.5003,1.4467,1.388,1.3428,1.2811,1.2731,1.264,1.264,1.2681,1.2786,1.2881,1.2983,1.295,1.306,1.2929,-1.305,-1.2989,-1.2981,-1.2805,-1.256,-1.2058,-1.156,-1.1059,-1.0364,-0.9722,-0.921,-0.8554,-0.8192,-0.7996,-0.7711,-0.733,-0.6791,-0.6129,-0.5061,-0.3726,-0.1904,0.0169,0.2689,0.531,0.85,1.1877,1.5686,1.9894,2.5722,3.1893,3.7475,4.1025,4.3764,4.6225,4.8399,4.9654,5.0466,5.1049,5.1101,5.1319,5.1687,5.217,5.2571,5.2938,5.333,5.3683,5.3925,5.4193,5.4482,5.4716,5.4924,5.5113,5.5585,5.5915,5.6679,5.7429,5.7996,5.8706,5.9531,5.9908,5.9911,5.9874,5.9515,5.8716,5.7767,5.6946,5.5794,5.4747,5.3498,5.2279,5.1043,5.0262,4.9251,4.8298,4.7557,4.6743,4.5854,4.4413,4.2524,4.0817,3.9219,3.755,3.6226,3.4736,3.3379,3.1854,3.0455,2.9011,2.7294,2.5412,2.3665,2.2035,2.0527,1.9145,1.8065,1.7181,1.6573,1.6045,1.5672,1.521,1.5123,1.4498,1.403,1.3421,1.2811,1.2656,1.2535,1.2552,1.2586,1.2654,1.2735,1.2783,1.2895,1.303,1.3163,-1.3338,-1.318,-1.305,-1.2867,-1.2567,-1.2305,-1.1802,-1.124,-1.0688,-1.0053,-0.9344,-0.8846,-0.8482,-0.8198,-0.7836,-0.7453,-0.704,-0.6218,-0.5061,-0.3568,-0.1909,0.0425,0.305,0.5924,0.9213,1.2923,1.7007,2.2494,2.897,3.4658,3.9102,4.2432,4.5174,4.772,4.978,5.0876,5.1848,5.2581,5.2948,5.2798,5.2941,5.312,5.3373,5.3644,5.398,5.4209,5.443,5.4673,5.4884,5.5083,5.532,5.591,5.6751,5.7027,5.7675,5.8532,5.9121,5.9572,5.9884,6.0171,6.0144,5.9741,5.9269,5.8512,5.7739,5.6927,5.5981,5.4913,5.3861,5.2717,5.1835,5.1213,5.0606,4.9828,4.9031,4.8132,4.7193,4.5116,4.3134,4.1558,4.0059,3.8755,3.744,3.6104,3.4871,3.3379,3.1873,3.0325,2.8757,2.6902,2.4752,2.3126,2.1358,1.9976,1.873,1.7783,1.7038,1.6424,1.5885,1.5424,1.5087,1.4489,1.3725,1.3231,1.2811,1.2642,1.2484,1.2508,1.2545,1.2586,1.26,1.2651,1.2671,1.2776,1.2963,-1.3459,-1.3346,-1.3233,-1.2989,-1.2744,-1.256,-1.2058,-1.1498,-1.0996,-1.0437,-0.9758,-0.9199,-0.8748,-0.8401,-0.8014,-0.7607,-0.7104,-0.6256,-0.511,-0.3607,-0.1586,0.086,0.3558,0.6731,1.0461,1.4239,2.0532,2.6672,3.2377,3.6985,4.1023,4.3894,4.6537,4.8929,5.0841,5.2089,5.3107,5.3838,5.4538,5.4764,5.448,5.4373,5.4125,5.4281,5.4514,5.4704,5.4855,5.5075,5.5262,5.5662,5.6076,5.665,5.7405,5.7897,5.8643,5.9352,5.9874,6.0224,6.0321,6.034,6.028,5.9682,5.9103,5.8357,5.7812,5.7,5.6201,5.5129,5.4252,5.3196,5.2881,5.2394,5.1896,5.1194,5.0259,4.933,4.7623,4.5542,4.3797,4.2363,4.11,3.9954,3.8755,3.744,3.6093,3.4632,3.3126,3.1616,2.9926,2.8254,2.61,2.421,2.2441,2.0653,1.9267,1.8304,1.7647,1.6891,1.6127,1.5585,1.5159,1.4215,1.3574,1.3242,1.2874,1.2755,1.2604,1.2467,1.2494,1.2532,1.2528,1.2525,1.2697,1.289,1.3215,-1.3571,-1.3519,-1.3424,-1.3241,-1.2989,-1.2752,-1.2313,-1.1809,-1.1317,-1.0843,-1.0296,-0.9545,-0.9045,-0.8692,-0.8274,-0.7763,-0.7167,-0.6331,-0.517,-0.3647,-0.1512,0.1303,0.4408,0.7714,1.2156,1.7869,2.4273,2.9294,3.4366,3.8786,4.245,4.5242,4.7928,5.0537,5.2028,5.3415,5.4556,5.5304,5.6063,5.679,5.639,5.5654,5.512,5.4992,5.5047,5.514,5.5229,5.5389,5.5577,5.6309,5.703,5.7787,5.8304,5.8898,5.959,6.0249,6.0378,6.0584,6.0635,6.0441,6.0074,5.9537,5.893,5.8332,5.7802,5.712,5.6257,5.5531,5.4655,5.4108,5.3799,5.3531,5.3038,5.2161,5.1213,5.0118,4.8038,4.6032,4.4643,4.3257,4.225,4.1112,3.9943,3.8755,3.7429,3.5848,3.4373,3.2863,3.1212,2.929,2.7326,2.5427,2.3522,2.1872,2.0086,1.8988,1.8309,1.7359,1.6473,1.58,1.5065,1.4232,1.3576,1.3409,1.3036,1.2772,1.2539,1.242,1.245,1.2478,1.2656,1.2811,1.2972,1.3166,1.3516,-1.3821,-1.3769,-1.3735,-1.3493,-1.318,-1.2891,-1.2452,-1.2003,-1.1387,-1.0907,-1.0552,-1.0119,-0.9589,-0.916,-0.8558,-0.8018,-0.7267,-0.6414,-0.5453,-0.418,-0.1278,0.1763,0.5551,0.9833,1.5277,2.1374,2.7445,3.2167,3.6345,4.0424,4.3938,4.6748,4.9119,5.1454,5.3335,5.464,5.5679,5.6544,5.7162,5.7794,5.7481,5.6835,5.6244,5.5921,5.5644,5.5536,5.5485,5.5626,5.6213,5.7056,5.8028,5.8888,5.9441,5.9862,6.0447,6.0773,6.089,6.0763,6.0699,6.0391,5.9887,5.9363,5.8788,5.8301,5.7726,5.7206,5.6527,5.6109,5.5357,5.4898,5.4679,5.4559,5.4195,5.2683,5.1455,5.011,4.8396,4.6971,4.5714,4.4548,4.3577,4.2463,4.1239,4.0048,3.8755,3.7309,3.5654,3.4017,3.2237,3.0325,2.8535,2.6643,2.4738,2.2976,2.1201,1.9814,1.8854,1.7887,1.6793,1.5942,1.5035,1.4205,1.3718,1.3405,1.3024,1.2764,1.2539,1.2477,1.2543,1.2574,1.2944,1.312,1.3274,1.3439,1.3789]},{"header":{"parameterUnit":"m.s-1","parameterCategory":1,"la1":31.0,"la2":29.5877,"lo1":-88.7671,"lo2":-86.6584,"dy":0.0162,"dx":0.0185,"nx":115,"ny":88,"refTime":"2023-05-22T06:00:00:Z","depth":0,"parameterNumber":3,"parameterNumberName":"V-component_of_WINDS"},"data":[0.0,0.0,0.0,0.0,0.0,0.0,0.0,0.0,0.0,0.0,0.0,0.0,0.0,0.0,0.0,0.0,0.0,0.0,0.0,0.0,0.0,0.0,0.0,0.0,0.0,0.0,0.0,0.0,0.0,0.0,0.0,0.0,0.0,0.0,0.0,0.0,0.0,0.0,0.0,0.0,0.0,0.0,0.0,0.0,0.0,0.0,0.0,0.0,0.0,0.0,0.0,0.0,0.0,0.0,0.0,0.0,0.0,0.0,0.0,0.0,0.0,0.0,0.0,0.0,0.0,0.0,0.0,0.0,0.0,0.0,0.0,0.0,0.0,0.0,0.0,0.0,0.0,0.0,0.0,0.0,0.0,0.0,0.0,0.0,0.0,0.0,0.0,0.0,0.0,0.0,0.0,0.0,0.0,0.0,0.0,0.0,0.0,0.0,0.0,0.0,0.0,0.0,0.0,0.0,0.0,0.0,0.0,0.0,0.0,0.0,0.0,0.0,0.0,0.0,0.0,0.0,0.0,0.0,0.0,0.0,0.0,0.0,0.0,0.0,0.0,0.0,0.0,0.0,0.0,0.0,0.0,0.0,0.0,0.0,0.0,0.0,0.0,0.0,0.0,0.0,0.0,0.0,0.0,0.0,0.0,0.0,0.0,0.0,0.0,0.0,0.0,0.0,0.0,0.0,0.0,0.0,0.0,0.0,0.0,0.0,0.0,0.0,0.0,0.0,0.0,0.0,0.0,0.0,0.0,0.0,0.0,0.0,0.0,0.0,0.0,0.0,0.0,0.0,0.0,0.0,0.0,0.0,0.0,0.0,0.0,0.0,0.0,0.0,0.0,0.0,0.0,0.0,0.0,0.0,0.0,0.0,0.0,0.0,0.0,0.0,0.0,0.0,0.0,0.0,0.0,0.0,0.0,0.0,0.0,0.0,0.0,0.0,0.0,0.0,0.0,0.0,0.0,0.0,0.0,0.0,0.0,0.0,0.0,0.0,0.0,0.0,0.0,0.0,0.0,0.0,0.0,0.0,0.0,0.0,0.0,0.0,0.0,0.0,0.0,0.0,0.0,0.0,0.0,0.0,0.0,0.0,0.0,0.0,0.0,0.0,0.0,0.0,0.0,0.0,0.0,0.0,0.0,0.0,0.0,0.0,0.0,0.0,0.0,0.0,0.0,0.0,0.0,0.0,0.0,0.0,0.0,0.0,0.0,0.0,0.0,0.0,0.0,0.0,0.0,0.0,0.0,0.0,0.0,0.0,0.0,0.0,0.0,0.0,0.0,0.0,0.0,0.0,0.0,0.0,0.0,0.0,0.0,0.0,0.0,0.0,0.0,0.0,0.0,0.0,0.0,0.0,0.0,0.0,0.0,0.0,0.0,0.0,0.0,0.0,0.0,0.0,0.0,0.0,0.0,0.0,0.0,0.0,0.0,0.0,0.0,0.0,0.0,0.0,0.0,0.0,0.0,0.0,0.0,0.0,0.0,0.0,0.0,0.0,0.0,0.0,0.0,0.0,0.0,0.0,0.0,0.0,0.0,0.0,0.0,0.0,0.0,0.0,0.0,0.0,0.0,0.0,0.0,0.0,0.0,0.0,0.0,0.0,0.0,0.0,0.0,0.0,0.0,0.0,0.0,0.0,0.0,0.0,0.0,0.0,0.0,0.0,0.0,0.0,0.0,0.0,0.0,0.0,0.0,0.0,0.0,0.0,0.0,0.0,0.0,0.0,0.0,0.0,0.0,0.0,0.0,0.0,0.0,0.0,0.0,0.0,0.0,0.0,0.0,0.0,0.0,0.0,0.0,0.0,0.0,0.0,0.0,0.0,0.0,0.0,0.0,0.0,0.0,0.0,0.0,0.0,0.0,0.0,0.0,0.0,0.0,0.0,0.0,0.0,0.0,0.0,0.0,0.0,0.0,0.0,0.0,0.0,0.0,0.0,0.0,0.0,0.0,0.0,0.0,0.0,0.0,0.0,0.0,0.0,0.0,0.0,0.0,0.0,0.0,0.0,0.0,0.0,0.0,0.0,0.0,0.0,0.0,0.0,0.0,0.0,0.0,0.0,0.0,0.0,0.0,0.0,0.0,0.0,0.0,0.0,0.0,0.0,0.0,0.0,0.0,0.0,0.0,0.0,0.0,0.0,0.0,0.0,0.0,0.0,0.0,0.0,0.0,0.0,0.0,0.0,0.0,0.0,0.0,0.0,0.0,0.0,0.0,0.0,0.0,0.0,0.0,0.0,0.0,0.0,0.0,0.0,0.0,0.0,0.0,0.0,0.0,0.0,0.0,0.0,0.0,0.0,0.0,0.0,0.0,0.0,0.0,0.0,0.0,0.0,0.0,0.0,0.0,0.0,0.0,0.0,0.0,0.0,0.0,0.0,0.0,0.0,0.0,0.0,0.0,0.0,0.0,0.0,0.0,0.0,0.0,0.0,0.0,0.0,0.0,0.0,0.0,0.0,0.0,0.0,0.0,0.0,0.0,0.0,0.0,0.0,0.0,0.0,0.0,0.0,0.0,0.0,0.0,0.0,0.0,0.0,0.0,0.0,0.0,0.0,0.0,0.0,0.0,0.0,0.0,0.0,0.0,0.0,0.0,0.0,0.0,0.0,0.0,0.0,0.0,0.0,0.0,0.0,0.0,0.0,0.0,0.0,0.0,0.0,0.0,0.0,0.0,0.0,0.0,0.0,0.0,0.0,0.0,0.0,0.0,0.0,0.0,0.0,0.0,0.0,0.0,0.0,0.0,0.0,0.0,0.0,0.0,0.0,0.0,0.0,0.0,0.0,0.0,0.0,0.0,0.0,0.0,0.0,0.0,0.0,0.0,0.0,0.0,0.0,0.0,0.0,0.0,0.0,0.0,0.0,0.0,0.0,0.0,0.0,0.0,0.0,0.0,0.0,0.0,0.0,0.0,0.0,0.0,0.0,0.0,0.0,0.0,0.0,0.0,0.0,0.0,0.0,0.0,0.0,0.0,0.0,0.0,0.0,0.0,0.0,0.0,0.0,0.0,0.0,0.0,0.0,0.0,0.0,0.0,0.0,0.0,0.0,0.0,0.0,0.0,0.0,0.0,0.0,0.0,0.0,0.0,0.0,0.0,0.0,0.0,0.0,0.0,0.0,0.0,0.0,0.0,0.0,0.0,0.0,0.0,0.0,0.0,0.0,0.0,0.0,0.0,0.0,0.0,0.0,0.0,0.0,0.0,0.0,0.0,0.0,0.0,0.0,0.0,0.0,0.0,0.0,0.0,0.0,0.0,0.0,0.0,0.0,0.0,0.0,0.0,0.0,0.0,0.0,0.0,0.0,0.0,0.0,0.0,0.0,0.0,0.0,0.0,0.0,0.0,0.0,0.0,0.0,0.0,0.0,0.0,0.0,0.0,0.0,0.0,0.0,0.0,0.0,0.0,0.0,0.0,0.0,0.0,0.0,0.0,0.0,0.0,0.0,0.0,0.0,0.0,0.0,0.0,0.0,0.0,0.0,0.0,0.0,0.0,0.0,0.0,0.0,0.0,0.0,0.0,0.0,0.0,0.0,0.0,0.0,0.0,0.0,0.0,0.0,0.0,0.0,0.0,0.0,0.0,0.0,0.0,0.0,0.0,0.0,0.0,0.0,0.0,0.0,0.0,0.0,0.0,0.0,0.0,0.0,0.0,0.0,0.0,0.0,0.0,0.0,0.0,0.0,0.0,0.0,0.0,0.0,0.0,0.0,0.0,0.0,0.0,0.0,0.0,0.0,0.0,0.0,0.0,0.0,0.0,0.0,0.0,0.0,0.0,0.0,0.0,0.0,0.0,0.0,0.0,0.0,0.0,0.0,0.0,0.0,0.0,0.0,0.0,0.0,0.0,0.0,0.0,0.0,0.0,0.0,0.0,0.0,0.0,0.0,0.0,0.0,0.0,0.0,0.0,0.0,0.0,0.0,0.0,0.0,0.0,0.0,0.0,0.0,0.0,0.0,0.0,0.0,0.0,0.0,0.0,0.0,0.0,0.0,0.0,0.0,0.0,0.0,0.0,0.0,0.0,0.0,0.0,0.0,0.0,0.0,0.0,0.0,0.0,0.0,0.0,0.0,0.0,0.0,0.0,0.0,0.0,0.0,0.0,0.0,0.0,0.0,0.0,0.0,0.0,0.0,0.0,0.0,0.0,0.0,0.0,0.0,0.0,0.0,0.0,0.0,0.0,0.0,0.0,0.0,0.0,0.0,0.0,0.0,0.0,0.0,0.0,0.0,0.0,0.0,0.0,0.0,0.0,0.0,0.0,0.0,0.6224,0.0,0.0,0.0,0.0,0.0,0.0,0.0,0.0,0.0,0.0,0.0,0.0,0.0,0.0,0.0,0.0,0.0,0.0,0.0,0.0,0.0,0.0,0.0,0.0,0.0,0.0,0.0,0.0,0.0,0.0,0.0,0.0,0.0,0.0,0.0,0.0,0.0,0.0,0.0,0.0,0.0,0.0,0.0,0.0,0.0,0.0,0.0,0.0,0.0,0.0,0.0,0.0,0.0,0.0,0.0,0.0,0.0,0.0,0.0,0.0,0.0,0.0,0.0,0.0,0.0,0.0,0.0,0.0,0.0,0.0,0.0,0.0,0.0,0.0,0.0,0.0,0.0,0.0,0.0,0.0,0.0,0.0,0.0,0.0,0.0,0.0,0.0,0.0,0.0,0.0,0.0,0.0,0.0,0.0,0.0,0.0,0.0,0.0,0.0,0.0,0.0,0.0,0.0,0.0,0.0,0.0,0.0,0.0,0.0,0.0,0.5936,0.6131,0.6417,0.6701,0.6948,0.0,0.0,0.0,0.0,0.0,0.0,0.0,0.0,0.0,0.0,0.0,0.0,0.0,0.0,0.0,0.0,0.0,0.0,0.0,0.0,0.0,0.0,0.0,0.0,0.0,0.0,0.0,0.0,0.0,0.0,0.0,0.0,0.0,0.0,0.0,0.0,0.0,0.0,0.0,0.0,0.0,0.0,0.0,0.0,0.0,0.0,0.0,0.0,0.0,0.0,0.0,0.0,0.0,0.0,0.0,0.0,0.0,0.0,0.0,0.0,0.0,0.0,0.0,0.0,0.0,0.0,0.0,0.0,0.0,0.0,0.0,0.0,0.0,0.0,0.0,0.0,0.0,0.0,0.0,0.0,0.0,0.0,0.0,0.0,0.0,0.0,0.0,0.0,0.0,0.0,0.0,0.0,0.0,0.0,0.0,0.0,0.0,0.0,0.0,0.0,0.0,0.0,0.0,0.0,0.0,0.0,0.0,0.0,0.0,0.0,0.0,0.0,0.7462,0.7772,0.7804,0.0,0.0,0.0,0.0,0.0,0.0,0.0,0.0,0.0,0.0,0.0,0.0,0.0,0.0,0.0,0.0,0.0,0.0,0.0,0.0,0.0,0.0,0.0,0.0,0.0,0.0,0.0,0.0,0.0,0.0,0.0,0.0,0.0,0.0,0.0,0.0,0.0,0.0,0.0,0.0,0.0,0.0,0.0,0.0,0.0,0.0,0.0,0.0,0.0,0.0,0.0,0.0,0.0,0.0,0.0,0.0,0.0,0.0,0.0,0.0,0.0,0.0,0.0,0.0,0.0,0.0,0.0,0.0,0.0,0.0,0.0,0.0,0.0,0.0,0.0,0.0,0.0,0.0,0.0,0.0,0.0,0.0,0.0,0.0,0.0,0.0,0.0,0.0,0.0,0.0,0.0,0.0,0.0,0.0,0.0,0.0,0.0,0.0,0.0,0.0,0.0,0.0,0.0,0.0,0.0,0.0,0.0,0.0,0.0,0.0,0.8162,0.8593,0.8854,0.0,0.9215,0.0,0.0,0.0,0.0,0.0,0.0,0.0,0.0,0.0,0.0,0.0,0.0,0.0,0.0,0.0,0.0,0.0,0.0,0.0,0.0,0.0,0.0,0.0,0.0,0.0,0.0,0.0,0.0,0.0,0.0,0.0,0.0,0.0,0.0,0.0,0.0,0.0,0.0,0.0,0.0,0.0,0.0,0.0,0.0,0.0,0.0,0.0,0.0,0.0,0.0,0.0,0.0,0.0,0.0,0.0,0.0,0.0,0.0,0.0,0.0,0.0,0.0,0.0,0.0,0.0,0.0,0.0,0.0,0.0,0.0,0.0,0.0,0.0,0.0,0.0,0.0,0.0,0.0,0.0,0.0,0.0,0.0,0.0,0.0,0.0,0.0,0.0,0.0,0.0,0.0,0.0,0.0,0.0,0.0,0.0,0.0,0.0,0.0,0.0,0.0,0.0,0.0,0.0,0.0,0.0,0.0,0.0,0.0,0.0,0.0,0.9131,0.9503,0.9925,1.0281,0.0,0.0,0.0,0.0,0.0,0.0,0.0,0.0,0.0,0.0,0.0,0.0,0.0,0.0,0.0,0.0,0.0,0.0,0.0,0.0,0.0,0.0,0.0,0.0,0.0,0.0,0.0,0.0,0.0,0.0,0.0,0.0,0.0,0.0,0.0,0.0,0.0,0.0,0.0,0.0,0.0,0.0,0.0,0.0,0.0,0.0,0.0,0.0,0.0,0.0,0.0,0.0,0.0,0.0,0.0,0.0,0.0,0.0,0.0,0.0,0.0,0.0,0.0,0.0,0.0,0.0,0.0,0.0,0.0,0.0,0.0,0.0,0.0,0.0,0.0,0.0,0.0,0.0,0.0,0.0,0.0,0.0,0.0,0.0,0.0,0.0,0.0,0.0,0.0,0.0,0.0,0.0,0.0,0.0,0.0,0.0,0.0,0.0,0.0,0.0,0.0,0.0,0.0,0.0,0.0,0.0,0.0,0.0,0.0,0.0,1.0128,1.0567,1.0926,1.1343,1.1722,1.1988,0.0,0.0,0.0,0.0,0.0,0.0,0.0,0.0,0.0,0.0,0.0,0.0,0.0,0.0,0.0,0.0,0.0,0.0,0.0,0.0,0.0,0.0,0.0,0.0,0.0,0.0,0.0,0.0,0.0,0.0,0.0,0.0,0.0,0.0,0.0,0.0,0.0,0.0,0.0,0.0,0.0,0.0,0.0,0.0,0.0,0.0,0.0,0.0,0.0,0.0,0.0,0.0,0.0,0.0,0.0,0.0,0.0,0.0,0.0,0.0,0.0,0.0,0.0,0.0,0.0,0.0,0.0,0.0,0.0,0.0,0.0,0.0,0.0,0.0,0.0,0.0,0.0,0.0,0.0,0.0,0.0,0.0,0.0,0.0,0.0,0.0,0.0,0.0,0.0,0.0,0.0,0.0,0.0,0.0,0.0,0.0,0.0,0.0,0.0,0.0,0.0,0.0,0.0,0.0,0.0,0.0,0.0,0.0,1.1615,1.2028,1.2541,1.3204,1.3401,1.3563,0.0,0.0,0.0,0.0,0.0,0.0,0.0,0.0,0.0,0.0,0.0,0.0,0.0,0.0,0.0,0.0,0.0,0.0,0.0,0.0,0.0,0.0,0.0,0.0,0.0,0.0,0.0,0.0,0.0,0.0,0.0,0.0,0.0,0.0,0.0,0.0,0.0,0.0,0.0,0.0,0.0,0.0,0.0,0.0,0.0,0.0,0.0,0.0,0.0,0.0,0.0,0.0,0.0,0.0,0.0,0.0,0.0,0.0,0.0,0.0,0.0,0.0,0.0,0.0,0.0,0.0,0.0,0.0,0.0,0.0,0.0,0.0,0.0,0.0,0.0,0.0,0.0,0.0,0.0,0.0,0.0,0.0,0.0,0.0,0.0,0.0,0.0,0.0,0.0,0.0,0.0,0.0,0.0,0.0,0.0,0.0,0.0,0.0,0.0,0.0,0.0,0.0,0.0,0.0,0.0,0.0,0.0,0.0,0.0,1.2841,1.3502,1.3941,1.4228,1.4536,1.4726,0.0,0.0,0.0,0.0,0.0,0.0,0.0,0.0,0.0,0.0,0.0,0.0,0.0,0.0,0.0,0.0,0.0,0.0,0.0,0.0,0.0,0.0,0.0,0.0,0.0,0.0,0.0,0.0,0.0,0.0,0.0,0.0,0.0,0.0,0.0,0.0,0.0,0.0,0.0,0.0,0.0,0.0,0.0,0.0,0.0,0.0,0.0,0.0,0.0,0.0,0.0,0.0,0.0,0.0,0.0,0.0,0.0,0.0,0.0,0.0,0.0,0.0,0.0,0.0,0.0,0.0,0.0,0.0,0.0,0.0,0.0,0.0,0.0,0.0,0.0,0.0,0.0,0.0,0.0,0.0,0.0,0.0,0.0,0.0,0.0,0.0,0.0,0.0,0.0,0.0,0.0,0.0,0.0,0.0,0.0,0.0,0.0,0.0,0.0,0.0,0.0,0.0,0.0,0.0,0.0,0.0,0.0,0.0,0.0,1.4502,0.0,1.5658,1.5658,1.603,1.6188,0.0,0.0,0.0,0.0,0.0,0.0,0.0,0.0,0.0,0.0,0.0,0.0,0.0,0.0,0.0,0.0,0.0,0.0,0.0,0.0,0.0,0.0,0.0,0.0,0.0,0.0,0.0,0.0,0.0,0.0,0.0,0.0,0.0,0.0,0.0,0.0,0.0,0.0,0.0,0.0,0.0,0.0,0.0,0.0,0.0,0.0,0.0,0.0,0.0,0.0,0.0,0.0,0.0,0.0,0.0,0.0,0.0,0.0,0.0,0.0,0.0,0.0,0.0,0.0,0.0,0.0,0.0,0.0,0.0,0.0,0.0,0.0,0.0,0.0,0.0,0.0,0.0,0.0,0.0,0.0,0.0,0.0,0.0,0.0,0.0,0.0,0.0,0.0,0.0,0.0,0.0,0.0,0.0,0.0,0.0,0.0,0.0,0.0,0.0,0.0,0.0,0.0,0.0,0.0,0.0,0.0,0.0,0.0,1.5401,1.6789,1.7379,1.7688,1.771,1.7961,1.8081,0.0,0.0,0.0,0.0,0.0,0.0,0.0,0.0,0.0,0.0,0.0,0.0,0.0,0.0,0.0,0.0,0.0,0.0,0.0,0.0,0.0,0.0,0.0,0.0,0.0,0.0,0.0,0.0,0.0,0.0,0.0,0.0,0.0,0.0,0.0,0.0,0.0,0.0,0.0,0.0,0.0,0.0,0.0,0.0,0.0,0.0,0.0,0.0,0.0,0.0,0.0,0.0,0.0,0.0,0.0,0.0,0.0,0.0,0.0,0.0,0.0,0.0,0.0,0.0,0.0,0.0,0.0,0.0,0.0,0.0,0.0,0.0,0.0,0.0,0.0,0.0,0.0,0.0,0.0,0.0,0.0,0.0,0.0,0.0,0.0,0.0,0.0,0.0,0.0,0.0,0.0,0.0,0.0,0.0,0.0,0.0,0.0,0.0,0.0,0.0,0.0,0.0,0.0,0.0,0.0,0.0,0.0,0.0,0.0,1.8753,1.9219,1.9558,1.9613,1.9817,1.9699,0.0,0.0,0.0,0.0,0.0,0.0,0.0,0.0,0.0,0.0,0.0,0.0,0.0,0.0,0.0,0.0,0.0,0.0,0.0,0.0,0.0,0.0,0.0,0.0,0.0,0.0,0.0,0.0,0.0,0.0,0.0,0.0,0.0,0.0,0.0,0.0,0.0,0.0,0.0,0.0,0.0,0.0,0.0,0.0,0.0,0.0,0.0,0.0,0.0,0.0,0.0,0.0,0.0,0.0,0.0,0.0,0.0,0.0,0.0,0.0,0.0,0.0,0.0,0.0,0.0,0.0,0.0,0.0,0.0,0.0,0.0,0.0,0.0,0.0,0.0,0.0,0.0,0.0,0.0,0.0,0.0,0.0,0.0,0.0,0.0,0.0,0.0,0.0,0.0,0.0,0.0,0.0,0.0,0.0,0.0,0.0,0.0,0.0,0.0,0.0,0.0,0.0,0.0,0.0,0.0,0.0,0.0,0.0,0.0,2.1645,2.1424,2.1401,2.1454,2.1654,2.1538,2.1095,0.0,0.0,0.0,0.0,0.0,0.0,0.0,0.0,0.0,0.0,0.0,0.0,0.0,0.0,0.0,0.0,0.0,0.0,0.0,0.0,0.0,0.0,0.0,0.0,0.0,0.0,0.0,0.0,0.0,0.0,0.0,0.0,0.0,0.0,0.0,0.0,0.0,0.0,0.0,0.0,0.0,0.0,0.0,0.0,0.0,0.0,0.0,0.0,0.0,0.0,0.0,0.0,0.0,0.0,0.0,0.0,0.0,0.0,0.0,0.0,0.0,0.0,0.0,0.0,0.0,0.0,0.0,0.0,0.0,0.0,0.0,0.0,0.0,0.0,0.0,0.0,0.0,0.0,0.0,0.0,0.0,0.0,0.0,0.0,0.0,0.0,0.0,0.0,0.0,0.0,0.0,0.0,0.0,0.0,0.0,0.0,0.0,0.0,0.0,0.0,0.0,0.0,0.0,0.0,0.0,0.0,0.0,0.0,2.5123,2.4,2.3371,2.3291,2.3499,2.3551,0.0,0.0,0.0,0.0,0.0,0.0,0.0,0.0,0.0,0.0,0.0,0.0,0.0,0.0,0.0,0.0,0.0,0.0,0.0,0.0,0.0,0.0,0.0,0.0,0.0,0.0,0.0,0.0,0.0,0.0,0.0,0.0,0.0,0.0,0.0,0.0,0.0,0.0,0.0,0.0,0.0,0.0,0.0,0.0,0.0,0.0,0.0,0.0,0.0,0.0,0.0,0.0,0.0,0.0,0.0,0.0,0.0,0.0,0.0,0.0,0.0,0.0,0.0,0.0,0.0,0.0,0.0,0.0,0.0,0.0,0.0,0.0,0.0,0.0,0.0,0.0,0.0,0.0,0.0,0.0,0.0,0.0,0.0,0.0,0.0,0.0,0.0,0.0,0.0,0.0,0.0,0.0,0.0,0.0,0.0,0.0,0.0,0.0,0.0,0.0,0.0,0.0,0.0,0.0,0.0,0.0,0.0,0.0,0.0,2.6828,2.6817,2.6291,2.5286,2.5207,2.5056,0.0,0.0,0.0,0.0,0.0,0.0,0.0,0.0,0.0,0.0,0.0,0.0,0.0,0.0,0.0,0.0,0.0,0.0,0.0,0.0,0.0,0.0,0.0,0.0,0.0,0.0,0.0,0.0,0.0,0.0,0.0,0.0,0.0,0.0,0.0,0.0,0.0,0.0,0.0,0.0,0.0,0.0,0.0,0.0,0.0,0.0,0.0,0.0,0.0,0.0,0.0,0.0,0.0,0.0,0.0,0.0,0.0,0.0,0.0,0.0,0.0,0.0,0.0,0.0,0.0,0.0,0.0,0.0,0.0,0.0,0.0,0.0,0.0,0.0,0.0,0.0,0.0,0.0,0.0,0.0,0.0,0.0,0.0,0.0,0.0,0.0,0.0,0.0,0.0,0.0,0.0,0.0,0.0,0.0,0.0,0.0,0.0,0.0,0.0,0.0,0.0,0.0,0.0,0.0,0.0,0.0,0.0,0.0,2.8111,2.8662,2.9252,2.9195,2.8452,2.7463,2.6752,0.0,0.0,0.0,0.0,0.0,0.0,0.0,0.0,0.0,0.0,0.0,0.0,0.0,0.0,0.0,0.0,0.0,0.0,0.0,0.0,0.0,0.0,0.0,0.0,0.0,0.0,0.0,0.0,0.0,0.0,0.0,0.0,0.0,0.0,0.0,0.0,0.0,0.0,0.0,0.0,0.0,0.0,0.0,0.0,0.0,0.0,0.0,0.0,0.0,0.0,0.0,0.0,0.0,0.0,0.0,0.0,0.0,0.0,0.0,0.0,0.0,0.0,0.0,0.0,0.0,0.0,0.0,0.0,0.0,0.0,0.0,0.0,0.0,0.0,0.0,0.0,0.0,0.0,0.0,0.0,0.0,0.0,0.0,0.0,0.0,0.0,0.0,0.0,0.0,0.0,0.0,0.0,0.0,0.0,0.0,0.0,0.0,0.0,0.0,0.0,0.0,0.0,0.0,0.0,0.0,0.0,0.0,0.0,2.9928,3.0498,3.1293,3.1773,3.1835,2.988,2.8713,0.0,0.0,0.0,0.0,0.0,0.0,0.0,0.0,0.0,0.0,0.0,0.0,0.0,0.0,0.0,0.0,0.0,0.0,0.0,0.0,0.0,0.0,0.0,0.0,0.0,0.0,0.0,0.0,0.0,0.0,0.0,0.0,0.0,0.0,0.0,0.0,0.0,0.0,0.0,0.0,0.0,0.0,0.0,0.0,0.0,0.0,0.0,0.0,0.0,0.0,0.0,0.0,0.0,0.0,0.0,0.0,0.0,0.0,0.0,0.0,0.0,0.0,0.0,0.0,0.0,0.0,0.0,0.0,0.0,0.0,0.0,0.0,0.0,0.0,0.0,0.0,0.0,0.0,0.0,0.0,0.0,0.0,0.0,0.0,0.0,0.0,0.0,0.0,0.0,0.0,0.0,0.0,0.0,0.0,0.0,0.0,0.0,0.0,0.0,0.0,0.0,0.0,0.0,0.0,0.0,0.0,0.0,0.0,3.1358,3.1756,3.2194,3.2426,3.2484,3.1467,3.0927,0.0,0.0,0.0,0.0,0.0,0.0,0.0,0.0,0.0,0.0,0.0,0.0,0.0,0.0,0.0,0.0,0.0,0.0,0.0,0.0,0.0,0.0,0.0,0.0,0.0,0.0,0.0,0.0,0.0,0.0,0.0,0.0,0.0,0.0,0.0,0.0,0.0,0.0,0.0,0.0,0.0,0.0,0.0,0.0,0.0,0.0,0.0,0.0,-0.4075,0.0,0.0,0.0,0.0,0.0,0.0,0.0,0.0,0.0,0.0,0.0,0.0,0.0,0.0,0.0,0.0,0.0,0.0,0.0,0.0,0.0,0.0,0.0,0.0,0.0,0.0,0.0,0.0,0.0,0.0,0.0,0.0,0.0,0.0,0.0,0.0,0.0,0.0,0.0,0.0,0.0,0.0,0.0,0.0,0.0,0.0,0.0,0.0,0.0,0.0,0.0,0.0,0.0,0.0,0.0,0.0,0.0,0.0,0.0,3.2929,3.3796,3.3927,3.4041,3.4041,3.369,3.3036,0.0,0.0,0.0,0.0,0.0,0.0,0.0,0.0,0.0,0.0,0.0,0.0,0.0,0.0,0.0,0.0,0.0,0.0,0.0,0.0,0.0,0.0,0.0,0.0,0.0,0.0,0.0,0.0,0.0,0.0,0.0,0.0,0.0,0.0,0.0,0.0,0.0,0.0,0.0,0.0,0.0,0.0,0.0,0.0,0.0,0.0,0.0,0.0,0.0,0.0,0.0,0.0,0.0,0.0,0.0,0.0,0.0,0.0,0.0,0.0,0.0,0.0,0.0,0.0,0.0,0.0,0.0,0.0,0.0,0.0,0.0,0.0,0.0,0.0,0.0,0.0,0.0,0.0,0.0,0.0,0.0,0.0,0.0,0.0,0.0,0.0,0.0,0.0,0.0,0.0,0.0,0.0,0.0,0.0,0.0,0.0,0.0,0.0,0.0,0.0,0.0,0.0,0.0,0.0,0.0,0.0,0.0,3.363,3.4645,3.5907,3.5987,3.6022,3.6022,3.6005,3.5076,3.3185,0.0,0.0,0.0,0.0,0.0,0.0,0.0,0.0,0.0,0.0,0.0,0.0,0.0,0.0,0.0,0.0,0.0,0.0,0.0,0.0,0.0,0.0,0.0,0.0,0.0,0.0,0.0,0.0,0.0,0.0,0.0,0.0,0.0,0.0,0.0,0.0,0.0,0.0,-0.6699,-0.5876,0.0,0.0,0.0,0.0,0.0,0.0,0.0,0.0,0.1142,0.0,0.0,0.0,0.0,0.0,0.0,0.0,0.0,0.0,0.0,0.0,0.0,0.0,0.0,0.0,0.0,0.0,0.0,0.0,0.0,0.0,0.0,0.0,0.0,0.0,0.0,0.0,0.0,0.0,0.0,0.0,0.0,0.0,0.0,0.0,0.0,0.0,0.0,0.0,0.0,0.0,0.0,0.0,0.0,0.0,0.0,0.0,0.0,0.0,0.0,0.0,0.0,0.0,0.0,0.0,0.0,3.5068,3.5643,3.6522,3.7644,3.7784,3.786,3.786,3.786,3.7296,3.6093,0.0,0.0,0.0,0.0,0.0,0.0,0.0,0.0,0.0,0.0,0.0,0.0,0.0,0.0,0.0,0.0,0.0,0.0,0.0,0.0,0.0,0.0,0.0,0.0,0.0,0.0,0.0,0.0,0.0,0.0,0.0,0.0,0.0,0.0,0.0,0.0,0.0,0.0,0.0,-0.4807,-0.4201,0.0,0.0,0.0,0.0,0.0,0.0,0.0,0.0,0.4819,0.0,0.0,0.0,0.0,0.0,0.0,0.0,0.0,0.0,0.0,0.0,0.0,0.0,0.0,0.0,0.0,0.0,0.0,0.0,0.0,0.0,0.0,0.0,0.0,0.0,0.0,0.0,0.0,0.0,0.0,0.0,0.0,0.0,0.0,0.0,0.0,0.0,0.0,0.0,0.0,0.0,0.0,0.0,0.0,0.0,0.0,0.0,0.0,0.0,0.0,0.0,0.0,0.0,0.0,0.0,3.6406,3.698,3.7594,3.8196,3.8385,3.8431,3.8448,3.8448,3.8168,0.0,0.0,0.0,0.0,0.0,0.0,0.0,0.0,0.0,0.0,0.0,0.0,0.0,0.0,0.0,0.0,0.0,0.0,0.0,0.0,0.0,0.0,0.0,0.0,0.0,0.0,0.0,0.0,0.0,0.0,0.0,0.0,0.0,0.0,0.0,0.0,0.0,0.0,0.0,0.0,-0.371,-0.2739,-0.1991,0.0,0.0,0.0,0.0,0.0,0.0,0.6075,0.7457,0.0,0.0,0.0,0.0,0.0,0.0,0.0,0.0,0.0,0.0,0.0,0.0,0.0,0.0,0.0,0.0,0.0,0.0,0.0,0.0,0.0,0.0,0.0,0.0,0.0,0.0,0.0,0.0,0.0,0.0,0.0,0.0,0.0,0.0,0.0,0.0,0.0,0.0,0.0,0.0,0.0,0.0,0.0,0.0,0.0,0.0,0.0,0.0,0.0,0.0,0.0,0.0,0.0,0.0,0.0,3.7569,3.8108,3.8538,3.8872,3.8997,3.9043,3.9043,3.906,3.8837,0.0,0.0,0.0,0.0,0.0,0.0,0.0,0.0,0.0,0.0,0.0,0.0,0.0,0.0,0.0,0.0,0.0,0.0,0.0,0.0,0.0,0.0,0.0,0.0,0.0,0.0,0.0,0.0,0.0,0.0,0.0,0.0,0.0,0.0,0.0,0.0,0.0,0.0,0.0,0.0,0.0,-0.1238,-0.0292,0.1314,0.0,0.0,0.0,0.0,0.8062,0.9085,0.0,0.0,0.0,0.0,0.0,0.0,0.0,0.0,0.0,0.0,0.0,0.0,0.0,0.0,0.0,0.0,0.0,0.0,0.0,0.0,0.0,0.0,0.0,0.0,0.0,0.0,0.0,0.0,0.0,0.0,0.0,0.0,0.0,0.0,0.0,0.0,0.0,0.0,0.0,0.0,0.0,0.0,0.0,0.0,0.0,0.0,0.0,0.0,0.0,0.0,0.0,0.0,0.0,0.0,0.0,0.0,3.8555,3.9064,3.9723,4.0578,4.0612,4.0629,4.0612,4.0535,4.0065,0.0,0.0,0.0,0.0,0.0,0.0,0.0,0.0,0.0,0.0,0.0,0.0,0.0,0.0,0.0,0.0,0.0,0.0,0.0,0.0,0.0,0.0,0.0,0.0,0.0,0.0,0.0,0.0,0.0,0.0,0.0,0.0,0.0,0.0,0.0,0.0,0.0,0.0,0.0,0.0,0.0,0.0,0.2166,0.3515,0.4925,0.0,0.0,0.9948,1.1329,1.2855,0.0,0.0,0.0,0.0,0.0,0.0,0.0,0.0,0.0,0.0,0.0,0.0,0.0,0.0,0.0,0.0,0.0,0.0,0.0,0.0,0.0,0.0,0.0,0.0,0.0,0.0,0.0,0.0,0.0,0.0,0.0,0.0,0.0,0.0,0.0,0.0,0.0,0.0,0.0,0.0,0.0,0.0,0.0,0.0,0.0,0.0,0.0,0.0,0.0,0.0,0.0,0.0,0.0,0.0,0.0,3.8252,3.953,4.0252,4.0923,4.1509,4.1957,4.2164,4.2049,4.1999,4.1441,0.0,0.0,0.0,0.0,0.0,0.0,0.0,0.0,0.0,0.0,0.0,0.0,0.0,0.0,0.0,0.0,0.0,0.0,0.0,0.0,0.0,0.0,0.0,0.0,0.0,0.0,0.0,0.0,0.0,0.0,0.0,0.0,0.0,0.0,0.0,0.0,0.0,0.0,0.0,0.0,0.0,0.0,0.586,0.6861,0.0,0.0,0.0,1.2835,1.4344,0.0,0.0,0.0,0.0,0.0,0.0,0.0,0.0,0.0,0.0,0.0,0.0,0.0,0.0,0.0,0.0,0.0,0.0,0.0,0.0,0.0,0.0,0.0,0.0,0.0,0.0,0.0,0.0,0.0,0.0,0.0,0.0,0.0,0.0,0.0,0.0,0.0,0.0,0.0,0.0,0.0,0.0,0.0,0.0,0.0,0.0,0.0,0.0,0.0,0.0,0.0,0.0,0.0,0.0,0.0,0.0,0.0,4.0307,4.1342,4.197,4.2186,4.2754,4.2979,4.286,4.2757,0.0,0.0,0.0,0.0,0.0,0.0,0.0,0.0,0.0,0.0,0.0,0.0,0.0,0.0,0.0,0.0,0.0,0.0,0.0,0.0,0.0,0.0,0.0,0.0,0.0,0.0,0.0,-0.3921,0.0,0.0,0.0,0.0,0.0,0.0,0.0,0.0,0.0,0.0,0.0,0.0,0.0,0.0,0.5488,0.9082,1.0407,1.1541,0.0,0.0,1.5996,1.745,1.8741,1.9925,0.0,0.0,0.0,0.0,0.0,0.0,0.0,0.0,0.0,0.0,0.0,0.0,0.0,0.0,0.0,0.0,0.0,0.0,0.0,0.0,0.0,0.0,0.0,0.0,0.0,0.0,0.0,0.0,0.0,0.0,0.0,0.0,0.0,0.0,0.0,0.0,0.0,0.0,0.0,0.0,0.0,0.0,0.0,0.0,0.0,0.0,0.0,0.0,0.0,0.0,0.0,0.0,0.0,0.0,0.0,4.098,4.2039,4.2638,4.2638,4.2689,4.2723,4.2706,4.2462,4.2233,0.0,0.0,0.0,0.0,0.0,0.0,0.0,0.0,0.0,0.0,0.0,0.0,0.0,0.0,0.0,0.0,0.0,0.0,0.0,0.0,0.0,0.0,0.0,0.0,0.0,0.0,0.0,0.0,0.0,0.0,0.0,0.0,0.0,0.0,0.0,0.0,0.0,0.0,0.0,0.0,0.0,0.9475,1.1067,1.408,1.6186,0.0,0.0,1.9392,2.0994,2.2274,2.3397,2.4413,0.0,0.0,0.0,0.0,0.0,0.0,0.0,0.0,0.0,0.0,0.0,0.0,0.0,0.0,0.0,0.0,0.0,0.0,0.0,0.0,0.0,0.0,0.0,0.0,0.0,0.0,0.0,0.0,0.0,0.0,0.0,0.0,0.0,0.0,0.0,0.0,0.0,0.0,0.0,0.0,0.0,0.0,0.0,0.0,0.0,0.0,0.0,0.0,0.0,0.0,0.0,0.0,0.0,4.0657,4.1381,4.2446,4.3051,4.3158,4.3583,4.3766,4.3673,4.3507,4.3082,0.0,0.0,0.0,0.0,0.0,0.0,0.0,0.0,0.0,0.0,0.0,0.0,0.0,0.0,0.0,0.0,0.0,0.0,0.0,0.0,0.0,0.0,0.0,0.0,0.0,0.0,0.0,0.0,-0.0326,0.0081,0.0975,0.0,0.0,0.0,0.0,0.0,0.0,0.0,0.0,0.0,0.0,1.2898,1.4838,1.7957,0.0,0.0,2.1829,2.3351,2.4843,2.6057,2.716,2.8166,2.9,0.0,0.0,0.0,0.0,0.0,0.0,0.0,0.0,0.0,0.0,0.0,0.0,0.0,0.0,0.0,0.0,0.0,0.0,0.0,0.0,0.0,0.0,0.0,0.0,0.0,0.0,0.0,0.0,0.0,0.0,0.0,0.0,0.0,0.0,0.0,0.0,0.0,0.0,0.0,0.0,0.0,0.0,0.0,0.0,0.0,0.0,0.0,0.0,0.0,0.0,0.0,0.0,4.1,4.1797,4.2829,4.335,4.3463,4.395,4.4162,4.4121,4.3889,4.3422,0.0,0.0,0.0,0.0,0.0,0.0,0.0,0.0,0.0,0.0,0.0,0.0,0.0,0.0,0.0,0.0,0.0,0.0,0.0,0.0,0.0,0.0,0.0,0.0,0.0,0.0,0.0,0.0,0.2586,0.3328,0.4398,0.0,0.0,0.0,0.0,0.0,0.0,0.0,0.0,0.0,0.0,1.6652,1.8691,2.133,2.3345,2.4102,2.5352,2.6659,2.8003,2.9083,3.0147,3.1048,0.0,0.0,0.0,0.0,0.0,0.0,0.0,0.0,0.0,0.0,0.0,0.0,0.0,0.0,0.0,0.0,0.0,0.0,0.0,0.0,0.0,0.0,0.0,0.0,0.0,0.0,0.0,0.0,0.0,0.0,0.0,0.0,0.0,0.0,0.0,0.0,0.0,0.0,0.0,0.0,0.0,0.0,0.0,0.0,0.0,0.0,0.0,0.0,0.0,0.0,0.0,0.0,0.0,4.1923,4.2268,4.3122,4.3545,4.3621,4.3638,4.3654,4.3595,4.3295,4.3052,4.2867,0.0,0.0,0.0,0.0,0.0,0.0,0.0,0.0,0.0,0.0,0.0,0.0,0.0,0.0,0.0,0.0,0.0,0.0,0.0,0.0,0.0,0.0,0.0,0.0,0.0,0.0,0.5186,0.5998,0.6987,0.0,0.0,0.0,0.0,0.0,0.0,0.0,0.0,0.0,0.0,1.9326,2.0834,2.2563,2.3978,2.539,2.6978,2.8019,2.9162,3.0474,3.1264,3.2004,0.0,0.0,0.0,0.0,0.0,0.0,0.0,0.0,0.0,0.0,0.0,0.0,0.0,0.0,0.0,0.0,0.0,0.0,0.0,0.0,0.0,0.0,0.0,0.0,0.0,0.0,0.0,-1.6811,-1.6569,0.0,0.0,0.0,0.0,0.0,0.0,0.0,0.0,0.0,0.0,0.0,0.9496,1.3086,0.0,0.0,0.0,0.0,0.0,0.0,0.0,0.0,0.0,0.0,0.0,0.0,4.1652,4.2369,4.2737,4.3219,4.363,4.3663,4.3583,4.3441,4.3234,4.2687,4.1736,0.0,0.0,0.0,0.0,0.0,0.0,0.0,0.0,0.0,0.0,0.0,0.0,0.0,0.0,0.0,0.0,0.0,0.0,0.0,0.0,0.0,0.0,0.0,0.0,0.0,0.7857,0.0,0.0,0.0,0.0,0.0,0.0,0.0,0.0,0.0,0.0,0.0,1.9321,2.1062,2.2493,2.4104,2.6358,2.7794,2.9353,0.0,0.0,0.0,0.0,0.0,0.0,0.0,0.0,0.0,0.0,0.0,0.0,0.0,0.0,4.1059,3.8915,3.879,3.9133,3.9446,0.0,0.0,0.0,0.0,0.0,0.0,0.0,0.0,0.0,0.0,0.0,0.0,0.0,0.0,0.0,0.0,-1.702,0.0,0.0,0.0,0.0,0.0,0.0,0.0,0.0,0.142,0.5379,0.9358,1.3607,1.7655,0.0,2.4495,2.7397,0.0,0.0,0.0,0.0,0.0,0.0,0.0,0.0,4.1405,4.2093,4.2462,4.2815,4.3281,4.3538,4.36,4.3384,4.2568,4.1815,4.0917,3.9771,3.8862,0.0,0.0,0.0,0.0,0.0,0.0,0.0,0.0,0.0,0.0,0.0,0.0,0.0,0.0,0.0,0.0,0.0,0.0,0.0,0.0,0.0,0.0,0.0,1.1134,0.0,0.0,0.0,0.0,0.0,0.0,0.0,0.0,0.0,2.0241,2.1339,2.3033,2.488,2.6221,2.7891,3.0123,0.0,0.0,0.0,0.0,0.0,0.0,0.0,3.9454,4.0112,4.0762,4.1421,4.2168,4.2859,4.3467,4.3955,0.0,0.0,4.1296,4.1114,4.138,4.1644,4.2309,4.2987,4.3645,4.4418,4.5205,0.0,0.0,0.0,0.0,0.0,0.0,0.0,0.0,-1.904,-1.875,0.0,-1.7897,0.0,0.0,0.0,0.0,0.0,0.0,0.0,0.0,0.1683,0.5804,1.0259,1.4344,1.8227,2.1906,2.543,2.8543,3.1228,3.2917,0.0,0.0,0.0,0.0,0.0,0.0,4.1205,4.1586,4.2217,4.2579,4.2658,4.3289,4.3481,4.3239,4.1454,4.0516,4.0497,3.9578,3.8649,3.7857,3.6665,0.0,0.0,0.0,0.0,0.0,0.0,0.0,0.0,0.0,0.0,0.0,0.0,0.0,0.0,0.0,0.0,0.0,0.0,0.0,0.0,1.4167,0.0,0.0,0.0,0.0,0.0,0.0,0.0,0.0,0.0,0.0,2.4073,2.4952,2.6577,2.9012,0.0,0.0,0.0,0.0,3.5942,3.7114,3.7901,3.8722,3.9629,4.0321,4.0991,4.1699,0.0,0.0,4.3933,4.423,4.4448,4.4757,4.515,4.509,4.4886,4.4827,4.4957,4.5062,4.5376,4.5714,4.577,4.6195,4.6688,-2.1486,0.0,0.0,0.0,0.0,-2.0131,-1.9862,-1.9604,-1.9408,-1.9093,-1.8774,-1.8127,0.0,0.0,0.0,0.0,0.0,0.0,-0.5529,-0.1928,0.1984,0.6279,1.0773,1.4664,1.8654,2.2787,2.5925,2.8785,3.1446,3.3642,3.5441,3.7051,0.0,0.0,0.0,0.0,4.067,4.1496,4.1713,4.2286,4.3247,4.3287,4.307,4.2622,4.1174,4.0094,3.9513,3.8635,3.7778,3.6794,3.5998,0.0,0.0,0.0,0.0,0.0,0.0,0.0,0.0,0.0,0.0,0.0,0.0,0.0,0.0,0.0,0.0,0.0,0.0,0.0,1.6132,1.6116,1.6736,0.0,0.0,0.0,0.0,0.0,0.0,0.0,0.0,0.0,3.0618,3.0002,3.0287,0.0,0.0,3.4812,3.6476,3.7549,3.8933,4.0779,0.0,0.0,0.0,4.4571,4.5101,4.5631,4.6411,4.7149,4.7749,4.8,4.8246,4.8623,4.8787,4.887,4.8967,4.7496,4.6473,4.6592,4.7626,4.8549,4.8753,4.9325,4.9933,-2.2801,-2.2239,-2.1609,-2.1202,-2.0957,-2.0772,-2.0459,-2.0105,-1.9875,-1.9617,-1.921,-1.8826,-1.8475,-1.8013,-1.6296,0.0,0.0,0.0,-0.5784,-0.1953,0.1936,0.615,1.0569,1.4634,1.8591,2.2493,2.5749,2.8607,3.1233,3.3344,3.5182,3.6727,0.0,0.0,3.9307,3.9619,4.0079,4.0792,4.1321,4.1956,4.2743,4.2707,4.2436,4.185,4.0357,3.9358,3.8904,3.7861,3.6864,3.5859,3.5152,3.4358,0.0,0.0,0.0,0.0,0.0,0.0,0.0,0.0,0.0,0.0,0.0,2.0013,0.0,0.0,0.0,0.0,1.783,1.8343,1.9034,1.9412,0.0,0.0,0.0,0.0,0.0,0.0,0.0,3.0614,3.2094,3.348,3.4754,3.4705,3.4813,3.5353,3.6534,3.7875,3.9395,0.0,4.2053,4.367,4.4489,4.538,4.6372,4.6965,4.7545,4.8137,4.8688,4.9246,4.9776,4.9928,5.0214,5.083,5.1064,5.1238,5.1909,5.0909,4.9746,4.8974,4.9621,5.0472,5.1026,5.1582,5.2156,-2.4006,-2.3921,-2.286,-2.2156,-2.1698,-2.1568,-2.1202,-2.0696,-2.0573,-2.0207,-1.9745,-1.9853,-1.9359,-1.8342,-1.6364,0.0,-1.2503,-0.9612,-0.6231,-0.2408,0.1446,0.5523,0.9906,1.4298,1.8088,2.1425,2.5039,2.8149,3.0621,3.2282,3.3917,3.548,3.6922,3.781,3.8396,3.8964,3.9375,3.9677,4.0788,4.1448,4.1506,4.1671,4.1561,4.1099,3.9368,3.8443,3.8347,3.7101,3.5978,3.5063,3.4118,3.3288,3.2575,0.0,0.0,0.0,0.0,0.0,0.0,0.0,0.0,0.0,0.0,0.0,0.0,0.0,0.0,0.0,2.0492,0.0,2.2217,2.3388,0.0,0.0,0.0,2.817,2.9071,3.0679,3.2034,3.3054,0.0,0.0,3.7171,0.0,3.9698,3.8542,3.9695,4.1069,4.2406,4.3796,4.5113,4.5872,4.6481,4.7135,4.7898,4.8607,4.9341,5.005,5.0063,5.0489,5.0921,5.103,5.1357,5.2342,5.246,5.2779,5.3753,5.4463,5.4483,5.2104,5.1806,5.214,5.3011,5.3288,5.3772,-2.5067,-2.5005,-2.4486,-2.3664,-2.2634,-2.2374,-2.2049,-2.1766,-2.1541,-2.1202,-2.0835,-2.0719,-2.0129,-1.9004,-1.749,-1.5644,-1.3469,-1.0534,-0.7465,-0.4325,-0.0,0.4445,0.8988,1.3121,1.71,2.0958,2.4317,2.7106,2.9445,3.112,3.2659,3.3888,3.4402,3.5467,3.7042,3.7619,3.8314,3.9022,3.9708,4.0152,4.0265,4.0334,3.9986,3.921,3.8523,3.7695,3.6727,3.6135,3.4958,3.3429,3.2901,3.2212,3.1128,3.0543,0.0,0.0,0.0,0.0,0.0,0.0,0.0,0.0,0.0,2.2093,2.1714,0.0,2.1705,0.0,2.288,2.3861,2.4382,2.5955,0.0,0.0,3.0072,3.1699,3.1938,3.3355,3.5009,3.667,3.8045,3.9417,4.0955,4.2155,4.3115,4.3457,4.332,4.3645,4.461,4.5487,4.6451,4.7513,4.838,4.9353,5.0784,5.2165,5.3131,5.3733,5.3854,5.4045,5.4418,5.4546,5.4769,5.5217,5.5373,5.5544,5.5845,5.6107,5.6145,5.5621,5.5454,5.5473,5.5861,5.5915,5.6117,-2.552,-2.5447,-2.5526,-2.5096,-2.4327,-2.3591,-2.3069,-2.2725,-2.2498,-2.2175,-2.1759,-2.1588,-2.1181,-2.0534,-1.8961,-1.698,-1.468,-1.1941,-0.8845,-0.5485,-0.1592,0.2755,0.7297,1.1364,1.5312,1.9255,2.2658,2.5442,2.7746,2.959,3.092,3.1904,3.2586,3.348,3.4491,3.6106,3.7202,3.7884,3.8369,3.8654,3.8622,3.8339,3.7899,3.7204,3.6794,3.6175,3.5174,3.4552,3.3585,3.2123,3.1518,3.0802,2.9772,2.9176,2.862,0.0,0.0,0.0,0.0,0.0,0.0,0.0,0.0,0.0,0.0,0.0,2.3205,0.0,2.4931,2.5961,2.6748,2.8199,2.9335,3.0182,3.2239,3.3862,3.46,3.6099,3.7684,3.9407,4.0681,4.1858,4.3099,4.4245,4.5326,4.6179,4.6444,4.6557,4.6837,4.7802,4.898,4.9894,5.0889,5.1952,5.3343,5.4247,5.496,5.5377,5.5493,5.5625,5.5979,5.6084,5.6299,5.683,5.6983,5.7378,5.8165,5.839,5.854,5.9044,5.9138,5.8688,5.7783,5.7837,5.821,-2.5578,-2.5552,-2.6083,-2.6235,-2.6044,-2.5016,-2.4302,-2.3837,-2.355,-2.3172,-2.2726,-2.2579,-2.2454,-2.2384,-2.0568,-1.8466,-1.62,-1.3633,-1.0396,-0.6699,-0.3366,0.0645,0.5256,0.9247,1.3188,1.6931,2.0409,2.3307,2.5708,2.7575,2.8811,2.9681,3.0824,3.139,3.1552,3.404,3.5686,3.6457,3.6737,3.6794,3.6527,3.6031,3.5473,3.5017,3.4497,3.4021,3.3575,3.284,3.1979,3.1031,3.0072,2.9303,2.8564,2.7809,2.7315,0.0,2.686,0.0,0.0,0.0,0.0,0.0,0.0,0.0,0.0,2.3852,2.4683,2.5869,2.6862,2.7898,2.8959,3.014,3.14,3.2797,3.4063,3.5368,3.7083,3.8631,4.0064,4.155,4.2716,4.3722,4.4581,4.5864,4.7038,4.8,4.8976,4.9478,4.9309,5.0339,5.1451,5.2323,5.3512,5.4453,5.5163,5.5524,5.5806,5.6116,5.6362,5.6436,5.6899,5.6999,5.7284,5.8127,5.8484,5.899,6.0529,6.0755,6.1037,6.171,6.184,6.1236,5.9613,5.9499,6.0214,-2.5559,-2.5565,-2.6179,-2.6375,-2.6295,-2.6576,-2.6114,-2.5105,-2.48,-2.4468,-2.4107,-2.402,-2.3806,-2.3417,-2.2068,-2.0366,-1.8374,-1.5756,-1.2882,-0.9787,-0.5905,-0.1769,0.2815,0.6771,1.0699,1.4642,1.7891,2.0809,2.3466,2.4849,2.6048,2.7002,2.8063,2.8785,2.9147,0.0,0.0,0.0,3.4328,3.4083,3.3801,3.3505,3.3009,3.2297,3.2208,0.0,3.1019,3.0852,3.0278,2.9338,2.879,0.0,0.0,0.0,0.0,0.0,0.0,0.0,0.0,0.0,0.0,0.0,2.466,2.4575,2.4617,2.5747,2.6972,2.7814,2.8873,2.9919,3.0625,3.2005,3.3389,3.4862,3.6238,3.761,3.9319,4.0509,4.1834,4.3391,4.4503,4.5572,4.6782,4.7861,4.8934,5.0129,5.1066,5.1815,5.2623,5.232,5.2518,5.3635,5.5072,5.603,5.6438,5.7177,5.7722,5.8066,5.8252,5.8635,5.93,5.9625,6.0022,6.081,6.115,6.128,6.1768,6.1824,6.1917,6.2213,6.234,6.2186,6.1681,6.1716,6.1917,-2.5415,0.0,-2.6577,-2.6949,0.0,-2.7565,-2.7496,-2.6785,-2.6077,-2.5667,-2.545,-2.541,-2.5228,-2.4836,-2.3887,-2.2321,-2.0314,-1.8147,-1.5475,-1.2315,-0.892,-0.4928,-0.0467,0.3397,0.7447,1.1661,1.4688,1.7605,2.0397,2.1778,2.2889,2.3987,2.5086,2.5914,2.6327,2.6826,2.8699,3.1849,3.1444,3.124,3.1046,3.0533,3.0016,2.961,0.0,0.0,0.0,0.0,0.0,0.0,0.0,0.0,0.0,0.0,0.0,2.4726,2.4421,2.4332,2.4332,2.4233,2.4223,2.4529,2.5216,2.58,2.5984,2.7125,2.8247,2.936,3.0441,3.1412,3.2364,3.3866,3.5345,3.6634,3.8046,3.9677,4.1288,4.2408,4.3625,4.5041,4.614,4.7111,4.8142,4.9255,5.0343,5.1419,5.2423,5.3407,5.4454,5.4258,5.4381,5.5763,5.6682,5.7426,5.774,5.8542,5.9274,5.9518,5.9974,6.0505,6.1034,6.1262,6.1469,6.1864,6.2051,6.2236,6.2707,6.2799,6.2984,6.3505,6.3687,6.3774,6.374,6.3417,6.3161,-2.5169,-2.5256,-2.6688,-2.7284,-2.7301,-2.8099,-2.8415,-2.8288,0.0,0.0,0.0,-2.6564,-2.6437,-2.6213,-2.5502,-2.4195,-2.2383,-2.0644,-1.81,-1.482,-1.2123,-0.8599,-0.4198,-0.0388,0.3731,0.8037,1.1061,1.3948,1.6774,1.8289,1.945,2.0641,2.1812,2.2608,2.2986,2.3267,2.4911,2.7999,2.7999,2.7999,2.7989,2.7154,2.6723,2.6732,2.6227,2.6027,2.5918,2.5809,2.5566,2.5156,2.4861,2.4403,2.3703,2.3392,2.3091,2.2846,2.292,2.292,2.302,2.332,2.3728,2.4223,2.5684,2.6855,2.7336,2.8239,2.939,3.0851,3.193,3.3121,3.4309,3.5865,3.7276,3.8436,4.0013,4.1607,4.3227,4.4294,4.5371,4.6666,4.7589,4.842,4.9277,5.0454,5.161,5.2511,5.3602,5.4768,5.5858,5.6088,5.6441,5.7737,5.8326,5.8708,5.9199,5.9831,6.0423,6.0658,6.1318,6.1939,6.2165,6.2313,6.2423,6.2743,6.2648,6.3005,6.3625,6.3827,6.4124,6.4875,6.5261,6.5422,6.5384,6.4984,6.4654,-2.4797,-2.4856,-2.5736,-2.6485,-2.7102,-2.7885,-2.8528,-2.8888,-2.7847,-2.7178,-2.6927,-2.7114,-2.7143,-2.7087,-2.6391,-2.5661,-2.4789,-2.3125,-2.0812,0.0,-1.5492,-1.221,-0.8264,-0.4261,-0.0303,0.3757,0.6992,1.0046,1.268,1.4377,1.5677,1.666,1.7875,1.872,1.9222,1.8891,1.9706,2.1827,2.3271,2.4089,2.4089,2.3422,2.3095,2.2759,2.2767,2.255,2.2332,2.2573,2.2566,2.2511,2.2134,2.1791,2.1501,2.1325,2.1122,2.0885,2.1269,2.1692,2.1895,2.2417,2.3329,2.4754,2.6232,2.7451,2.8218,2.9586,3.1021,3.24,3.3997,3.546,3.6851,3.8048,3.9387,4.09,4.2211,4.3558,4.5123,4.6045,4.7023,4.8032,4.8652,4.9528,5.0752,5.1551,5.267,5.4296,5.5145,5.6133,5.7371,5.7767,5.8143,5.9079,5.9548,6.0041,6.0715,6.131,6.1637,6.1751,6.2014,6.2502,6.3177,6.3378,6.3638,6.4408,6.4476,6.4681,6.4904,6.4957,6.5071,6.5351,6.5874,6.6319,6.6357,6.6745,6.6936,-2.4961,-2.501,-2.5773,-2.6588,-2.7426,-2.8596,-2.9248,-2.9438,-2.8905,-2.8286,-2.7771,-2.7996,-2.8167,-2.8246,-2.7865,-2.7396,-2.674,-2.5491,-2.3607,-2.1073,-1.8662,-1.5704,-1.2037,-0.8099,-0.4283,-0.0522,0.2628,0.5565,0.8243,0.993,1.1354,1.2445,1.3497,1.4163,1.4479,1.4132,1.4267,1.5011,1.814,1.9873,2.013,1.9422,1.9077,1.8975,1.8962,1.8859,1.8744,1.9103,1.9225,1.9225,1.9226,1.907,1.8617,1.8687,1.8628,1.838,1.888,1.9517,2.0254,2.2078,2.3639,2.4983,2.6735,2.8369,2.9679,3.0816,3.217,3.3916,3.5463,3.6909,3.8283,3.9805,4.1254,4.2391,4.3877,4.5205,4.633,4.7288,4.8229,4.9362,5.0017,5.0904,5.2245,5.3223,5.41,5.5414,5.6314,5.7556,5.888,5.9159,5.9356,5.9868,6.0487,6.1042,6.1632,6.2258,6.2673,6.2839,6.3308,6.3776,6.4351,6.4438,6.4643,6.5,6.518,6.5389,6.5746,6.5893,6.6097,6.6676,6.6987,6.7355,6.7531,6.8116,6.8296,-2.5203,-2.525,-2.5841,-2.6723,-2.7764,-2.9126,-2.9779,-2.9893,-2.9765,-2.9323,-2.873,-2.8793,-2.9039,-2.9367,-2.9147,-2.886,-2.8482,-2.7632,-2.6031,-2.3818,-2.1723,-1.9039,-1.5778,-1.208,-0.8434,-0.5068,-0.2027,0.087,0.3512,0.5196,0.6646,0.809,0.8977,0.9391,0.9388,0.909,0.8699,0.8692,1.1802,1.4222,1.5579,1.5103,1.4744,1.4862,1.4867,1.4872,1.4985,1.5344,1.5467,1.5467,1.5831,1.5743,1.5288,1.5692,1.5835,1.5851,1.6449,1.7556,1.923,2.1659,2.3712,2.5071,2.6967,2.9011,3.086,3.2129,3.3546,3.5392,3.6997,3.8377,3.9939,4.1489,4.2831,4.3771,4.5221,4.6528,4.7517,4.8329,4.9441,5.0798,5.1505,5.2319,5.3633,5.4706,5.559,5.6412,5.7492,5.864,5.9766,6.0311,6.0556,6.0952,6.1616,6.2259,6.2429,6.3163,6.3743,6.3919,6.4446,6.4837,6.509,6.5194,6.5378,6.5525,6.5633,6.6008,6.6624,6.686,6.7152,6.7692,6.8097,6.8482,6.878,6.9251,6.947,-2.5371,-2.5371,-2.5479,-2.6417,-2.7885,-2.8828,-2.9594,-3.017,-3.0119,-2.9942,-2.9668,-2.9132,-2.9461,-3.019,-2.9717,-2.9717,-3.0021,-2.9139,-2.79,-2.6348,-2.4449,-2.2306,-1.9925,-1.6462,-1.3216,-1.0108,-0.686,-0.4093,-0.1622,0.022,0.1991,0.3555,0.3948,0.4098,0.4005,0.3644,0.3341,0.3343,0.3387,0.5714,1.0088,1.0088,0.9975,0.9971,1.0219,1.047,1.0339,1.0943,1.1303,1.1307,1.1551,1.1635,1.1429,1.2065,1.2655,1.3116,1.4098,1.5955,1.8939,2.0879,2.2822,2.4733,2.6862,2.9064,3.1361,3.3585,3.5481,3.7024,3.8621,4.0294,4.2099,4.3169,4.4174,4.529,4.6324,4.7447,4.8993,4.9805,5.0762,5.2492,5.2997,5.3704,5.4937,5.5692,5.6528,5.7702,5.8388,5.9148,6.0257,6.1184,6.2033,6.2711,6.3126,6.3484,6.4177,6.4645,6.475,6.4904,6.5085,6.527,6.5404,6.5505,6.5643,6.6476,6.6662,6.7016,6.7678,6.8052,6.8071,6.8454,6.8934,6.95,7.019,7.045,7.0363,-2.5518,-2.5518,-2.5518,-2.621,-2.7414,-2.8698,-2.9442,-2.9718,-3.0201,-3.034,-3.0171,-2.9829,-2.9961,-3.0423,-3.0404,-3.0547,-3.0726,-3.0533,-2.9879,-2.8665,-2.6843,-2.516,-2.338,-2.0154,-1.7285,-1.4725,-1.1769,-0.9093,-0.6544,-0.4155,-0.2432,-0.144,-0.1237,-0.1247,-0.1476,-0.1624,-0.176,-0.1997,-0.2267,-0.132,0.0719,0.351,0.4997,0.4997,0.5242,0.5487,0.5487,0.6096,0.6433,0.6499,0.6973,0.7477,0.8067,0.8382,0.8924,0.9898,1.2356,1.4825,1.7172,1.9451,2.1768,2.3806,2.6421,2.8978,3.1416,3.3879,3.6119,3.801,3.9747,4.1449,4.3016,4.419,4.5243,4.6333,4.7544,4.8812,4.9856,5.1079,5.2351,5.3778,5.4364,5.5026,5.623,5.6928,5.7611,5.8505,5.9175,6.007,6.1072,6.2165,6.3179,6.4026,6.4325,6.449,6.4886,6.5012,6.5128,6.5258,6.5321,6.5429,6.6085,6.626,6.6576,6.7467,6.7621,6.7966,6.8752,6.8944,6.9021,6.9424,6.9846,7.0412,7.0757,7.0815,7.0815,-2.5639,-2.5639,-2.5639,-2.6119,-2.7032,-2.8442,-2.9193,-2.9454,-3.0268,-3.0552,-3.0461,-3.0365,-3.0341,-3.0471,-3.0979,-3.1292,-3.1404,-3.1645,-3.149,-3.0686,-2.9009,-2.7669,-2.6537,-2.3798,-2.1191,-1.8937,-1.6334,-1.3657,-1.0971,-0.8608,-0.716,-0.6626,-0.6475,-0.6517,-0.6758,-0.6742,-0.6914,-0.7156,-0.738,-0.7445,-0.6972,-0.3932,-0.1446,-0.0243,0.0121,0.0364,0.0364,0.1087,0.144,0.1542,0.2133,0.2928,0.3883,0.4328,0.525,0.7122,1.0215,1.2868,1.4884,1.7679,2.0286,2.2648,2.563,2.8483,3.117,3.3887,3.6395,3.8684,4.0476,4.2179,4.357,4.5101,4.6343,4.7322,4.8862,5.0116,5.1179,5.2424,5.3695,5.5038,5.5598,5.623,5.7291,5.8125,5.8838,5.9309,6.0147,6.1168,6.209,6.3026,6.3865,6.4807,6.5128,6.5161,6.5061,6.5161,6.5321,6.549,6.5588,6.6145,6.6854,6.6988,6.7534,6.8302,6.8484,6.8915,6.9625,6.9894,6.9894,7.0555,7.086,7.0894,7.0933,7.0952,7.0952,-2.5698,-2.5698,-2.5698,-2.6124,-2.6958,-2.79,-2.8743,-2.9468,-3.0331,-3.0695,-3.0661,-3.0607,-3.0516,-3.0486,-3.1367,-3.2013,-3.2279,-3.2366,-3.2453,-3.229,-3.0798,-2.9867,-2.9352,-2.7185,-2.4968,-2.2792,-2.0604,-1.7816,-1.4516,-1.3324,-1.25,-1.1962,-1.1661,-1.1567,-1.1593,-1.1867,-1.2192,-1.2095,-1.2154,-1.2261,-1.2266,-1.192,-0.9644,-0.6277,-0.5049,-0.477,-0.4646,-0.3882,-0.35,-0.3496,-0.2564,-0.1967,-0.1597,-0.0342,0.172,0.4652,0.7437,0.9926,1.2298,1.5178,1.8237,2.1338,2.4268,2.7485,3.0771,3.3482,3.6194,3.8965,4.1014,4.271,4.4235,4.6013,4.7626,4.8674,5.0141,5.1673,5.3229,5.3777,5.4903,5.6116,5.6685,5.7297,5.816,5.9177,5.9887,6.045,6.1205,6.2128,6.3062,6.3543,6.4158,6.4862,6.529,6.5364,6.5383,6.5364,6.5454,6.5772,6.6308,6.6912,6.7189,6.7601,6.8454,6.9135,6.944,6.989,7.0544,7.0802,7.0752,7.0979,7.1011,7.1037,7.103,7.1081,7.1081,-2.5699,-2.5694,-2.5698,-2.5876,-2.6268,-2.7637,-2.8435,-2.8859,-3.0181,-3.076,-3.0768,-3.0735,-3.0675,-3.0646,-3.1465,-3.1981,-3.2198,-3.236,-3.2711,-3.3023,-3.2233,-3.1589,-3.104,-2.9896,-2.8349,-2.6426,-2.4703,-2.23,-1.9216,-1.7834,-1.7174,-1.6918,-1.6447,-1.6249,-1.6274,-1.6256,-1.6205,-1.623,-1.6355,-1.6484,-1.6702,-1.6857,-1.611,-1.4616,-1.129,-0.9564,-0.9564,-0.8935,-0.8416,-0.8222,-0.7539,-0.6466,-0.4925,-0.3956,-0.2053,0.1035,0.388,0.6689,0.9351,1.2421,1.5691,1.9192,2.2584,2.6127,2.9642,3.2918,3.5968,3.8711,4.1497,4.3617,4.5356,4.6875,4.8442,5.0009,5.1515,5.2853,5.391,5.4856,5.5824,5.6704,5.7356,5.8143,5.9097,5.9868,6.0503,6.128,6.207,6.2837,6.3524,6.4115,6.4775,6.5188,6.5413,6.5705,6.6413,6.5839,6.5686,6.6307,6.6918,6.7752,6.8241,6.871,6.9487,7.004,7.0336,7.0459,7.0959,7.0966,7.103,7.1056,7.1106,7.113,7.1106,7.113,7.113,-2.5676,-2.5665,-2.569,-2.5696,-2.5852,-2.7342,-2.8112,-2.8468,-3.0054,-3.08,-3.08,-3.079,-3.0774,-3.081,-3.124,-3.1855,-3.2397,-3.2643,-3.3183,-3.388,-3.3512,-3.31,-3.2657,-3.2062,-3.1016,-2.9399,-2.7782,-2.5728,-2.3607,-2.2302,-2.1705,-2.1545,-2.0998,-2.0718,-2.0632,-2.0437,-2.024,-2.0279,-2.0449,-2.0558,-2.0789,-2.0977,-2.1191,-2.0852,-1.7889,-1.5453,-1.4457,-1.3633,-1.3096,-1.2864,-1.2197,-1.0692,-0.861,-0.7595,-0.5872,-0.307,-0.0232,0.2714,0.571,0.8994,1.2758,1.6838,2.0622,2.4538,2.8575,3.2274,3.5515,3.8532,4.1724,4.4358,4.6466,4.8055,4.9599,5.121,5.2677,5.3888,5.4705,5.575,5.6564,5.7325,5.8189,5.9072,5.9897,6.0724,6.1523,6.2259,6.3045,6.3676,6.4139,6.4718,6.5295,6.5444,6.5819,6.6241,6.6869,6.6773,6.683,6.741,6.7891,6.8667,6.9232,6.9759,7.0228,7.0774,7.1056,7.1075,7.11,7.1106,7.1169,7.1207,7.1178,7.1201,7.1178,7.1178,7.1313,-2.5601,-2.5621,-2.5679,-2.5699,-2.5894,-2.7043,-2.776,-2.8528,-3.0069,-3.0788,-3.0799,-3.0793,-3.0801,-3.0792,-3.084,-3.1596,-3.286,-3.3169,-3.3808,-3.4659,-3.4688,-3.4352,-3.3906,-3.3678,-3.2881,-3.1653,-2.9719,-2.841,-2.7411,-2.642,-2.5868,-2.5744,-2.5247,-2.4792,-2.4771,-2.4352,-2.4263,-2.4272,-2.43,-2.43,-2.4487,-2.4543,-2.4758,-2.4749,-2.4113,-2.2325,-1.9317,-1.8149,-1.7403,-1.7279,-1.643,-1.4921,-1.2954,-1.1584,-0.979,-0.7553,-0.4881,-0.1963,0.1302,0.5232,0.9557,1.4025,1.8512,2.295,2.7458,3.1526,3.5123,3.8482,4.171,4.476,4.7444,4.9556,5.117,5.23,5.361,5.4772,5.5702,5.6492,5.7159,5.793,5.8973,5.9897,6.0516,6.1691,6.2824,6.3443,6.406,6.4617,6.49,6.5194,6.5405,6.5647,6.6164,6.6838,6.7359,6.7815,6.8206,6.8616,6.9078,6.9637,6.9951,7.04,7.0632,7.1125,7.1458,7.1521,7.1656,7.168,7.1839,7.1839,7.1634,7.1695,7.1866,7.202,7.1788,-2.5609,-2.5609,-2.5609,-2.5954,-2.6518,-2.7471,-2.8299,-2.9113,-3.0277,-3.076,-3.0802,-3.0801,-3.0801,-3.0798,-3.0797,-3.1666,-3.3151,-3.3239,-3.3727,-3.4674,-3.5303,-3.5208,-3.4683,-3.5023,-3.4587,-3.3191,-3.1885,-3.0853,-3.0189,-2.9404,-2.8994,-2.8779,-2.8444,-2.8157,-2.7878,-2.7536,-2.7254,-2.7254,-2.7264,-2.7348,-2.7557,-2.7651,-2.7755,-2.7859,-2.7589,-2.6758,-2.5635,-2.3006,-2.1374,-2.0867,-2.0161,-1.8904,-1.7108,-1.5665,-1.3874,-1.1533,-0.8654,-0.5679,-0.2302,0.1878,0.6291,1.1294,1.6189,2.1204,2.6126,3.0476,3.4558,3.8464,4.2051,4.5229,4.795,5.0408,5.2127,5.3454,5.4495,5.5472,5.6438,5.7206,5.7745,5.8234,5.9319,6.0323,6.1276,6.2559,6.3577,6.4287,6.4731,6.5071,6.5226,6.5421,6.5551,6.5628,6.6477,6.7455,6.8109,6.8776,6.9384,6.9582,6.9929,7.0238,7.057,7.0783,7.1058,7.1444,7.18,7.2094,7.221,7.2387,7.2584,7.2855,7.2974,7.3032,7.3071,7.2916,7.2665,-2.5564,-2.5602,-2.6029,-2.6398,-2.7006,-2.8345,-2.9142,-2.9538,-3.0322,-3.073,-3.0753,-3.0755,-3.0782,-3.0791,-3.0797,-3.1754,-3.3227,-3.3218,-3.3829,-3.4961,-3.5923,-3.5909,-3.5411,-3.6182,-3.5866,-3.4589,-3.3922,-3.3353,-3.2766,-3.1927,-3.1458,-3.119,-3.1063,-3.0731,-3.0514,-3.0244,-3.0067,-2.9988,-2.9976,-2.9988,-3.0112,-3.0191,-3.0293,-3.0406,-3.0147,-2.9875,-2.9579,-2.7254,-2.544,-2.4211,-2.3367,-2.2156,-2.057,-1.9273,-1.7698,-1.5134,-1.2408,-0.9418,-0.5777,-0.1508,0.3302,0.862,1.4038,1.9487,2.4737,2.9497,3.4009,3.8331,4.2131,4.5447,4.8169,5.0716,5.2686,5.4038,5.5061,5.6067,5.7041,5.7752,5.8363,5.8968,6.0013,6.1101,6.2163,6.3201,6.4102,6.481,6.5042,6.5188,6.5321,6.5512,6.5686,6.6162,6.7114,6.8046,6.8891,6.9697,7.0521,7.0618,7.0656,7.0792,7.1008,7.1066,7.1263,7.1997,7.2465,7.2974,7.3148,7.3383,7.3599,7.3908,7.4083,7.3773,7.3579,7.3632,7.3496,-2.5638,-2.5782,-2.6787,-2.7144,-2.7334,-2.9375,-2.9993,-2.9699,-3.0316,-3.0688,-3.069,-3.071,-3.0734,-3.0784,-3.0788,-3.1754,-3.3156,-3.3353,-3.4114,-3.5433,-3.64,-3.6526,-3.6219,-3.7078,-3.6854,-3.5822,-3.5735,-3.5534,-3.4842,-3.397,-3.3397,-3.3023,-3.2958,-3.2859,-3.2586,-3.2679,-3.2463,-3.2352,-3.2376,-3.2289,-3.214,-3.2215,-3.2389,-3.2389,-3.2127,-3.1877,-3.15,-3.0676,-2.9293,-2.7169,-2.582,-2.4627,-2.3475,-2.2518,-2.0751,-1.8504,-1.6076,-1.2842,-0.9119,-0.4925,0.0349,0.623,1.2082,1.7734,2.3618,2.879,3.3534,3.8019,4.2022,4.5385,4.82,5.0658,5.2686,5.431,5.5549,5.6617,5.7759,5.8107,5.8626,5.9677,6.0946,6.2028,6.2936,6.3973,6.4609,6.4936,6.5128,6.5226,6.5394,6.5647,6.6106,6.6792,6.7597,6.85,6.9307,7.0212,7.0934,7.0973,7.1054,7.1131,7.1344,7.144,7.1637,7.2394,7.3303,7.3792,7.4162,7.4397,7.4554,7.4749,7.4612,7.4224,7.424,7.4486,7.4541,-2.7267,-2.7314,-2.7605,-2.8039,-2.8579,-2.9371,-2.9854,-3.0202,-3.0481,-3.0623,-3.0637,-3.0683,-3.0698,-3.0736,-3.0804,-3.1747,-3.3045,-3.3389,-3.4226,-3.5658,-3.6439,-3.6755,-3.6961,-3.7958,-3.7991,-3.7069,-3.7126,-3.6951,-3.6061,-3.5495,-3.4922,-3.4438,-3.4224,-3.4248,-3.4246,-3.4032,-3.4035,-3.4056,-3.4024,-3.3953,-3.3784,-3.3784,-3.3882,-3.3797,-3.3628,-3.3373,-3.3018,-3.1965,-3.0531,-2.8691,-2.7505,-2.6552,-2.5538,-2.4482,-2.2985,-2.1025,-1.8608,-1.5889,-1.254,-0.8354,-0.2974,0.3482,1.0106,1.6407,2.2092,2.7834,3.2983,3.7581,4.1714,4.5312,4.8186,5.0677,5.2892,5.5112,5.6273,5.7057,5.7722,5.8162,5.8776,5.9897,6.1005,6.2067,6.322,6.4123,6.4815,6.5061,6.518,6.5277,6.5425,6.56,6.5981,6.6934,6.7789,6.88,6.9721,7.0645,7.1192,7.1211,7.1231,7.125,7.1579,7.1907,7.2203,7.2711,7.4102,7.4821,7.5193,7.5487,7.5585,7.5546,7.5603,7.5464,7.5694,7.5902,7.5763,-2.7862,-2.7883,-2.8228,-2.8651,-2.9193,-2.9531,-3.0006,-3.0442,-3.054,-3.0569,-3.0606,-3.064,-3.0668,-3.0711,-3.0767,-3.1753,-3.3236,-3.3379,-3.4315,-3.58,-3.6748,-3.7166,-3.7521,-3.8474,-3.866,-3.8023,-3.8114,-3.7778,-3.7219,-3.6643,-3.5989,-3.5419,-3.5251,-3.5218,-3.5334,-3.53,-3.5217,-3.5319,-3.5345,-3.5277,-3.4977,-3.4977,-3.4895,-3.4812,-3.4647,-3.4481,-3.3797,-3.2772,-3.1448,-3.0,-2.8899,-2.806,-2.7389,-2.6137,-2.4669,-2.2985,-2.0586,-1.7775,-1.4336,-1.0235,-0.4806,0.1504,0.8323,1.4541,2.0583,2.659,3.2143,3.6974,4.1325,4.4996,4.8142,5.0967,5.3513,5.5502,5.6564,5.7257,5.7792,5.8197,5.9122,6.0315,6.131,6.2295,6.3653,6.4406,6.4848,6.5114,6.518,6.5321,6.5435,6.5609,6.6115,6.7203,6.8084,6.9018,6.9996,7.0915,7.1231,7.1291,7.1485,7.1485,7.2046,7.251,7.3134,7.3756,7.4958,7.5774,7.5992,7.6187,7.6264,7.6323,7.6554,7.6551,7.6529,7.6463,7.6421,-2.8056,-2.8107,-2.8823,-2.9166,-2.9379,-3.0033,-3.0356,-3.0458,-3.0469,-3.0519,-3.0559,-3.0598,-3.0632,-3.0703,-3.0743,-3.1685,-3.3349,-3.3389,-3.4446,-3.5819,-3.6996,-3.7643,-3.7671,-3.8688,-3.8986,-3.8729,-3.8591,-3.8496,-3.8116,-3.7445,-3.6708,-3.614,-3.5926,-3.5922,-3.6043,-3.6137,-3.6338,-3.6355,-3.6308,-3.6084,-3.579,-3.571,-3.5642,-3.548,-3.5318,-3.4908,-3.4147,-3.3313,-3.2351,-3.1026,-3.0125,-2.9382,-2.8713,-2.7589,-2.6041,-2.4276,-2.1921,-1.9022,-1.5275,-1.0937,-0.5533,0.0695,0.6865,1.2831,1.9293,2.5467,3.119,3.617,4.0817,4.482,4.8484,5.1789,5.4085,5.5578,5.6402,5.7138,5.7792,5.8197,5.9159,6.1013,6.1557,6.2653,6.3879,6.4707,6.4942,6.5061,6.5161,6.529,6.5425,6.5561,6.6518,6.7867,6.8623,6.9234,7.0189,7.1166,7.125,7.1311,7.164,7.191,7.2703,7.3325,7.4121,7.4917,7.56,7.6108,7.6439,7.6613,7.6691,7.6672,7.6613,7.6612,7.6591,7.6466,7.6378,-2.9645,-2.9717,-2.9876,-2.9985,-3.0069,-3.0248,-3.0343,-3.0359,-3.0402,-3.0436,-3.0449,-3.055,-3.0625,-3.0649,-3.0741,-3.1676,-3.3215,-3.3532,-3.4297,-3.5844,-3.7295,-3.7674,-3.7848,-3.8802,-3.939,-3.9323,-3.9215,-3.9142,-3.883,-3.8238,-3.7519,-3.6923,-3.6473,-3.6406,-3.6897,-3.666,-3.6777,-3.7139,-3.7056,-3.673,-3.6508,-3.6298,-3.6218,-3.6072,-3.5656,-3.5072,-3.4314,-3.3471,-3.2612,-3.1813,-3.1015,-3.0125,-2.9301,-2.8269,-2.6935,-2.5168,-2.3167,-2.0499,-1.6884,-1.2416,-0.6837,0.0232,0.6478,1.3034,1.8169,2.4524,3.0323,3.549,4.0344,4.4945,4.9505,5.2424,5.4183,5.5325,5.6219,5.7003,5.7601,5.7997,5.8943,6.0143,6.1232,6.2219,6.3521,6.4406,6.472,6.497,6.5142,6.5258,6.5364,6.5513,6.6586,6.7897,6.8565,6.9172,7.0416,7.1201,7.1269,7.1446,7.1794,7.2355,7.3148,7.3844,7.4547,7.5249,7.5952,7.6361,7.6633,7.669,7.669,7.6672,7.6633,7.6593,7.6529,7.6444,7.6378,-3.0094,-3.0152,-3.0152,-3.0185,-3.0245,-3.024,-3.0247,-3.0299,-3.0336,-3.0359,-3.0425,-3.0509,-3.0569,-3.0625,-3.075,-3.165,-3.3225,-3.4276,-3.5037,-3.6123,-3.7327,-3.7839,-3.7852,-3.8821,-3.9625,-3.9819,-3.9448,-3.9431,-3.9445,-3.899,-3.8311,-3.7679,-3.7027,-3.72,-3.7637,-3.7321,-3.743,-3.7806,-3.7596,-3.7289,-3.6993,-3.6772,-3.6549,-3.6312,-3.5656,-3.499,-3.4397,-3.3628,-3.2859,-3.2077,-3.1294,-3.0499,-2.968,-2.8642,-2.7315,-2.5664,-2.3583,-2.0925,-1.745,-1.3392,-0.8154,-0.1752,0.4857,1.0802,1.6632,2.3027,2.9046,3.4252,3.9282,4.4428,4.9928,5.2246,5.3761,5.5009,5.5865,5.6617,5.7257,5.7857,5.867,5.9855,6.1042,6.2028,6.3088,6.3974,6.463,6.4939,6.5042,6.5142,6.5283,6.555,6.6337,6.7371,6.8161,6.9133,7.0513,7.1178,7.1269,7.1562,7.1968,7.2684,7.3516,7.4196,7.4834,7.5559,7.6281,7.6399,7.6614,7.6652,7.6671,7.6633,7.6593,7.6531,7.6488,7.6444,7.6401,-3.0026,-3.0072,-3.0053,-3.0117,-3.019,-3.0185,-3.0213,-3.0279,-3.0279,-3.0323,-3.041,-3.0466,-3.0519,-3.0598,-3.066,-3.1688,-3.3375,-3.5025,-3.5872,-3.6075,-3.7508,-3.7874,-3.8032,-3.8915,-3.9965,-4.038,-3.97,-3.9747,-4.0092,-3.9679,-3.892,-3.8351,-3.7738,-3.7793,-3.8219,-3.7977,-3.7893,-3.8399,-3.8052,-3.7672,-3.7303,-3.707,-3.6758,-3.6218,-3.5575,-3.4825,-3.423,-3.3556,-3.2785,-3.1989,-3.1205,-3.0499,-2.9691,-2.8653,-2.7305,-2.5761,-2.3655,-2.1155,-1.7983,-1.3922,-0.9446,-0.4506,0.18,0.838,1.4914,2.1343,2.7404,3.3278,3.873,4.4456,4.9442,5.1711,5.323,5.4499,5.5402,5.6164,5.6881,5.7601,5.8446,5.9467,6.0632,6.1831,6.2782,6.3729,6.4312,6.4853,6.4939,6.5042,6.5188,6.5528,6.626,6.7093,6.7936,6.9249,7.0648,7.1201,7.1269,7.1562,7.2026,7.2897,7.3748,7.4425,7.5086,7.5924,7.6493,7.6553,7.6613,7.6633,7.6633,7.6593,7.6531,7.651,7.6466,7.6421,7.6401,-2.9874,-2.994,-2.994,-3.0003,-3.0098,-3.0128,-3.0138,-3.0213,-3.0221,-3.0254,-3.0336,-3.039,-3.0477,-3.052,-3.0586,-3.1635,-3.3375,-3.5083,-3.5955,-3.6181,-3.7479,-3.8098,-3.8151,-3.9166,-4.0259,-4.0745,-4.0293,-4.0235,-4.0631,-4.0153,-3.9437,-3.8865,-3.8214,-3.8188,-3.8479,-3.8259,-3.8256,-3.8751,-3.8277,-3.7825,-3.7534,-3.707,-3.6665,-3.6045,-3.5399,-3.466,-3.381,-3.3031,-3.2176,-3.1472,-3.0679,-2.9966,-2.9287,-2.8438,-2.7303,-2.5781,-2.4034,-2.1651,-1.8583,-1.4906,-1.0338,-0.5103,0.0721,0.722,1.3965,2.0419,2.6584,3.3062,3.9635,4.5563,4.8879,5.1031,5.2736,5.4021,5.5052,5.5848,5.6564,5.7174,5.7828,5.8637,6.0079,6.1498,6.2342,6.3235,6.4068,6.4595,6.4798,6.4958,6.5128,6.5455,6.5932,6.6854,6.7779,6.929,7.0845,7.1128,7.1311,7.1523,7.2026,7.2897,7.3748,7.456,7.5337,7.6118,7.6488,7.651,7.6572,7.6612,7.6572,7.6529,7.6488,7.6466,7.6444,7.6401,7.6401,-2.9789,-2.9841,-2.9841,-2.9907,-2.9972,-3.0022,-3.0064,-3.0157,-3.0199,-3.0221,-3.0273,-3.0336,-3.0414,-3.0479,-3.0569,-3.162,-3.337,-3.5142,-3.5859,-3.625,-3.7487,-3.8219,-3.8196,-3.9371,-4.0564,-4.1139,-4.0836,-4.0706,-4.1305,-4.0594,-3.9919,-3.9312,-3.8623,-3.8649,-3.8984,-3.8542,-3.8637,-3.8922,-3.8486,-3.7915,-3.7548,-3.6915,-3.6284,-3.5804,-3.5181,-3.4397,-3.3713,-3.2859,-3.1989,-3.1163,-3.056,-2.974,-2.8972,-2.8156,-2.7236,-2.5737,-2.4164,-2.216,-1.9111,-1.5579,-1.1145,-0.6242,-0.0363,0.6128,1.2791,1.9276,2.6407,3.4148,3.9701,4.5248,4.8156,5.0317,5.2015,5.3382,5.4499,5.5385,5.6126,5.6671,5.722,5.7857,5.9261,6.0574,6.161,6.2604,6.3667,6.4275,6.4651,6.4853,6.5046,6.5327,6.5689,6.695,6.7993,6.9361,7.0725,7.1085,7.1269,7.1482,7.1872,7.2742,7.3632,7.4405,7.5314,7.6208,7.6427,7.6488,7.6508,7.6508,7.6485,7.6466,7.6444,7.6421,7.6421,7.6378,7.6378,-2.9718,-2.9773,-2.9773,-2.9825,-2.9874,-2.9907,-2.9972,-3.0064,-3.0157,-3.0199,-3.0226,-3.0337,-3.0379,-3.0543,-3.1091,-3.2027,-3.3457,-3.5123,-3.5831,-3.6285,-3.76,-3.8307,-3.8528,-3.9503,-4.0781,-4.1661,-4.1267,-4.1306,-4.1623,-4.1019,-4.0368,-3.9763,-3.9089,-3.9021,-3.9358,-3.8989,-3.9108,-3.896,-3.8649,-3.802,-3.7367,-3.6623,-3.6049,-3.5722,-3.4989,-3.4294,-3.3669,-3.2693,-3.171,-3.0894,-3.024,-2.9513,-2.861,-2.7884,-2.6924,-2.5665,-2.4105,-2.2016,-1.9172,-1.5758,-1.15,-0.6666,-0.0973,0.5423,1.2454,1.984,2.7706,3.6097,4.1005,4.4245,4.7111,4.9488,5.1271,5.27,5.3895,5.4817,5.5595,5.6219,5.6724,5.7538,5.8621,5.9767,6.0983,6.2151,6.3275,6.4157,6.452,6.4726,6.4888,6.5027,6.5658,6.7091,6.8349,6.954,7.0516,7.1101,7.1224,7.1305,7.1675,7.2316,7.3245,7.4173,7.5063,7.5837,7.6382,7.6444,7.6444,7.644,7.6463,7.6421,7.6421,7.6378,7.6378,7.6378,7.6378,-2.9589,-2.972,-2.972,-2.9737,-2.9825,-2.9874,-2.9905,-2.9937,-3.0064,-3.0157,-3.0199,-3.0291,-3.0337,-3.0714,-3.2155,-3.2947,-3.3751,-3.4998,-3.5921,-3.623,-3.7656,-3.8383,-3.8442,-3.9725,-4.0941,-4.1836,-4.1511,-4.1699,-4.193,-4.1366,-4.0594,-4.0003,-3.9655,-3.9554,-3.9656,-3.9349,-3.9413,-3.923,-3.8575,-3.7867,-3.7254,-3.6743,-3.6421,-3.6009,-3.5259,-3.4336,-3.3362,-3.2331,-3.1258,-3.0566,-2.9797,-2.901,-2.8186,-2.7295,-2.6312,-2.5138,-2.3761,-2.1923,-1.8871,-1.5411,-1.1343,-0.6451,-0.0737,0.5346,1.3273,2.2049,3.011,3.558,4.0006,4.3418,4.6138,4.8584,5.0426,5.196,5.3264,5.4264,5.5104,5.5711,5.6219,5.6689,5.7665,5.9161,6.0562,6.1737,6.2873,6.3709,6.4364,6.4558,6.4781,6.4924,6.5541,6.6973,6.81,6.9275,7.0292,7.0836,7.1154,7.1201,7.1498,7.1927,7.2755,7.3644,7.4363,7.5098,7.574,7.632,7.6397,7.6397,7.6397,7.6397,7.6378,7.6378,7.6378,7.6378,7.6378,-2.9433,-2.9589,-2.9589,-2.9645,-2.9719,-2.9773,-2.9842,-2.9888,-2.9953,-3.0049,-3.0157,-3.0218,-3.0292,-3.0752,-3.2319,-3.3175,-3.3673,-3.5115,-3.5903,-3.6347,-3.7594,-3.8396,-3.8635,-3.9747,-4.1088,-4.1889,-4.1849,-4.1927,-4.2101,-4.1692,-4.0901,-4.0239,-3.988,-3.9719,-3.9799,-3.9486,-3.9336,-3.8986,-3.8279,-3.7438,-3.677,-3.6342,-3.6021,-3.5543,-3.47,-3.3802,-3.2864,-3.1769,-3.0715,-2.9905,-2.9074,-2.8248,-2.7422,-2.6527,-2.5477,-2.3844,-2.2362,-2.0557,-1.8403,-1.4959,-1.0782,-0.5975,-0.0123,0.6733,1.5606,2.3743,3.0902,3.5545,3.9025,4.2258,4.5168,4.7568,4.9393,5.1048,5.2474,5.3532,5.4454,5.5164,5.5711,5.6164,5.6814,5.8341,5.981,6.0932,6.2231,6.3507,6.4121,6.4364,6.4577,6.4834,6.566,6.6827,6.7841,6.8779,6.9771,7.0549,7.1004,7.113,7.1154,7.1641,7.2259,7.3032,7.3712,7.4427,7.5161,7.5683,7.6137,7.6374,7.6397,7.6397,7.6378,7.6378,7.6378,7.6378,7.6378,-2.9267,-2.9412,-2.9434,-2.955,-2.9664,-2.9701,-2.9755,-2.9874,-2.9907,-2.9988,-3.0098,-3.0185,-3.0273,-3.0791,-3.2143,-3.3151,-3.3393,-3.5081,-3.5763,-3.6516,-3.7514,-3.8326,-3.8809,-3.9851,-4.1245,-4.2514,-4.1836,-4.2054,-4.2323,-4.1952,-4.1125,-4.0527,-4.0315,-4.0118,-3.9944,-3.9714,-3.939,-3.8689,-3.7755,-3.703,-3.6529,-3.6123,-3.5647,-3.4961,-3.4052,-3.3102,-3.2233,-3.1105,-3.0141,-2.9123,-2.8314,-2.7448,-2.6444,-2.5413,-2.4225,-2.2558,-2.0829,-1.8873,-1.664,-1.3689,-0.9837,-0.476,0.1851,0.9928,1.8501,2.5173,2.9997,3.4681,3.8024,4.1182,4.4144,4.6534,4.8502,5.0133,5.1704,5.2753,5.373,5.4516,5.5164,5.5613,5.6319,5.7495,5.8836,6.0018,6.1421,6.3103,6.3805,6.4121,6.4424,6.4689,6.5521,6.658,6.7588,6.8513,6.9478,7.0252,7.0716,7.1056,7.1081,7.126,7.1825,7.2384,7.3007,7.3735,7.4501,7.5105,7.56,7.5997,7.6374,7.6397,7.6378,7.6378,7.6378,7.6378,7.6378,-2.9156,-2.9222,-2.9291,-2.9433,-2.9607,-2.9664,-2.9738,-2.9806,-2.9855,-2.9972,-3.0083,-3.0166,-3.0279,-3.0833,-3.2069,-3.3093,-3.3292,-3.5021,-3.5694,-3.6453,-3.7538,-3.8316,-3.891,-3.9906,-4.1296,-4.2296,-4.194,-4.2095,-4.2523,-4.2071,-4.1509,-4.1222,-4.0756,-4.0615,-4.0339,-3.9833,-3.9032,-3.8225,-3.7249,-3.6748,-3.6423,-3.6031,-3.5524,-3.4966,-3.4024,-3.3086,-3.2062,-3.0621,-2.9445,-2.8295,-2.7418,-2.6389,-2.53,-2.4139,-2.2846,-2.1123,-1.9156,-1.7055,-1.4687,-1.2282,-0.8524,-0.2813,0.4591,1.2996,1.9837,2.4907,2.9512,3.3572,3.7074,4.0248,4.3108,4.5558,4.7483,4.928,5.0719,5.201,5.2992,5.3943,5.4534,5.5018,5.59,5.7078,5.8262,5.9473,6.1098,6.2804,6.3583,6.3953,6.4324,6.4671,6.5286,6.6208,6.7299,6.8307,6.9356,7.0055,7.0733,7.0979,7.1005,7.1056,7.1254,7.1794,7.2277,7.3029,7.3774,7.4443,7.5163,7.5768,7.6204,7.6335,7.6378,7.6378,7.6378,7.6378,7.6397,-2.8994,-2.9085,-2.9093,-2.9228,-2.9433,-2.9512,-2.9626,-2.9756,-2.9825,-2.9907,-3.0034,-3.0138,-3.0266,-3.0803,-3.2088,-3.3032,-3.343,-3.5002,-3.5639,-3.6454,-3.7496,-3.8324,-3.8961,-3.9937,-4.1359,-4.2259,-4.2068,-4.2132,-4.2869,-4.2273,-4.195,-4.16,-4.0976,-4.0595,-4.0237,-3.952,-3.8477,-3.7668,-3.6905,-3.658,-3.5811,-3.5469,-3.486,-3.3946,-3.2912,-3.1902,-3.0742,-2.9608,-2.8445,-2.7267,-2.6191,-2.5093,-2.3871,-2.2749,-2.1259,-1.9516,-1.7535,-1.529,-1.3044,-1.0763,-0.7248,0.1249,0.8506,1.4984,2.0268,2.4775,2.8972,3.2673,3.6048,3.9125,4.2088,4.4358,4.6344,4.8201,4.9805,5.1129,5.2241,5.3112,5.4032,5.4522,5.5556,5.6701,5.7901,5.9095,6.081,6.2498,6.3131,6.3736,6.4102,6.4463,6.5028,6.5828,6.694,6.7732,6.8751,6.975,7.0785,7.0898,7.0952,7.0979,7.1005,7.1036,7.1576,7.2307,7.3124,7.3921,7.4711,7.5586,7.607,7.6268,7.6355,7.6378,7.6378,7.6378,7.6374,-2.8804,-2.8929,-2.8952,-2.9093,-2.931,-2.9412,-2.9531,-2.9664,-2.9756,-2.9841,-2.9969,-3.0113,-3.0213,-3.0733,-3.2045,-3.2945,-3.3568,-3.4833,-3.5612,-3.6533,-3.7511,-3.8309,-3.8973,-3.9976,-4.1401,-4.2259,-4.2165,-4.2162,-4.2959,-4.2552,-4.2108,-4.151,-4.0939,-4.0388,-3.9945,-3.8735,-3.771,-3.7267,-3.6498,-3.609,-3.53,-3.4547,-3.3662,-3.2588,-3.1483,-3.0349,-2.9292,-2.8126,-2.7041,-2.5963,-2.4872,-2.376,-2.2531,-2.1159,-1.9774,-1.7898,-1.6009,-1.3751,-1.1611,-0.8119,-0.4094,0.405,0.9882,1.5438,2.0084,2.4439,2.8437,3.195,3.5089,3.8016,4.1102,4.3326,4.5407,4.7287,4.9085,5.0445,5.1369,5.2295,5.3209,5.4058,5.5132,5.6148,5.7938,5.9271,6.0845,6.2318,6.3055,6.3583,6.3848,6.4206,6.4558,6.5461,6.6558,6.7278,6.7993,6.9391,7.0652,7.0806,7.0843,7.0871,7.0871,7.0871,7.0956,7.158,7.2434,7.3369,7.4186,7.4954,7.5639,7.6218,7.6311,7.6397,7.6378,7.6378,7.6355,-2.8687,-2.881,-2.8881,-2.9044,-2.9262,-2.931,-2.9412,-2.9588,-2.9683,-2.979,-2.9924,-3.0038,-3.0147,-3.06,-3.2023,-3.2846,-3.3418,-3.4846,-3.5776,-3.6289,-3.7641,-3.8335,-3.9029,-4.0023,-4.1428,-4.224,-4.2115,-4.2075,-4.2868,-4.2503,-4.2039,-4.1214,-4.0403,-3.9822,-3.9905,-3.8125,-3.7438,-3.7621,-3.6197,-3.5281,-3.4486,-3.3453,-3.2376,-3.1165,-3.0026,-2.8774,-2.7697,-2.6717,-2.5634,-2.4531,-2.3528,-2.241,-2.1281,-2.0019,-1.8506,-1.6626,-1.4713,-1.2444,-0.9687,-0.434,0.1006,0.6125,1.1374,1.5645,1.9758,2.3955,2.7767,3.1271,3.4205,3.7145,3.9944,4.2393,4.4386,4.6344,4.8065,4.9503,5.0352,5.1613,5.2554,5.3565,5.4514,5.562,5.7686,5.9478,6.1013,6.2219,6.2965,6.3428,6.3673,6.3958,6.4308,6.503,6.608,6.7064,6.7935,6.9419,7.0444,7.0631,7.0748,7.0806,7.0815,7.0843,7.0967,7.1129,7.1822,7.2869,7.3562,7.4244,7.5143,7.6012,7.6287,7.6374,7.6397,7.6355,7.6306,-2.8536,-2.8662,-2.8687,-2.881,-2.8994,-2.916,-2.931,-2.9433,-2.9626,-2.9774,-2.9893,-2.9959,-3.0034,-3.0657,-3.1833,-3.2845,-3.3327,-3.4775,-3.5715,-3.6109,-3.7692,-3.8317,-3.8975,-4.0032,-4.1428,-4.2126,-4.2027,-4.1944,-4.268,-4.2422,-4.1707,-4.075,-3.9383,-3.8647,-3.831,-3.7331,-3.7042,-3.6715,-3.5392,-3.4133,-3.3312,-3.2095,-3.0867,-2.9817,-2.8552,-2.7257,-2.6173,-2.5075,-2.4086,-2.3079,-2.2063,-2.0931,-1.9903,-1.8745,-1.7226,-1.5327,-1.3292,-1.0061,-0.5955,-0.0881,0.3812,0.8347,1.2222,1.6008,1.996,2.3615,2.7151,3.0364,3.3332,3.6298,3.9059,4.1327,4.3367,4.5283,4.6971,4.8194,4.9325,5.0817,5.2053,5.3156,5.4166,5.6214,5.8219,5.9342,6.0683,6.1638,6.2342,6.3032,6.3382,6.3786,6.4106,6.4707,6.5595,6.6698,6.7821,6.9074,7.0044,7.0336,7.0563,7.0718,7.0777,7.0806,7.0853,7.0958,7.164,7.2341,7.3004,7.3763,7.4973,7.5767,7.5942,7.6204,7.6301,7.6301,7.6276,-2.8432,-2.851,-2.8536,-2.8587,-2.8737,-2.8998,-2.9203,-2.9332,-2.955,-2.9719,-2.9827,-2.9876,-2.994,-3.0544,-3.176,-3.2776,-3.3114,-3.4762,-3.5679,-3.6105,-3.7686,-3.8299,-3.8965,-4.0051,-4.1368,-4.2028,-4.1969,-4.1848,-4.2647,-4.2427,-4.1304,-3.9709,-3.8196,-3.7112,-3.6596,-3.6044,-3.5634,-3.5046,-3.3719,-3.2342,-3.1159,-3.0037,-2.9177,-2.8009,-2.6825,-2.5516,-2.4514,-2.3416,-2.2523,-2.1494,-2.0465,-1.9435,-1.8512,-1.722,-1.5693,-1.3899,-1.1382,-0.7771,-0.3127,0.0762,0.512,0.9691,1.3001,1.6358,1.9979,2.3507,2.6686,2.978,3.2685,3.5452,3.8158,4.0324,4.2363,4.427,4.5982,4.7312,4.8799,5.0297,5.1821,5.2826,5.4164,5.6382,5.8375,5.9276,6.0254,6.0986,6.1694,6.2394,6.3051,6.3501,6.3897,6.4453,6.5124,6.6141,6.7246,6.8441,6.9284,6.9973,7.0267,7.0513,7.0688,7.0748,7.0777,7.0806,7.1266,7.1802,7.2399,7.3301,7.4368,7.5089,7.5451,7.5748,7.6121,7.6198,7.6225,-2.8327,-2.838,-2.838,-2.8432,-2.8543,-2.8834,-2.9093,-2.9293,-2.9511,-2.9626,-2.972,-2.9844,-2.9891,-3.0262,-3.1797,-3.266,-3.3185,-3.4755,-3.5495,-3.6287,-3.7675,-3.8164,-3.8989,-4.0118,-4.1422,-4.1869,-4.1921,-4.1951,-4.2686,-4.1519,-4.0134,-3.85,-3.6839,-3.5463,-3.4612,-3.3873,-3.3634,-3.2937,-3.1849,-3.0242,-2.8675,-2.7864,-2.7103,-2.5945,-2.4735,-2.3519,-2.2402,-2.1502,-2.0472,-1.955,-1.8622,-1.7806,-1.675,-1.5451,-1.4018,-1.1976,-0.9329,-0.5339,-0.1384,0.2171,0.5812,1.0055,1.3436,1.6631,1.9986,2.339,2.6461,2.9328,3.2125,3.4692,3.7216,3.9328,4.1432,4.3396,4.5359,4.6821,4.8355,4.987,5.139,5.272,5.3987,5.5798,5.7755,5.8926,5.9761,6.0459,6.1122,6.175,6.2464,6.3194,6.361,6.4075,6.4796,6.5634,6.6706,6.7677,6.865,6.936,6.9903,7.0228,7.0425,7.0639,7.0748,7.0806,7.0862,7.1321,7.2129,7.286,7.361,7.4225,7.4723,7.5416,7.5829,7.6087,7.6172,-2.8154,-2.8246,-2.8264,-2.8318,-2.8458,-2.8656,-2.891,-2.9225,-2.9351,-2.9474,-2.9701,-2.9755,-2.9805,-3.0094,-3.1784,-3.252,-3.3445,-3.4487,-3.5408,-3.6455,-3.7652,-3.8203,-3.9165,-4.0432,-4.1617,-4.2006,-4.2031,-4.1905,-4.1759,-4.0648,-3.8656,-3.6886,-3.5279,-3.3599,-3.2174,-3.1072,-3.0965,-3.0583,-2.963,-2.8008,-2.6421,-2.5693,-2.4905,-2.383,-2.2725,-2.1608,-2.0587,-1.9659,-1.8732,-1.8033,-1.6979,-1.6042,-1.5337,-1.3899,-1.2333,-0.8945,-0.5947,-0.2766,0.051,0.3874,0.7189,1.0675,1.4178,1.7167,2.0258,2.3274,2.6365,2.8983,3.1562,3.4036,3.6317,3.8489,4.0619,4.2631,4.4553,4.6177,4.7683,4.9449,5.1099,5.2706,5.3914,5.5513,5.7379,5.8388,5.9147,5.9891,6.0582,6.118,6.186,6.2668,6.3307,6.3798,6.4312,6.5103,6.5766,6.6701,6.7772,6.8746,6.9341,6.9884,7.0216,7.0463,7.065,7.0777,7.0843,7.1332,7.2052,7.2591,7.286,7.3418,7.3946,7.4802,7.5495,7.5705,7.5906,-2.8042,-2.8126,-2.8144,-2.8209,-2.8345,-2.8484,-2.8761,-2.9044,-2.9185,-2.9392,-2.9589,-2.9682,-2.977,-3.0139,-3.1694,-3.2699,-3.2929,-3.461,-3.5773,-3.6693,-3.7765,-3.8476,-3.9502,-4.0731,-4.1656,-4.1954,-4.197,-4.1848,-4.1291,-3.9417,-3.7339,-3.5542,-3.3698,-3.1752,-3.0045,-2.86,-2.7534,-2.727,-2.6732,-2.5593,-2.4497,-2.3525,-2.267,-2.1684,-2.0795,-1.9652,-1.8732,-1.78,-1.6979,-1.6149,-1.509,-1.4391,-1.3435,-1.1985,-0.947,-0.6309,-0.3867,-0.0889,0.2194,0.6124,0.9095,1.1942,1.4874,1.7848,2.065,2.3551,2.6122,2.8655,3.0984,3.318,3.5378,3.7584,3.9748,4.1941,4.3694,4.5368,4.7188,4.9062,5.0788,5.2508,5.4067,5.5569,5.6887,5.7797,5.8615,5.9366,6.0019,6.0704,6.1394,6.2237,6.2886,6.3447,6.3929,6.4472,6.5143,6.582,6.6777,6.7863,6.8784,6.936,6.9832,7.0324,7.0582,7.0729,7.0843,7.1294,7.1687,7.1687,7.1918,7.2514,7.3053,7.363,7.4389,7.5024,7.5245,-2.7986,-2.8014,-2.7996,-2.8099,-2.8209,-2.8406,-2.8612,-2.881,-2.9067,-2.9267,-2.9433,-2.9589,-2.9793,-3.0371,-3.1813,-3.2724,-3.3379,-3.4757,-3.6013,-3.7,-3.7921,-3.8691,-3.9694,-4.1025,-4.1781,-4.1762,-4.1677,-4.1709,-4.0767,-3.8862,-3.6348,-3.4424,-3.2236,-3.0162,-2.8084,-2.6263,-2.4887,-2.3669,-2.3558,-2.2983,-2.234,-2.1343,-2.0444,-1.953,-1.8493,-1.7443,-1.6744,-1.5924,-1.4981,-1.4023,-1.3186,-1.2724,-1.1183,-0.9859,-0.6834,-0.4142,-0.1899,0.0769,0.4032,0.7621,1.0699,1.3274,1.5669,1.8372,2.1168,2.3442,2.6017,2.8197,3.0422,3.2509,3.4591,3.6686,3.8826,4.1069,4.3009,4.4942,4.6865,4.8895,5.0903,5.2479,5.3733,5.5149,5.605,5.6963,5.7814,5.8668,5.945,6.0146,6.0945,6.1732,6.2464,6.3099,6.3647,6.4117,6.4592,6.5257,6.5857,6.6831,6.7882,6.8608,6.8927,6.9699,7.0532,7.069,7.0843,7.0871,7.1091,7.1187,7.1379,7.1764,7.2225,7.2495,7.3129,7.3899,7.4649,-2.7806,-2.7946,-2.7986,-2.8071,-2.8227,-2.83,-2.8492,-2.8718,-2.897,-2.9197,-2.9411,-2.9625,-3.0077,-3.0863,-3.2024,-3.2937,-3.3846,-3.482,-3.6013,-3.7055,-3.8018,-3.9001,-3.9864,-4.1493,-4.1989,-4.1941,-4.1831,-4.1214,-3.933,-3.7329,-3.5208,-3.2706,-3.0614,-2.8391,-2.6191,-2.4267,-2.241,-2.0845,-2.006,-2.0399,-2.019,-1.9203,-1.8248,-1.756,-1.6632,-1.58,-1.5095,-1.4267,-1.343,-1.259,-1.1507,-1.011,-0.8355,-0.7508,-0.5426,-0.2684,0.0,0.2601,0.5503,0.8724,1.1691,1.4205,1.6576,1.9012,2.1301,2.3435,2.566,2.7829,2.9855,3.1832,3.3823,3.586,3.7961,4.017,4.2434,4.4493,4.6579,4.8807,5.0952,5.2245,5.3403,5.4333,5.5247,5.6129,5.6904,5.7814,5.8702,5.9516,6.029,6.114,6.2041,6.2686,6.3373,6.3842,6.4259,6.467,6.5294,6.5874,6.6809,6.7478,6.8055,6.8903,6.9796,7.0527,7.0843,7.0794,7.0802,7.0937,7.1148,7.1379,7.1456,7.1745,7.186,7.2456,7.3514,-2.7748,-2.7824,-2.79,-2.8014,-2.8126,-2.8209,-2.8406,-2.8637,-2.8834,-2.9269,-2.9811,-3.009,-3.0509,-3.1355,-3.2443,-3.3282,-3.4152,-3.5032,-3.6361,-3.7463,-3.8229,-3.9405,-4.0665,-4.1904,-4.1958,-4.1946,-4.1181,-3.9917,-3.7742,-3.5872,-3.3816,-3.1021,-2.8798,-2.6705,-2.4386,-2.2245,-2.0519,-1.8933,-1.7589,-1.7398,-1.7833,-1.7013,-1.629,-1.5693,-1.4862,-1.4147,-1.355,-1.2715,-1.1872,-1.0694,-0.9384,-0.7962,-0.616,-0.443,-0.2817,-0.0647,0.1829,0.4475,0.7139,0.9692,1.2401,1.5019,1.7227,1.9668,2.1328,2.3464,2.5317,2.7486,2.9303,3.1179,3.3204,3.5174,3.736,3.9639,4.1985,4.4222,4.6392,4.8624,5.0383,5.1619,5.2606,5.3505,5.4333,5.5247,5.6113,5.7072,5.7959,5.8841,5.9696,6.0591,6.1487,6.2255,6.2935,6.3565,6.4019,6.4362,6.4727,6.5312,6.5907,6.684,6.7678,6.8342,6.9029,6.975,7.0315,7.0536,7.0582,7.0706,7.086,7.1071,7.1052,7.1033,7.1102,7.1285,7.2179,-2.7672,-2.7719,-2.783,-2.7917,-2.8014,-2.8144,-2.8318,-2.851,-2.873,-2.9392,-3.0331,-3.074,-3.1033,-3.1883,-3.2881,-3.3627,-3.4458,-3.5455,-3.6787,-3.7872,-3.8486,-3.9803,-4.1073,-4.2132,-4.2047,-4.1343,-4.0397,-3.8698,-3.6693,-3.477,-3.2426,-2.9381,-2.6979,-2.4922,-2.2487,-2.0371,-1.8652,-1.7437,-1.6208,-1.535,-1.511,-1.4912,-1.4641,-1.3966,-1.3089,-1.2603,-1.2118,-1.1269,-1.0301,-0.917,-0.7635,-0.6074,-0.3949,-0.18,-0.013,0.1709,0.3957,0.6368,0.8657,1.1066,1.3456,1.5814,1.7876,1.9801,2.1468,2.3223,2.5194,2.6935,2.8755,3.0613,3.2646,3.4763,3.6965,3.9306,4.1657,4.3952,4.6188,4.8296,4.9582,5.0872,5.1712,5.2621,5.349,5.4333,5.5231,5.627,5.7206,5.8086,5.9012,6.0054,6.1016,6.1768,6.2497,6.3073,6.3705,6.4102,6.4381,6.4785,6.5459,6.6448,6.7259,6.768,6.8253,6.8982,6.9491,6.9758,7.0217,7.0437,7.061,7.0764,7.0871,7.0843,7.0853,7.1036,7.1189,-2.7569,-2.7617,-2.77,-2.7818,-2.7946,-2.8124,-2.83,-2.845,-2.8724,-2.9368,-3.0429,-3.1377,-3.2115,-3.3031,-3.3393,-3.4049,-3.4936,-3.5916,-3.7042,-3.817,-3.9041,-4.0372,-4.1466,-4.217,-4.1974,-4.1059,-3.9746,-3.7998,-3.5716,-3.362,-3.1196,-2.8228,-2.598,-2.3585,-2.1009,-1.8947,-1.7156,-1.5947,-1.4783,-1.3609,-1.3403,-1.3252,-1.3373,-1.2782,-1.1954,-1.1425,-1.0785,-0.9808,-0.9029,-0.8019,-0.674,-0.5023,-0.2465,0.0392,0.2243,0.3584,0.5863,0.7865,1.0157,1.215,1.4516,1.6602,1.8536,2.0075,2.1727,2.3113,2.4873,2.6313,2.8206,3.0118,3.2048,3.4424,3.6555,3.9162,4.1668,4.3753,4.5926,4.7383,4.8596,4.9693,5.0573,5.1512,5.2547,5.3387,5.4333,5.5312,5.6508,5.7463,5.8458,5.9516,6.0503,6.1275,6.2005,6.27,6.3363,6.3811,6.4162,6.4499,6.4934,6.5771,6.6445,6.6827,6.7427,6.8167,6.8599,6.8866,6.9344,6.9871,7.0236,7.0409,7.07,7.0787,7.0758,7.0786,7.0938]}]]